GFSGBSN_2pvu_pres_000.txt.gz
Presure
215 126 160 193 214 210 208 186 193 226 205 199 187 194 205 186 215 223 207 215 252 242 243 231 232 236 227 234 237 253 257 271 311 214 251 210 200 193 179 188 109 110 111 115 130 210 200
218 219 214 215 204 205 196 200 210 222 201 204 190 192 205 181 221 233 230 217 256 240 232 235 226 232 215 241 258 250 260 277 285 325 224 259 198 192 187 171 107 148 109 215 93 80 141
234 221 223 213 212 214 211 218 205 193 201 203 189 194 176 204 220 212 236 211 244 228 232 228 229 229 238 265 242 241 261 309 275 331 223 244 210 87 190 195 189 171 180 89 101 87 208
225 226 225 217 202 204 219 220 200 212 212 204 184 194 191 201 215 207 216 260 233 230 224 226 225 241 254 276 288 302 282 373 390 373 346 231 264 200 90 134 189 173 186 180 217 88 85
148 149 151 218 175 218 205 199 219 216 207 200 183 194 201 206 198 206 211 241 238 225 225 232 248 258 268 280 290 313 345 371 399 390 363 233 266 205 190 191 155 188 177 169 204 209 127
229 249 235 125 150 209 203 209 221 218 203 200 191 202 201 215 209 234 213 241 226 230 223 234 246 270 274 283 302 334 372 407 407 402 370 241 166 206 195 178 178 183 176 203 196 206 209
242 241 242 232 163 223 213 220 211 209 207 175 152 202 197 218 206 220 233 230 237 232 235 249 248 273 279 302 323 356 397 391 230 427 371 237 271 101 190 178 185 180 184 180 206 209 205
321 246 242 239 217 181 219 219 195 209 222 210 188 180 199 200 206 213 238 233 235 236 249 249 271 277 297 320 341 353 437 390 400 391 361 242 275 212 112 182 185 179 174 189 193 193 196
332 311 190 241 238 229 233 207 220 213 204 197 195 201 207 205 224 217 233 237 239 240 253 252 268 287 323 334 348 301 404 396 380 390 337 238 269 211 190 186 185 177 170 198 194 202 197
298 310 273 242 231 219 229 208 222 216 212 196 173 192 204 204 214 236 234 235 234 242 254 261 270 337 342 349 342 379 396 364 367 372 264 77 112 207 171 190 185 182 167 141 111 194 190
312 307 293 260 245 227 217 223 214 214 205 200 201 204 190 197 213 239 235 235 237 244 247 268 284 361 347 353 361 399 403 366 361 348 241 269 232 203 197 155 184 183 178 178 189 189 196
309 298 288 284 253 241 213 207 218 219 198 168 197 207 193 217 168 237 235 238 238 242 251 274 341 375 364 346 383 398 370 355 353 301 223 264 218 204 125 189 185 188 168 172 190 117 194
312 311 282 299 280 245 229 223 219 211 196 197 200 189 197 214 243 231 238 247 232 230 258 300 366 375 359 348 392 376 357 340 326 238 265 243 219 202 196 193 187 187 119 160 183 186 188
309 311 293 295 296 238 228 221 218 216 202 200 206 200 193 212 241 231 237 247 224 227 259 348 404 405 413 394 363 355 332 323 242 231 261 221 214 205 195 188 183 180 88 188 160 186 179
339 303 300 294 293 244 213 217 212 195 203 200 203 202 202 215 240 234 240 215 224 229 264 378 473 507 402 359 358 260 313 282 235 259 253 226 89 200 170 186 131 165 175 101 150 179 171
299 215 297 292 291 238 201 209 221 206 193 203 207 201 208 245 235 232 240 227 221 229 254 391 536 413 385 362 341 315 299 245 234 264 242 206 211 189 196 189 187 178 178 183 173 174 188
318 256 299 289 231 231 224 221 209 207 200 204 199 196 213 245 236 236 236 206 219 226 231 281 324 393 389 362 316 299 246 226 252 267 232 215 209 199 195 192 167 176 183 174 182 180 175
328 299 288 184 244 239 224 218 205 204 199 205 200 207 216 242 232 238 236 204 219 219 202 214 225 223 352 321 304 257 225 217 251 271 216 211 202 201 195 189 186 188 178 181 180 177 181
320 267 290 283 255 239 218 227 207 176 200 194 190 208 216 243 233 229 232 203 218 217 211 202 210 215 219 240 214 216 216 204 251 246 207 196 195 198 193 196 189 189 179 175 180 177 177
318 289 286 262 240 240 236 237 205 174 205 190 197 209 219 245 235 231 230 201 217 212 221 224 214 197 214 222 232 232 210 210 246 252 196 211 204 202 196 192 154 160 182 175 173 173 183
311 286 289 262 238 250 233 214 206 200 206 206 202 201 218 242 234 234 231 201 200 214 211 224 226 168 232 237 215 216 212 207 248 286 224 205 206 200 198 198 196 186 186 181 180 182 183
308 293 287 284 239 242 218 219 205 176 208 207 171 209 218 241 235 235 231 204 194 212 208 213 220 216 213 227 249 258 207 206 227 303 306 206 203 199 202 197 198 196 183 177 173 180 181
296 294 288 275 253 229 214 215 202 185 210 202 175 207 203 213 234 234 232 232 195 198 204 206 210 209 224 230 239 250 205 210 205 227 326 231 206 204 199 200 196 194 188 179 181 160 164
301 291 285 274 245 231 207 218 213 161 212 202 210 209 217 226 240 233 228 234 226 197 197 195 203 199 209 218 225 246 250 251 199 211 199 328 304 219 208 201 195 193 154 190 188 184 176
305 170 279 278 239 226 215 216 211 161 213 200 207 187 221 211 244 237 229 232 238 231 196 194 191 192 198 205 209 218 245 249 272 272 199 201 302 308 217 215 203 209 210 208 199 195 191
142 169 263 274 232 223 218 215 215 160 162 196 181 199 178 198 254 234 232 228 232 228 237 191 195 190 189 202 198 194 208 212 242 245 250 303 229 201 274 247 249 205 149 209 210 207 203
304 292 252 274 243 226 233 214 213 157 163 194 186 188 206 220 257 243 226 224 227 226 227 232 206 190 192 178 185 190 201 192 200 211 227 208 196 244 261 196 265 269 265 265 261 258 261
299 285 209 274 243 231 219 216 213 155 150 160 196 205 182 191 233 255 230 229 224 200 227 225 228 225 208 203 214 191 187 186 193 187 191 205 214 215 231 223 219 238 243 254 245 236 249
295 289 206 266 245 231 221 216 215 155 157 159 211 201 198 181 231 276 232 227 225 231 223 223 224 223 230 214 218 106 206 209 200 194 198 158 183 187 202 208 211 214 220 215 211 137 206

GFSGBSN_2pvu_pres_003.txt.gz
Presure
245 232 236 219 218 220 174 211 210 183 192 208 219 186 203 217 199 209 199 184 193 152 229 235 208 261 253 240 235 241 244 245 221 218 260 274 210 241 196 166 188 133 126 148 107 105 105
274 243 214 226 228 228 225 223 205 214 204 182 204 181 215 212 193 204 195 200 166 214 219 220 226 256 250 233 238 242 229 223 239 233 254 261 273 216 247 203 90 181 110 160 196 219 168
247 240 248 144 213 221 225 218 217 214 203 173 194 205 207 187 198 196 188 192 193 226 240 218 248 247 237 225 227 230 229 234 226 229 238 255 262 281 220 241 196 183 109 111 110 171 107
288 264 241 231 148 211 212 201 214 214 225 180 202 218 221 218 190 188 192 180 200 221 231 217 253 239 228 228 222 227 232 231 242 243 259 253 256 284 302 244 221 197 197 112 90 107 103
211 206 288 258 229 229 152 187 130 213 211 225 209 201 214 195 194 186 183 196 210 208 213 231 246 231 232 224 228 237 239 250 250 265 266 264 290 291 310 222 252 203 193 187 169 99 108
214 201 202 307 277 243 229 232 237 223 214 213 208 207 205 217 199 195 182 199 214 206 217 241 237 230 229 232 238 251 247 251 276 287 296 303 315 308 327 226 260 206 193 192 183 161 177
212 207 207 212 280 310 257 228 236 241 234 222 207 208 226 212 203 195 191 204 212 223 221 242 234 227 238 245 239 247 257 272 310 307 308 317 354 377 388 315 247 207 196 192 184 188 169
213 220 206 212 222 291 295 267 246 245 204 219 200 220 205 210 210 193 199 209 206 218 245 239 226 234 239 238 250 271 301 340 332 326 341 343 361 383 395 290 242 208 195 190 190 185 182
217 225 147 227 234 270 315 280 232 248 241 229 217 209 213 203 207 200 207 204 218 233 250 231 237 234 231 249 282 299 348 341 338 351 400 451 461 439 407 322 252 202 191 188 197 165 174
228 227 228 240 247 292 297 172 259 243 242 234 225 208 199 208 196 194 205 205 217 244 246 233 222 234 244 262 304 109 352 341 347 432 387 202 330 332 328 303 257 208 188 184 196 175 181
239 167 217 248 283 291 279 298 263 246 248 235 224 215 220 201 201 208 202 213 178 241 239 232 231 244 260 290 325 180 72 326 221 381 397 101 337 357 343 229 252 196 197 183 181 178 180
318 310 373 319 164 292 280 298 282 253 243 228 217 218 203 195 198 205 203 217 243 242 213 230 239 259 270 327 346 356 344 461 401 377 395 131 349 361 255 242 230 205 186 187 181 178 150
404 409 356 364 324 296 281 285 288 262 234 224 221 202 191 171 208 199 208 226 242 208 226 235 252 274 353 373 358 350 357 401 376 369 335 338 349 271 230 174 216 205 172 128 182 177 177
394 379 343 319 329 307 284 282 283 262 239 226 228 222 196 197 204 201 214 250 240 213 223 239 271 348 405 361 361 344 405 363 343 320 329 341 279 244 222 241 214 203 85 94 178 178 179
448 347 350 341 333 305 284 282 281 272 237 225 228 202 198 208 202 206 223 244 201 221 225 257 286 517 423 338 84 313 360 337 334 331 323 292 243 225 210 223 208 96 187 180 162 174 170
385 341 329 336 221 306 289 288 283 282 232 242 208 197 199 203 195 214 243 238 196 216 231 265 331 421 395 364 379 339 350 341 324 312 279 233 216 248 198 218 205 201 154 107 182 176 119
370 336 327 350 166 270 299 284 290 243 164 230 204 199 204 199 203 219 244 205 211 218 223 260 391 395 375 367 330 323 162 306 282 129 188 218 251 186 116 211 117 193 153 160 181 178 174
351 334 332 322 347 302 306 271 295 242 172 210 192 201 203 201 212 239 240 199 213 210 224 247 355 383 360 332 325 327 293 281 266 238 104 226 241 236 210 208 197 194 184 187 175 176 173
340 324 331 321 318 307 293 295 240 241 175 212 198 207 191 202 215 245 241 198 226 206 206 220 249 273 362 354 323 291 276 262 249 211 222 279 205 218 199 203 206 189 178 180 186 175 177
356 354 331 326 316 301 296 257 245 242 208 216 204 200 150 209 215 241 236 198 207 203 195 208 220 240 274 288 284 277 257 247 236 229 174 253 240 219 200 162 155 180 158 182 180 168 181
370 339 336 316 171 291 290 241 250 242 214 207 210 192 204 211 220 237 239 198 208 212 210 207 223 221 224 244 240 233 211 210 214 187 246 210 220 204 203 197 188 174 128 186 161 181 182
334 339 330 308 293 298 257 250 239 224 217 203 200 206 210 211 225 235 238 197 215 208 216 210 214 171 211 114 216 213 202 211 221 239 240 226 213 202 201 193 190 190 186 185 169 178 175
340 337 322 293 297 289 244 241 246 227 213 179 204 202 189 213 248 235 234 207 199 212 211 214 213 211 112 223 227 214 216 220 226 251 248 230 215 202 198 196 194 189 179 159 178 181 183
320 342 335 304 287 264 273 255 234 205 211 176 195 194 199 216 217 233 230 231 197 196 211 213 204 208 212 232 213 243 216 209 207 243 257 277 218 208 199 195 191 183 187 186 186 183 183
329 346 331 298 290 274 243 255 238 207 216 167 190 197 201 217 220 235 229 228 192 193 206 212 203 213 205 212 230 243 254 203 200 207 259 259 258 203 207 202 197 197 195 187 187 190 188
341 310 323 277 142 277 260 248 241 219 214 166 190 205 180 216 216 242 237 230 231 198 199 204 206 200 207 220 238 241 291 311 314 196 198 322 332 250 204 201 199 202 197 197 190 192 193
349 335 320 291 229 278 235 254 230 222 217 161 166 210 202 203 209 267 239 228 226 233 197 199 197 201 204 205 212 223 240 240 223 197 198 202 248 317 325 215 196 199 201 198 198 196 194
342 342 318 294 229 283 269 244 228 226 216 171 163 201 203 188 195 239 244 226 227 227 227 197 193 192 191 195 201 148 212 222 240 237 239 199 197 197 135 298 267 218 207 206 198 197 200
335 336 309 295 280 285 253 241 228 220 216 169 164 161 194 180 215 221 260 236 226 227 213 229 215 194 191 192 190 199 197 202 211 215 242 235 233 212 202 200 205 296 281 271 263 215 120

GFSGBSN_2pvu_pres_006.txt.gz
Presure
226 312 257 253 232 247 234 130 126 217 213 184 208 208 200 203 186 202 200 200 194 196 208 206 200 199 156 203 149 182 267 265 258 265 249 257 268 261 226 229 253 77 168 162 74 169 101
219 216 292 239 286 201 240 229 220 227 228 223 218 223 223 207 210 203 213 192 213 218 196 203 191 162 166 157 219 223 268 256 253 239 250 251 257 261 272 212 232 202 130 206 184 80 100
207 216 194 243 251 271 253 221 138 226 215 220 228 220 213 222 205 194 208 193 192 206 200 206 187 190 170 216 215 218 266 251 257 239 248 248 244 248 255 269 214 236 109 164 206 187 181
217 202 208 206 215 253 274 251 231 221 199 219 214 216 222 222 215 194 210 198 213 191 199 205 203 183 201 212 214 229 251 239 237 230 235 229 236 237 247 258 267 216 245 208 189 98 193
228 218 205 202 209 212 215 247 247 233 226 224 133 221 215 217 213 220 199 217 208 222 220 206 197 186 208 204 212 239 241 238 238 238 238 236 239 245 250 239 259 272 211 247 165 95 119
232 223 226 211 213 203 206 197 207 241 242 228 226 226 222 223 214 197 198 203 207 222 211 206 189 203 204 207 232 238 236 232 230 234 235 235 242 247 251 254 183 267 288 225 224 200 98
228 238 224 226 216 185 204 193 214 160 216 281 244 240 233 231 229 211 223 211 212 207 215 212 197 202 205 222 245 237 229 231 229 230 229 231 244 244 242 250 258 283 299 222 245 208 201
242 215 232 233 184 216 200 206 193 215 212 219 280 268 243 234 237 228 222 203 209 199 210 193 199 202 215 246 243 234 239 234 227 227 231 243 225 255 277 262 274 292 298 316 236 228 203
227 219 237 238 230 228 189 217 206 212 211 232 240 294 269 239 236 235 236 209 223 210 221 198 200 213 235 253 234 231 226 224 228 244 256 285 345 316 332 322 263 304 315 336 215 245 146
219 221 224 232 235 227 232 227 203 225 230 230 247 284 266 266 235 248 218 217 218 213 207 196 205 220 252 241 228 221 230 252 264 277 336 356 310 301 334 327 312 315 323 327 212 247 217
234 232 240 231 237 240 242 233 236 237 234 232 256 277 269 260 243 233 215 222 201 197 205 203 220 251 252 214 229 242 258 274 316 339 348 373 357 337 119 336 333 341 91 287 215 237 215
264 271 272 261 255 291 259 247 208 248 245 242 272 246 273 266 250 222 222 220 215 209 200 219 245 260 221 233 243 261 283 351 355 348 364 349 350 367 377 377 368 374 286 266 212 241 215
493 499 519 501 419 332 347 316 262 277 275 268 272 266 267 194 235 219 223 214 203 202 216 235 252 223 233 250 266 286 382 377 349 347 388 340 383 367 373 366 440 401 274 275 237 239 198
580 518 499 487 430 406 376 349 337 289 278 275 273 275 274 275 225 226 221 202 208 207 226 252 212 228 239 269 353 405 365 349 378 408 371 366 361 355 377 397 310 275 267 229 226 185 234
567 471 497 502 342 347 352 377 326 313 283 276 274 291 275 237 228 226 200 210 202 217 246 207 225 227 268 411 411 374 358 415 363 359 352 356 359 358 366 274 275 283 239 208 212 207 191
494 517 479 432 364 334 353 357 348 316 289 275 278 276 265 231 230 208 206 199 210 233 214 219 228 253 326 392 368 368 396 331 331 334 338 346 305 276 279 267 258 256 216 195 167 212 185
490 459 463 457 360 339 330 331 337 311 283 274 288 277 236 234 215 205 210 207 223 250 212 205 215 265 407 182 394 356 332 328 169 300 294 277 269 268 263 261 246 232 213 220 196 208 189
497 471 412 345 328 332 325 333 145 320 283 280 287 261 231 224 206 210 199 213 242 215 216 206 236 271 353 368 357 337 336 275 269 267 273 136 272 257 247 237 195 79 250 229 204 96 188
446 420 343 323 328 318 329 314 341 297 278 288 265 229 225 213 208 202 215 225 238 211 197 208 238 267 360 310 317 316 272 266 249 187 259 115 266 250 232 184 248 209 244 213 197 185 185
491 436 340 327 327 330 326 299 297 287 279 290 270 233 220 189 208 206 213 238 236 214 196 223 227 257 325 177 304 271 266 260 210 115 173 209 266 225 252 201 199 197 230 207 203 186 177
417 371 337 336 308 329 327 309 292 284 288 290 176 227 210 209 204 212 216 251 217 219 209 205 221 241 309 294 194 291 255 263 260 227 248 247 87 193 192 221 244 225 198 168 192 188 184
442 395 329 322 296 333 320 269 292 292 293 281 232 221 214 205 209 213 225 247 233 220 212 200 217 225 239 296 291 190 266 151 259 253 246 187 228 166 190 202 228 217 205 195 177 177 168
491 340 328 322 322 331 292 151 296 290 271 238 227 203 216 208 214 215 240 225 208 218 211 201 216 215 222 233 250 273 283 177 231 235 221 232 216 236 213 233 212 136 174 146 178 184 180
369 349 318 332 315 312 289 296 298 286 245 233 221 183 203 216 212 214 244 228 208 217 214 209 210 219 215 222 225 201 191 190 201 211 218 235 253 263 230 191 183 205 188 194 187 178 171
431 348 336 326 313 297 296 288 303 248 247 231 225 184 211 214 216 218 234 232 208 219 208 222 214 211 212 224 211 205 208 209 208 204 231 243 248 239 225 204 202 205 191 187 185 185 181
380 353 332 327 305 296 143 303 270 244 241 227 224 216 209 208 196 234 231 159 232 201 214 90 205 205 211 212 235 245 219 209 199 194 232 238 244 240 214 196 203 201 195 192 187 189 185
367 351 333 324 315 307 243 285 254 247 232 214 222 194 209 190 210 241 233 221 227 224 218 212 206 199 201 222 233 239 214 214 209 199 226 246 245 244 210 190 201 201 190 188 190 190 186
361 353 343 326 311 179 135 268 253 244 231 215 207 214 208 207 217 234 235 232 234 218 227 197 207 203 212 218 216 234 256 266 238 203 201 207 236 259 256 215 208 200 195 193 190 189 187
354 353 342 331 289 299 283 139 249 227 238 227 169 171 206 209 221 215 268 233 226 225 227 200 204 203 205 124 211 220 233 237 270 278 303 204 203 214 298 313 267 202 190 191 194 192 191

GFSGBSN_2pvu_pres_009.txt.gz
Presure
265 243 223 227 234 262 306 284 266 252 236 200 125 127 186 180 201 200 201 213 213 201 193 213 204 210 211 225 220 207 199 202 202 209 202 236 232 287 213 280 258 248 233 243 188 186 174
265 272 224 222 219 233 288 274 271 249 232 238 230 220 219 214 210 211 202 218 199 201 219 185 197 216 205 217 204 213 201 196 199 209 227 232 244 278 276 266 272 226 242 230 118 204 193
278 253 247 219 217 217 226 247 276 257 236 240 237 228 212 212 216 214 209 205 221 221 214 205 203 205 189 222 204 211 203 195 156 154 156 230 272 268 263 263 263 264 266 222 222 249 128
145 255 252 229 226 211 211 217 240 228 259 241 231 238 230 228 224 221 217 211 224 218 211 219 209 192 197 210 222 214 205 206 197 216 214 216 275 261 258 262 260 242 262 267 203 224 252
281 273 258 247 218 226 211 207 207 229 253 236 255 235 231 219 217 187 150 225 211 226 226 215 212 201 186 204 217 225 208 198 205 218 209 249 260 252 249 246 244 250 248 256 259 211 96
298 280 256 263 249 225 227 215 205 211 215 219 248 265 257 240 235 221 225 218 221 213 215 221 225 197 212 203 217 222 220 198 211 208 219 250 245 241 238 240 242 247 251 249 253 259 219
278 256 275 257 267 266 232 227 229 211 206 204 209 210 304 242 241 247 232 229 224 230 218 220 206 209 217 206 211 218 187 206 206 217 239 251 238 232 233 238 240 247 252 256 254 262 267
269 250 228 225 254 215 206 232 229 229 218 206 204 208 215 207 217 272 251 243 237 234 221 221 222 199 220 201 227 203 206 205 210 221 252 243 230 230 246 237 240 245 249 253 253 263 275
239 228 243 250 230 228 232 207 229 240 228 217 224 195 206 213 214 216 228 258 283 253 239 224 226 237 217 220 221 216 208 210 218 240 251 238 231 238 235 236 236 237 245 240 253 256 267
219 223 237 244 226 229 234 233 224 210 230 231 225 215 183 215 205 215 228 252 278 280 266 230 231 221 213 223 207 206 210 224 238 259 243 235 229 225 229 237 238 236 242 244 250 262 269
244 208 243 241 243 244 238 240 241 228 230 229 226 218 225 195 148 218 228 253 275 270 282 239 231 215 218 216 206 205 225 236 256 239 229 73 237 219 260 260 273 273 276 285 307 285 277
251 216 510 503 514 357 261 253 250 248 240 240 229 223 240 194 230 234 232 256 275 266 260 255 221 218 203 208 202 225 236 250 232 236 240 262 275 282 306 282 340 195 346 344 330 305 306
481 536 574 583 468 353 504 354 268 256 247 242 241 240 236 238 234 235 248 263 290 264 250 224 224 219 211 207 230 248 251 233 238 269 292 362 243 353 345 345 96 379 212 339 319 312 336
599 564 545 542 516 440 401 493 415 302 276 254 249 249 246 253 242 243 265 262 278 262 229 231 217 212 219 235 247 226 218 288 403 123 362 355 347 342 342 343 363 364 341 327 309 100 81
573 536 517 514 127 483 485 490 342 365 348 326 280 266 267 266 246 273 268 278 263 228 224 217 208 219 234 249 222 266 415 395 364 357 378 404 392 381 368 217 357 362 364 341 293 255 261
582 535 526 488 481 467 490 379 361 369 347 353 314 300 290 274 273 277 260 269 229 224 220 207 218 233 246 214 289 429 396 381 361 362 338 335 324 337 346 357 390 433 358 263 259 250 249
581 548 490 470 459 466 390 346 344 339 340 349 307 311 295 283 284 263 273 229 226 220 209 214 235 216 212 278 406 378 352 344 352 337 333 329 329 328 350 350 359 347 264 253 246 255 251
583 456 482 474 434 372 351 353 344 337 349 298 293 338 300 289 267 275 238 227 220 210 211 231 231 215 234 441 360 346 338 339 329 354 285 349 331 349 334 286 271 254 250 238 244 240 259
574 487 495 458 360 350 339 329 341 334 317 192 303 318 297 279 278 236 227 220 210 201 228 244 210 204 348 342 293 299 300 267 254 131 115 226 256 254 257 258 251 247 242 252 241 233 247
515 490 450 367 346 336 327 323 313 299 306 296 329 302 285 286 233 229 222 211 203 222 233 207 211 232 326 276 160 267 179 252 255 249 241 104 241 242 247 247 249 246 241 212 237 199 211
571 466 482 349 343 331 320 317 299 287 281 304 319 289 286 189 234 223 166 181 218 233 235 200 209 275 261 197 245 266 261 260 248 248 231 195 175 235 243 249 242 242 220 239 225 246 261
487 383 374 346 345 324 320 321 316 287 290 312 289 285 253 172 226 217 212 203 226 233 210 200 208 248 261 188 189 267 250 248 245 249 229 231 181 158 88 185 242 243 194 211 204 254 264
454 367 356 343 340 322 315 312 309 315 326 290 284 271 238 225 220 216 208 217 239 233 210 204 211 220 231 256 188 246 252 178 191 194 201 220 164 174 248 201 243 236 190 215 198 255 143
419 376 348 345 310 300 298 303 297 152 297 281 283 246 221 209 222 214 205 228 235 216 212 211 210 218 215 198 244 229 256 259 255 228 234 233 168 189 219 212 221 248 238 204 273 210 158
502 409 350 326 311 326 293 293 304 219 286 287 247 231 226 222 216 209 213 240 232 225 205 208 207 211 217 209 231 236 241 277 266 256 212 167 174 267 211 229 195 221 265 246 222 189 175
436 402 346 339 312 317 298 298 305 311 289 252 239 233 221 185 217 218 224 238 229 208 215 209 218 209 218 205 218 208 213 240 198 195 197 207 201 222 213 201 249 188 234 238 194 192 180
409 421 353 333 310 316 319 303 255 298 293 250 236 225 206 218 217 215 229 231 214 212 213 207 213 215 209 216 206 202 204 206 202 202 206 214 217 223 214 218 236 251 222 207 195 193 192
415 401 363 332 307 293 310 311 333 294 262 243 234 220 218 223 213 217 236 234 228 235 223 201 211 182 216 212 222 225 212 211 203 199 205 221 233 241 247 251 254 235 201 196 192 189 188
431 430 366 321 318 308 306 311 306 188 253 236 228 217 224 215 221 205 204 228 232 236 209 202 205 210 204 210 229 226 231 243 231 199 208 206 245 249 241 246 241 226 201 203 196 196 194

GFSGBSN_2pvu_pres_012.txt.gz
Presure
253 246 316 260 292 271 263 239 223 239 321 288 272 264 246 240 214 223 219 213 211 200 196 195 203 195 200 199 206 201 218 218 204 228 220 218 188 202 209 213 198 213 228 233 235 232 204
325 335 295 305 291 267 263 238 227 226 297 297 280 258 250 240 155 127 124 215 191 204 193 201 211 187 208 216 203 196 209 212 214 232 224 212 192 209 205 214 201 241 239 257 234 232 231
340 306 302 294 278 266 255 242 226 221 243 279 281 215 251 247 218 169 218 217 210 213 213 207 194 205 208 202 217 203 219 209 225 220 229 233 209 212 198 202 227 239 237 279 245 277 274
334 316 306 299 282 269 255 253 231 227 220 248 284 267 266 251 235 225 227 216 212 212 212 208 210 208 217 204 192 218 226 210 226 189 215 212 231 209 199 202 228 221 282 269 271 259 273
326 247 304 298 290 275 263 253 242 226 208 218 242 260 261 240 233 234 144 228 226 217 206 207 212 204 211 215 216 217 193 221 207 208 224 219 234 220 211 164 150 243 274 264 255 259 254
277 278 271 289 287 296 276 267 257 237 227 202 219 232 278 243 250 236 235 231 228 226 226 149 186 216 217 221 223 225 217 214 214 224 200 220 236 231 204 216 221 253 269 260 254 251 252
273 268 223 230 263 280 254 266 273 261 246 224 197 220 216 301 270 254 242 234 232 230 153 218 212 217 209 215 223 220 230 220 219 217 227 216 226 219 210 218 225 235 265 253 246 249 252
259 241 245 234 252 263 218 217 232 284 267 251 226 217 215 205 224 244 302 266 252 233 228 224 223 215 229 219 220 224 225 210 221 216 228 225 238 200 209 214 225 232 252 239 239 239 231
243 251 244 237 252 234 218 223 253 237 246 237 247 229 229 222 213 205 220 229 281 317 282 274 236 233 233 236 225 226 236 235 223 218 227 230 228 218 212 217 228 235 255 237 237 239 249
253 235 232 235 222 217 243 236 233 227 221 220 246 210 238 226 221 212 209 207 202 200 212 207 217 235 255 277 251 241 249 250 241 245 242 236 216 209 217 224 233 210 252 236 233 239 244
243 233 261 254 508 502 287 256 247 241 233 226 219 228 220 233 231 223 213 217 191 197 189 204 208 238 255 281 273 257 256 243 245 247 232 229 208 216 227 230 239 250 248 234 227 239 241
251 269 495 519 564 576 557 504 363 261 245 244 236 228 222 227 219 232 212 202 178 193 209 205 207 250 265 270 263 263 257 250 246 240 231 220 226 233 240 247 258 259 228 231 230 234 238
251 483 558 575 522 551 544 574 496 300 264 252 249 237 231 228 221 219 228 212 226 215 203 232 222 260 275 260 252 247 249 240 237 240 229 240 210 150 93 240 240 239 234 238 246 249 275
469 469 563 535 524 527 490 509 477 434 422 314 273 253 234 232 233 232 224 200 208 223 206 232 251 285 271 252 247 247 239 237 226 239 256 236 249 264 274 362 352 352 349 200 351 288 284
461 641 559 534 477 509 483 486 464 386 362 355 321 279 244 242 239 240 237 229 228 226 243 234 278 275 253 241 235 239 221 239 252 240 285 398 384 365 361 360 353 338 311 338 343 347 344
456 646 547 487 462 449 505 493 451 389 352 328 346 352 277 253 243 242 237 227 230 240 236 275 277 244 238 236 217 239 240 246 326 389 377 361 357 360 363 372 403 334 343 340 341 346 354
457 641 506 486 464 476 491 452 468 378 345 347 364 320 312 271 254 246 244 238 241 256 268 275 239 235 229 222 250 254 340 384 360 354 353 338 348 340 343 338 352 389 268 361 412 413 311
467 646 518 455 481 496 412 442 448 359 333 324 335 330 317 328 278 272 259 252 272 267 277 235 231 223 235 207 295 363 346 356 355 339 322 324 330 328 344 355 362 392 406 380 281 261 262
475 567 532 472 453 458 405 384 375 353 330 336 306 285 297 315 322 317 279 283 274 267 235 228 209 233 202 304 286 279 284 301 306 284 279 274 267 268 271 272 281 244 265 258 247 256 253
478 577 456 426 401 372 368 350 338 329 324 330 326 312 294 291 304 299 294 286 246 233 225 207 229 234 221 168 283 216 261 259 239 249 252 238 216 256 250 246 262 248 252 243 248 96 251
483 565 451 396 369 354 354 344 341 333 299 304 292 310 264 337 292 288 282 238 235 223 211 228 236 209 270 211 166 238 249 235 246 231 238 247 142 200 240 250 235 233 251 236 240 240 243
486 456 514 380 365 363 344 342 318 304 314 314 299 308 314 291 280 291 238 235 208 215 221 236 211 214 253 227 182 228 156 242 238 242 229 236 232 245 89 230 237 230 230 236 237 260 172
495 478 376 371 362 336 319 329 295 283 295 297 285 301 291 278 270 201 236 226 214 215 233 218 206 218 259 240 170 237 253 195 186 163 132 229 193 227 191 208 224 228 246 232 231 243 191
497 460 373 363 357 320 312 318 309 302 317 245 315 296 279 267 242 205 227 216 222 232 231 211 201 219 243 243 265 240 231 240 200 214 225 137 141 167 205 209 222 239 197 174 243 250 121
494 399 370 356 339 323 324 310 305 306 312 173 295 280 267 241 229 227 215 206 221 231 228 208 209 218 228 216 190 191 197 221 150 239 135 180 207 138 237 227 242 184 232 225 236 250 247
465 401 361 355 342 329 283 299 291 284 295 174 284 280 244 241 222 218 214 220 232 232 212 209 212 214 224 188 258 229 107 209 260 247 186 192 196 188 143 240 211 178 239 232 201 268 230
454 556 386 328 343 329 313 297 296 295 314 170 294 246 243 233 226 211 191 197 230 231 213 204 211 211 215 218 215 230 248 205 234 191 261 227 258 249 233 245 189 259 243 249 205 231 247
634 583 388 343 319 325 312 319 323 332 294 295 250 240 238 233 216 211 213 235 228 230 227 201 217 208 212 213 207 204 195 210 209 216 202 238 215 220 234 215 190 204 197 221 211 239 190
634 633 378 386 327 304 307 303 324 308 199 294 248 245 237 231 216 211 233 233 228 221 229 211 216 209 209 214 216 210 209 207 204 207 195 208 253 248 201 260 229 215 220 217 211 205 172

GFSGBSN_2pvu_pres_015.txt.gz
Presure
298 318 248 294 296 306 338 322 301 284 269 266 252 243 232 230 308 285 265 252 239 229 219 215 215 199 200 189 199 199 173 187 216 210 195 190 229 228 198 216 222 203 199 195 150 97 236
331 341 322 343 316 302 321 303 291 275 268 255 242 237 238 287 294 271 251 244 234 227 219 209 215 208 191 196 185 188 205 196 199 208 201 213 228 221 206 234 220 215 197 172 212 107 102
321 329 339 332 329 316 308 299 285 264 264 261 240 233 233 307 285 266 252 240 232 228 145 217 218 213 207 204 197 196 204 201 179 203 214 204 212 216 210 212 239 226 194 185 204 213 227
312 305 303 324 321 308 312 296 282 275 260 250 246 230 228 299 286 265 252 239 233 147 141 214 217 219 207 205 198 203 200 210 195 200 209 218 226 240 221 218 225 234 214 187 199 214 216
296 299 283 281 272 269 280 280 292 275 263 250 251 232 227 219 282 270 255 247 237 232 228 217 214 212 213 206 201 197 203 208 212 208 218 215 223 235 209 241 216 222 209 217 211 207 211
281 285 239 239 243 243 263 261 316 295 278 257 250 239 229 227 227 275 259 255 243 225 202 222 221 211 211 212 205 203 204 209 211 210 216 223 230 234 216 229 184 221 125 241 218 218 203
282 270 270 263 245 255 253 231 248 259 303 277 259 250 238 227 219 245 257 265 248 249 230 144 212 215 217 213 213 214 206 209 220 226 223 231 229 226 223 231 233 206 228 238 231 219 203
277 266 259 264 241 241 242 228 233 230 253 241 254 259 247 234 228 209 256 275 256 241 242 227 226 232 230 226 148 153 226 225 223 216 224 228 230 226 239 232 227 228 219 223 234 226 196
284 283 267 236 230 227 229 242 235 228 227 223 219 225 266 242 233 224 204 222 269 258 242 236 236 229 230 234 227 232 235 223 225 219 215 227 229 227 222 224 230 226 234 230 234 202 224
297 295 274 246 237 274 243 241 271 245 236 220 219 227 225 271 245 228 223 219 214 228 266 248 249 246 248 249 242 234 235 235 236 237 243 247 228 234 239 235 248 213 250 219 232 226 220
290 292 270 307 507 493 491 544 499 512 273 243 227 228 236 230 269 241 236 226 217 213 212 202 239 247 306 304 311 252 238 281 227 235 252 260 292 254 252 238 258 261 250 248 242 223 224
275 286 269 492 479 568 539 521 578 488 508 284 255 238 231 217 225 240 247 237 225 221 213 203 204 204 212 216 208 207 210 227 219 242 268 289 280 271 268 262 259 251 253 237 230 226 239
269 283 483 469 601 537 519 494 536 519 485 466 193 262 236 225 214 224 227 243 232 221 206 212 200 213 204 202 199 208 168 226 231 275 282 280 273 273 271 261 258 257 246 235 234 234 144
288 294 468 511 552 519 473 456 485 493 466 428 360 273 244 235 221 218 211 227 215 214 220 209 208 203 205 217 215 210 230 225 297 287 279 269 265 261 258 138 254 245 239 243 246 250 257
282 352 454 623 486 458 456 472 467 517 516 409 365 387 263 244 239 230 227 215 215 215 213 217 219 217 208 223 225 210 244 286 279 272 259 251 245 243 241 241 244 246 254 252 238 263 259
281 471 461 506 480 456 428 475 473 475 464 459 379 383 331 272 251 236 227 225 221 218 214 209 213 206 203 208 237 256 281 260 248 236 240 271 317 367 363 378 389 377 104 359 370 372 369
283 468 501 520 483 451 447 463 471 431 398 372 352 350 308 295 265 247 230 227 222 225 222 219 223 224 223 242 279 265 225 234 243 349 369 344 350 356 365 353 354 351 369 369 355 361 368
286 466 505 493 482 473 492 482 482 368 359 328 320 325 329 311 321 272 250 239 229 224 222 226 224 226 243 282 241 228 234 334 307 304 295 306 311 310 313 321 327 358 350 365 385 363 354
288 465 511 437 490 511 489 464 418 380 354 353 333 316 300 295 304 297 259 251 239 237 228 225 228 249 275 227 220 307 326 244 270 274 272 271 269 273 286 305 330 356 375 389 406 360 348
287 465 516 458 450 413 429 468 352 337 326 320 331 326 312 311 325 324 353 255 254 246 229 236 264 260 222 220 332 275 247 265 271 261 254 269 216 240 248 253 258 278 287 289 357 296 286
289 466 530 495 453 454 440 423 348 331 333 318 300 298 286 301 306 309 340 293 265 247 251 263 250 230 225 260 243 211 167 245 238 235 244 243 227 235 241 223 248 257 255 267 270 226 160
290 467 546 605 374 425 440 454 363 343 345 315 333 324 305 309 186 308 308 322 269 282 259 244 228 236 268 243 236 172 206 173 207 224 87 219 234 253 215 230 243 254 246 245 260 246 262
349 470 561 450 386 387 375 355 347 340 320 309 277 281 282 276 292 304 298 297 263 250 236 177 218 214 265 236 238 216 185 175 199 246 239 234 238 229 230 239 147 225 251 239 234 230 256
348 475 413 383 380 356 343 342 333 334 337 325 301 298 289 315 293 298 272 254 244 235 230 223 224 234 242 187 196 191 183 195 213 206 234 226 222 196 223 202 228 219 229 240 234 228 250
514 495 409 402 368 361 329 321 315 310 305 316 301 299 297 292 286 263 237 241 232 232 219 229 211 240 249 194 221 234 190 242 208 207 173 173 184 151 174 232 188 184 248 240 195 244 223
624 636 473 388 347 321 338 336 316 284 300 313 305 318 295 285 257 246 183 233 232 226 239 217 207 244 259 237 207 195 223 241 168 188 206 182 183 157 206 237 201 191 176 227 230 239 232
620 602 522 382 326 317 310 321 307 320 307 299 311 239 286 258 245 241 235 230 227 238 235 211 214 220 213 245 226 186 227 190 214 211 178 163 211 243 230 232 203 232 241 234 213 253 254
434 628 588 421 330 311 306 302 295 307 306 309 295 268 262 251 242 234 225 225 228 240 223 227 219 219 224 205 236 238 246 244 231 236 211 227 190 204 165 221 222 253 187 236 248 241 263
355 624 640 432 333 312 318 315 284 296 305 309 289 272 258 248 239 228 228 215 224 237 220 216 206 221 212 220 214 216 194 237 256 182 260 175 240 187 173 226 172 191 247 220 246 235 224

GFSGBSN_2pvu_pres_021.txt.gz
Presure
340 333 324 310 308 300 297 300 322 358 315 293 281 272 265 258 256 253 258 249 250 262 250 239 235 236 226 206 215 203 208 213 199 192 213 227 206 212 216 208 210 196 181 188 199 192 195
331 327 325 320 308 295 283 282 287 280 286 320 359 322 285 286 279 271 265 263 266 259 312 251 270 239 224 215 209 212 211 205 204 208 200 215 215 205 215 208 192 190 188 205 195 206 173
291 340 331 311 308 305 292 283 269 274 272 270 276 326 344 334 316 288 282 279 236 310 257 272 242 251 236 223 208 205 213 210 199 194 192 201 222 207 201 215 206 185 180 181 195 210 185
291 335 327 317 303 281 268 289 284 162 273 265 258 263 284 323 301 315 310 305 292 288 290 251 253 259 236 224 212 207 205 205 209 209 194 203 229 220 201 205 206 206 195 186 206 196 184
284 336 326 319 296 294 278 257 255 267 267 256 240 245 251 282 309 299 297 282 273 267 271 273 276 244 242 230 214 207 207 207 212 213 214 232 236 229 207 202 205 202 208 199 187 192 209
282 294 333 311 292 299 290 275 254 244 252 258 259 242 251 241 285 244 293 272 262 262 255 243 244 244 242 234 226 214 212 208 210 221 237 231 229 223 204 201 200 203 203 212 187 214 198
290 280 344 301 298 298 273 252 248 260 264 247 261 248 242 247 251 305 297 265 259 249 238 234 228 231 225 224 222 213 127 215 252 239 235 230 221 217 221 205 205 204 203 208 207 196 224
349 268 331 307 298 303 278 259 364 507 499 498 384 262 238 247 243 260 302 265 259 247 235 234 231 216 234 286 279 267 263 250 242 235 228 225 219 217 219 195 195 199 204 211 217 214 223
353 270 330 312 308 303 267 379 585 595 572 558 483 540 254 237 246 245 268 265 260 238 242 230 229 215 287 280 267 261 252 243 233 227 226 222 215 220 222 222 219 220 217 215 217 218 224
291 282 328 316 313 294 273 490 588 553 517 518 550 502 480 253 232 240 249 282 258 247 243 238 229 255 281 270 260 252 242 235 230 224 227 221 220 214 215 224 221 222 227 224 225 230 221
335 282 328 315 315 292 392 583 515 497 492 469 511 477 415 264 249 227 232 248 272 251 241 241 230 217 273 267 251 245 239 235 230 225 221 221 223 222 224 224 226 230 234 233 238 244 245
275 282 327 316 313 292 476 504 467 484 437 420 473 499 494 314 248 238 227 233 280 258 245 235 230 218 245 258 246 245 243 243 234 230 231 233 237 228 226 230 238 245 252 256 258 259 274
353 292 322 320 315 292 457 469 462 452 441 432 485 513 483 449 264 242 226 230 250 262 242 232 226 223 217 235 252 243 243 239 238 240 238 235 236 241 240 225 218 220 225 224 226 227 227
317 344 322 318 309 284 457 495 474 452 451 450 481 498 487 398 281 251 240 223 236 247 247 224 230 221 217 216 213 242 249 248 247 243 210 210 201 206 210 217 223 220 226 234 244 253 257
279 290 324 313 305 357 501 441 451 485 432 444 506 493 482 398 346 267 242 227 236 221 257 235 225 232 220 215 210 207 206 207 206 208 205 204 210 215 217 206 222 233 232 247 261 276 316
286 319 321 316 304 487 584 449 494 432 433 449 483 454 490 366 348 275 252 229 231 233 218 250 232 231 227 217 216 213 213 215 214 213 213 213 214 223 223 224 239 333 324 318 320 331 352
305 319 325 318 303 585 462 502 450 432 435 499 459 425 343 349 348 303 267 232 228 233 226 250 246 230 225 222 221 217 218 217 217 216 214 211 207 224 274 297 290 331 330 250 222 331 341
288 335 322 316 301 444 455 449 448 448 460 405 392 382 374 354 362 320 275 235 233 231 227 228 262 243 235 227 216 219 217 217 212 211 201 212 245 264 276 272 275 315 340 336 334 322 329
249 306 317 313 300 422 475 454 451 444 435 377 357 355 358 348 332 324 288 242 224 225 224 228 219 222 245 243 233 217 211 212 199 209 228 265 265 241 272 260 257 267 343 368 352 337 299
285 325 314 311 298 422 515 482 450 470 355 349 339 331 359 357 344 318 325 288 196 221 221 207 219 215 209 211 214 216 216 213 219 244 264 255 237 263 263 267 252 256 258 294 394 407 413
314 333 307 307 296 425 506 473 467 415 364 338 328 335 320 316 318 320 315 287 209 226 220 219 218 212 209 214 215 216 215 220 259 251 167 233 249 246 254 252 262 229 267 257 277 299 319
319 334 308 301 293 428 486 474 366 369 352 340 323 316 305 305 307 313 321 339 238 232 225 214 216 217 217 212 222 222 218 236 255 236 245 223 157 118 234 249 237 235 238 256 267 267 285
335 318 299 298 283 423 435 467 362 356 338 319 317 307 322 296 300 310 238 349 275 237 224 218 219 216 208 218 215 230 236 226 225 176 250 157 240 234 234 233 210 235 236 251 240 263 258
333 315 296 294 282 403 378 376 365 336 348 306 297 303 306 303 304 309 316 325 329 244 236 223 227 222 219 219 231 236 236 226 189 230 251 235 229 234 221 222 213 216 226 239 223 240 244
307 309 300 291 280 425 384 365 351 358 320 315 309 297 295 295 290 320 298 353 319 296 244 231 226 220 221 230 227 224 223 187 221 198 257 235 235 200 246 222 116 219 228 239 225 215 232
303 313 304 287 282 421 367 355 351 338 324 311 312 296 295 299 293 283 309 299 318 299 266 242 195 198 238 222 261 270 245 231 215 236 241 218 226 185 161 250 213 261 230 249 227 233 223
308 309 306 286 283 421 380 346 329 325 314 314 301 287 285 299 295 294 325 290 287 294 290 259 249 246 246 257 246 228 201 188 212 208 214 194 202 145 142 205 235 217 169 237 236 236 228
305 317 305 282 279 430 409 358 320 312 323 315 292 297 306 289 293 301 297 284 272 271 270 271 259 256 245 274 254 183 243 205 198 217 224 226 203 239 230 183 192 191 232 196 237 221 225
317 317 306 280 271 436 407 373 343 331 317 305 302 299 289 302 298 296 278 266 264 259 263 262 288 213 213 240 239 184 225 201 182 225 214 219 170 226 193 221 214 229 203 168 197 233 237

GFSGBSN_2pvu_pres_024.txt.gz
Presure
271 227 206 360 344 329 324 307 295 290 282 290 311 325 278 270 283 256 263 246 256 239 247 224 225 264 236 235 222 218 214 208 214 213 219 216 223 223 217 214 218 209 219 220 211 213 204
265 181 246 331 336 316 313 308 304 295 284 279 280 288 338 299 261 260 268 264 248 250 249 247 249 228 228 245 225 231 211 216 208 202 201 216 213 223 216 219 234 213 219 211 210 212 206
246 205 309 291 342 331 312 307 298 283 300 279 276 279 278 288 299 269 255 262 259 267 260 260 251 249 255 235 230 222 234 212 213 215 204 213 219 212 216 212 214 212 211 206 217 219 208
264 319 245 312 329 342 313 296 306 300 287 268 273 266 278 263 271 282 330 300 263 255 252 254 250 250 251 258 238 221 228 220 222 214 207 212 203 207 207 202 212 200 217 211 213 212 212
183 315 196 343 352 342 313 221 295 301 275 266 254 252 265 268 270 265 275 304 341 285 268 254 248 262 267 256 264 247 219 219 215 216 212 203 209 210 208 189 189 187 195 210 207 211 206
252 251 173 345 355 322 306 298 296 290 259 252 249 250 247 251 260 269 263 235 307 317 324 314 272 261 256 288 267 277 260 228 223 223 215 206 201 206 216 195 204 200 191 225 208 208 212
180 264 292 269 345 339 308 316 298 262 284 530 517 421 268 256 244 251 267 265 283 309 291 282 282 286 285 280 251 263 227 235 226 225 215 206 206 203 199 206 209 210 211 230 232 206 208
165 177 289 284 300 335 323 320 288 527 505 513 561 596 491 363 264 245 255 265 261 283 281 273 271 270 270 272 268 238 235 246 235 225 219 211 205 211 208 206 211 213 227 236 230 207 208
248 284 289 322 343 338 331 300 498 485 515 521 504 515 502 487 297 262 251 257 238 287 284 268 265 260 256 257 261 262 266 256 231 227 224 210 207 208 206 207 213 225 238 234 228 219 212
263 307 277 320 313 329 327 304 489 457 493 459 449 467 508 468 460 284 251 255 248 274 283 263 255 255 248 240 236 232 232 235 236 234 225 218 211 209 211 216 226 239 234 234 226 227 214
168 270 297 317 343 334 312 515 455 497 445 434 455 445 479 474 509 287 250 249 242 267 285 261 256 251 239 233 226 226 223 218 218 220 217 216 218 219 223 243 248 236 231 229 226 228 234
220 194 295 320 348 338 308 542 474 484 446 437 420 464 478 517 494 295 250 251 243 256 289 259 255 244 233 227 230 214 219 283 275 271 267 263 261 252 249 245 234 230 226 224 227 233 235
228 305 283 322 348 333 411 506 516 470 449 455 427 481 470 469 369 321 252 242 240 237 288 253 255 240 235 229 219 224 281 271 265 262 257 260 253 247 237 236 231 230 229 231 237 243 248
246 269 274 347 347 325 436 453 461 469 462 426 435 469 489 471 362 325 256 243 232 249 279 252 248 240 236 226 215 288 271 266 261 259 257 250 240 235 235 233 235 239 243 247 254 230 229
243 279 272 334 346 318 431 451 500 451 436 433 466 480 505 495 355 327 248 244 212 222 266 259 245 236 233 225 215 208 278 267 261 252 245 236 238 239 239 235 213 212 210 223 227 234 230
234 294 258 346 342 316 430 563 450 446 444 463 485 482 484 476 349 312 256 240 230 218 218 267 245 245 231 225 220 215 211 252 245 211 227 212 209 209 210 210 217 224 226 229 242 291 352
246 291 274 343 344 311 430 478 463 448 436 431 475 456 439 346 356 316 256 234 233 232 217 268 243 238 233 226 220 216 215 215 211 209 214 215 214 216 217 223 218 142 278 292 303 324 347
285 276 274 341 346 310 459 470 464 454 440 414 471 489 408 337 345 308 288 239 224 235 219 227 257 244 231 229 229 220 218 217 216 215 218 218 218 220 205 226 256 252 298 284 157 307 299
298 299 291 322 341 309 511 452 467 460 444 423 425 458 355 368 333 315 290 246 228 229 222 225 214 233 235 228 230 228 221 222 219 219 218 221 208 219 271 268 271 241 281 253 287 313 340
291 213 293 317 344 305 477 472 449 405 408 416 393 391 268 322 269 327 291 259 235 237 220 229 218 217 243 235 229 226 223 218 217 221 219 210 231 264 227 249 243 241 250 269 268 305 306
270 297 292 312 338 306 451 487 385 388 398 376 408 377 319 318 335 299 302 277 232 195 226 228 227 217 256 241 240 238 237 230 218 219 216 262 243 242 257 232 238 247 248 244 257 276 279
269 100 294 328 330 306 501 405 379 376 374 363 333 329 336 326 315 324 339 296 239 230 220 219 225 218 252 243 242 224 212 216 214 216 246 248 162 232 163 239 228 222 216 237 246 250 272
269 294 289 327 324 312 351 420 365 366 332 371 363 309 330 314 315 245 166 313 241 232 222 221 219 221 225 218 211 214 214 214 219 240 251 187 239 178 236 234 227 224 221 221 239 241 245
268 291 288 329 316 308 278 414 367 352 338 338 328 326 326 307 306 307 322 320 254 225 230 219 215 220 222 216 210 218 219 219 237 251 202 250 232 237 223 224 158 225 214 201 231 239 246
268 289 294 324 315 302 277 378 332 332 332 332 319 312 300 313 321 329 328 195 315 235 227 222 218 220 215 218 219 217 219 229 261 198 228 232 241 222 181 227 227 231 130 218 219 229 229
271 289 298 312 324 297 283 377 369 341 341 317 321 335 310 311 300 299 314 325 332 243 230 230 222 219 222 214 211 222 221 264 193 246 186 200 233 170 234 243 220 125 125 227 223 225 220
294 286 284 307 328 301 282 261 367 350 316 318 300 306 294 296 299 315 307 348 318 273 242 231 228 218 222 224 224 223 233 267 235 221 187 248 167 172 233 236 225 221 201 217 220 210 218
294 84 296 311 335 304 280 261 369 337 338 327 310 302 314 312 292 295 298 328 307 300 246 241 229 225 228 229 227 232 274 252 215 231 177 186 236 190 170 162 210 215 157 217 228 212 213
296 287 293 314 329 306 284 263 385 343 316 320 308 314 282 297 295 288 303 316 309 234 277 244 240 232 231 228 234 260 260 212 195 233 207 231 217 223 199 209 195 134 207 165 224 223 211

GFSGBSN_2pvu_pres_027.txt.gz
Presure
205 234 254 266 294 273 367 361 344 347 308 306 292 288 289 294 308 294 298 273 263 255 250 245 246 234 187 235 237 227 221 217 208 195 191 191 195 189 185 183 185 182 190 186 183 183 193
209 239 175 293 293 291 335 334 339 326 313 315 297 284 285 282 293 338 291 292 257 263 247 240 244 235 231 221 227 240 215 223 213 212 211 208 199 193 199 199 196 194 191 188 194 196 201
193 124 244 286 150 274 322 311 338 330 297 291 312 288 283 279 277 292 321 288 287 254 262 247 251 242 237 248 240 223 236 222 218 224 213 208 209 213 207 215 215 206 221 225 229 210 223
188 198 234 283 149 298 312 337 327 316 307 307 293 304 292 289 274 275 285 290 275 263 268 265 241 236 244 246 233 240 229 233 226 213 213 220 214 210 209 207 209 208 218 221 221 236 211
201 92 235 222 295 313 345 329 335 319 300 276 289 292 295 290 284 265 259 277 307 273 264 258 264 245 221 249 242 243 219 216 233 230 213 220 217 216 215 210 202 203 203 216 216 205 229
109 120 243 262 271 291 345 334 346 310 285 477 473 285 264 267 280 254 259 265 268 299 280 265 250 259 244 240 231 246 241 243 219 221 229 214 208 219 213 212 211 206 203 211 221 214 216
219 119 251 151 269 292 339 349 334 299 611 545 509 502 565 292 275 269 251 258 264 273 289 306 260 264 240 243 242 238 240 253 245 236 223 225 220 213 222 219 208 213 209 206 202 214 206
195 123 254 290 127 308 329 340 326 331 540 471 458 510 506 552 347 265 257 250 273 250 253 253 313 325 263 256 251 249 249 241 249 234 239 227 216 219 216 215 220 210 208 205 208 211 221
161 222 257 269 303 335 325 338 297 451 458 468 464 466 472 503 522 345 265 253 241 259 251 251 277 312 314 287 262 257 252 251 255 261 264 248 233 218 217 208 214 214 208 206 206 210 214
211 221 193 292 271 328 325 352 314 458 504 470 447 445 447 449 495 475 290 263 249 236 253 249 239 304 296 301 303 295 284 270 281 290 289 284 242 239 218 219 221 219 210 207 208 205 206
220 226 252 303 308 325 333 337 452 470 522 445 430 421 438 462 485 458 467 283 245 239 239 254 239 294 277 276 270 275 275 272 265 265 266 259 241 243 235 226 218 218 215 208 208 212 210
215 225 254 293 271 338 354 306 459 467 483 453 442 428 412 463 491 482 381 289 264 243 239 256 251 281 268 265 261 254 255 259 258 256 262 243 230 227 230 233 227 222 219 212 213 213 215
219 220 268 296 321 335 350 384 509 493 497 457 449 432 430 467 481 511 342 297 269 250 235 250 283 272 257 252 246 248 242 243 243 244 247 259 254 249 245 234 226 222 220 218 216 219 220
220 220 268 300 323 334 346 545 617 482 443 437 427 451 476 467 481 354 333 301 278 252 236 248 280 268 251 247 246 239 236 231 227 226 226 228 224 224 224 224 220 216 217 221 226 235 261
225 221 291 303 322 337 343 492 453 456 454 440 460 446 446 489 359 359 318 298 272 250 240 236 280 259 249 248 237 235 232 226 228 222 216 229 278 273 271 269 255 269 270 268 260 257 256
222 227 307 304 323 353 341 465 477 451 428 440 448 429 474 495 344 336 306 299 255 241 238 244 274 254 246 238 238 233 229 220 218 279 276 267 264 264 262 261 261 256 247 236 194 218 214
227 244 213 313 322 352 340 466 466 452 440 446 443 477 490 444 347 313 313 288 241 240 231 255 271 246 251 239 237 228 218 227 284 280 268 259 256 251 253 233 219 214 212 213 219 221 265
224 243 205 318 319 338 336 502 446 450 432 451 498 444 387 384 322 316 311 259 225 225 236 262 264 251 242 240 232 220 212 212 268 258 270 232 222 215 215 219 212 218 216 266 259 299 293
228 275 286 315 315 325 337 406 423 436 431 480 465 451 359 337 326 326 300 250 235 225 219 231 262 250 244 231 224 221 219 213 213 211 210 211 217 220 221 214 209 244 250 238 94 128 200
227 274 290 314 319 329 334 294 408 423 443 440 467 362 362 326 326 323 246 249 239 225 212 215 261 247 242 232 226 218 217 217 216 217 218 219 223 214 210 243 242 246 238 244 235 242 264
275 298 289 311 325 338 331 304 413 406 440 404 392 356 348 339 310 299 257 252 234 223 229 220 238 257 241 234 226 227 229 226 222 224 221 220 212 215 250 251 236 235 237 234 238 239 256
268 275 289 305 326 343 326 313 400 396 462 473 368 335 316 327 326 300 275 238 234 228 226 210 222 258 214 235 231 228 224 222 225 229 219 211 256 234 248 218 233 220 228 228 235 232 247
267 276 288 300 298 309 305 307 276 380 389 413 354 330 309 323 316 267 297 239 236 230 221 225 224 235 208 238 237 236 229 230 237 216 214 240 235 242 237 191 221 232 229 224 231 233 228
271 259 284 300 290 304 333 303 284 360 378 345 337 327 326 328 335 326 303 261 239 233 224 227 212 219 230 245 248 224 242 209 214 213 244 247 226 235 233 225 224 222 229 224 232 240 227
269 278 280 302 290 287 325 284 293 273 376 358 322 317 329 320 337 334 325 304 248 237 230 221 224 220 226 221 227 217 214 212 214 220 229 235 188 236 234 229 230 99 217 218 221 235 238
300 278 281 285 295 312 318 318 293 265 348 336 328 324 328 305 323 326 229 334 241 226 230 230 220 218 222 219 221 213 216 201 216 265 232 234 217 248 246 226 243 217 219 217 213 216 224
277 288 276 276 284 299 316 324 294 278 324 342 328 316 312 314 314 306 324 328 341 251 231 231 222 221 209 219 207 216 203 217 222 221 241 169 192 226 224 150 227 228 218 213 218 206 221
276 294 280 275 278 291 305 327 298 280 294 344 330 326 325 308 302 305 293 318 377 292 241 239 231 221 194 212 221 197 213 215 226 222 226 192 222 224 225 211 163 219 205 215 208 213 211
268 287 273 278 277 294 298 318 300 283 269 350 329 318 306 295 293 304 170 315 333 287 243 240 230 230 225 219 222 211 223 216 244 223 236 199 239 217 233 189 173 215 172 191 200 232 219

GFSGBSN_2pvu_pres_030.txt.gz
Presure
193 208 156 118 71 264 289 269 291 321 335 346 351 319 311 305 306 297 313 325 285 260 254 264 244 258 262 226 202 229 211 205 204 205 204 200 193 210 189 181 206 188 180 167 170 187 165
198 162 178 179 241 256 222 263 282 297 322 330 337 348 311 295 300 300 292 302 335 296 277 257 250 250 261 258 223 243 234 213 204 200 201 201 201 200 200 201 192 182 184 181 212 183 185
84 135 135 203 241 205 217 272 319 334 318 321 313 314 332 314 289 290 296 286 306 323 289 267 268 248 255 236 251 224 246 232 227 203 200 201 195 198 199 197 199 191 196 197 193 199 196
129 193 138 228 242 250 284 284 321 335 355 344 297 268 271 276 310 295 280 292 282 310 290 290 259 266 249 238 246 255 226 238 228 229 215 207 205 197 191 190 192 198 196 194 195 200 199
155 220 149 197 230 250 247 293 321 351 347 304 397 471 484 445 311 291 298 280 286 273 316 284 285 264 254 260 244 245 249 225 224 241 220 216 219 209 202 196 196 191 191 193 193 197 201
158 234 177 206 241 252 283 314 336 365 320 455 445 448 452 494 527 323 299 290 272 276 272 311 280 279 266 258 237 241 241 234 225 226 229 231 237 222 222 202 205 208 211 206 202 207 215
200 222 176 136 239 254 284 330 369 340 411 443 454 482 543 464 548 428 299 297 277 285 278 289 284 274 272 241 240 234 233 236 243 229 223 220 223 233 218 215 223 219 214 207 207 215 212
146 236 192 136 231 267 285 347 360 323 456 455 461 478 474 485 503 480 325 272 282 268 266 270 307 275 260 274 243 246 234 241 232 241 231 237 235 223 226 227 217 209 208 214 221 217 221
156 234 179 151 230 270 311 346 355 479 493 463 451 459 454 459 462 494 467 273 284 270 266 275 263 308 258 261 261 263 238 228 229 246 239 239 233 220 225 231 226 222 213 215 217 221 221
114 215 219 211 231 297 341 361 328 548 511 454 477 445 435 433 453 447 489 279 282 257 252 250 259 264 291 284 255 270 264 241 229 219 236 233 243 242 227 217 217 228 233 224 222 220 222
140 139 156 229 232 296 311 362 336 530 571 606 435 425 422 409 456 463 479 291 268 263 266 238 259 246 254 262 305 343 264 268 241 235 237 229 228 235 242 242 231 226 224 222 229 227 227
202 163 174 197 250 290 340 359 500 474 504 474 443 420 430 423 458 490 492 300 274 264 247 245 246 257 249 246 246 308 317 280 264 249 242 240 246 253 236 251 248 245 237 236 230 222 225
198 117 209 153 258 290 338 352 468 452 435 442 444 436 426 447 464 471 366 345 271 259 260 238 235 245 250 251 251 292 287 294 298 272 263 262 254 256 250 252 281 290 284 255 242 240 227
224 187 223 234 270 291 336 348 425 457 434 452 452 452 461 480 464 374 349 355 277 274 246 239 239 232 249 245 290 281 275 276 285 290 290 285 293 278 282 267 253 258 253 251 250 244 239
221 196 181 235 292 321 332 346 441 448 437 436 440 424 438 437 440 364 339 323 322 275 239 235 237 231 251 245 275 265 260 257 251 254 257 256 253 257 255 250 248 234 235 233 232 241 241
216 218 198 238 300 338 343 344 418 444 439 468 444 440 437 462 343 338 317 313 313 314 238 228 227 239 225 269 259 249 244 245 240 237 236 235 234 235 235 238 240 236 233 230 227 219 219
130 220 226 247 290 339 326 345 412 441 478 476 510 466 464 469 340 327 320 320 318 284 237 227 227 239 263 258 248 243 241 237 233 231 229 230 229 230 227 220 220 255 267 262 219 248 248
214 218 230 284 281 319 353 353 318 450 499 464 522 505 368 353 341 328 312 315 313 259 244 224 235 232 271 253 248 242 235 232 231 228 225 225 279 280 280 264 249 241 238 232 229 225 221
214 218 236 301 284 317 339 310 320 458 480 464 360 383 338 324 338 319 323 309 288 246 228 235 240 278 259 248 237 236 235 230 223 230 284 282 271 250 238 230 225 220 216 220 251 133 251
208 221 248 284 298 300 312 320 329 425 473 470 350 363 344 334 332 326 312 294 249 243 231 232 264 265 245 242 235 234 228 221 215 238 244 225 216 209 210 212 217 230 249 247 241 239 243
221 237 270 283 295 290 304 340 337 298 432 449 364 319 328 348 315 315 292 243 213 221 238 241 270 258 244 236 233 226 223 218 217 211 209 209 211 216 224 217 223 239 231 237 232 237 233
218 270 266 283 290 280 306 334 321 311 337 387 322 360 318 324 328 315 226 236 234 182 217 220 262 252 241 236 230 225 223 218 217 215 214 220 228 214 218 226 242 228 227 217 237 225 215
240 311 256 289 266 283 293 324 312 291 282 369 351 338 340 321 294 311 262 230 235 227 215 213 220 257 234 237 235 229 228 229 228 226 225 224 213 215 236 234 234 190 225 230 232 225 230
280 309 176 289 268 284 286 318 311 305 299 277 357 361 344 342 315 282 264 249 229 233 222 222 208 248 211 221 236 229 228 229 225 238 213 212 243 228 243 240 229 195 225 219 225 230 227
259 268 177 281 266 265 280 288 322 295 308 283 351 353 341 332 339 305 287 242 241 231 231 228 214 219 240 210 243 239 235 233 230 211 212 256 241 235 215 225 225 227 226 128 212 217 227
291 269 280 279 267 258 279 280 303 312 314 294 268 353 343 342 333 334 310 244 240 235 220 227 222 220 224 233 225 241 246 240 208 208 247 235 236 224 238 224 228 225 115 221 210 222 218
284 274 291 282 270 280 272 278 284 314 297 305 266 311 346 339 331 325 337 344 246 242 233 219 223 220 219 224 220 223 236 213 207 209 223 202 248 246 222 209 238 219 215 194 222 211 213
280 278 302 278 279 283 270 278 290 322 306 308 284 274 344 341 335 321 313 330 305 246 242 231 224 228 224 220 222 221 210 201 209 220 217 236 203 209 203 233 210 229 219 208 220 212 216
278 266 278 296 288 264 273 283 280 318 318 308 285 270 346 332 323 309 305 324 331 300 248 244 231 236 230 216 220 209 218 217 212 209 231 188 224 211 213 224 205 203 217 236 210 213 225

GFSGBSN_2pvu_pres_033.txt.gz
Presure
104 150 134 172 184 229 106 251 263 280 100 337 337 350 344 346 328 335 339 324 321 293 276 268 268 264 261 265 237 232 216 211 222 166 213 219 198 200 188 185 175 177 177 176 175 176 170
117 117 171 123 123 219 220 253 271 281 331 338 345 363 274 309 349 328 323 325 317 311 282 283 265 259 262 270 260 241 248 204 209 218 218 214 215 213 193 192 193 178 178 176 179 181 175
224 223 163 144 145 154 191 252 271 289 351 371 341 322 361 300 287 341 319 314 315 306 304 283 281 262 258 252 252 246 242 234 232 211 208 217 211 213 211 211 218 214 194 184 179 187 179
78 128 117 231 169 226 205 253 272 301 360 346 379 470 465 469 475 115 289 313 308 306 301 299 289 268 245 256 245 251 229 248 231 232 212 215 205 209 211 211 182 204 207 195 194 196 186
170 114 136 167 178 175 248 253 274 319 373 427 528 491 468 453 447 450 329 290 285 299 295 293 298 317 272 251 246 247 245 241 248 232 244 209 215 191 206 202 205 199 199 199 199 207 192
95 227 213 237 233 236 250 257 304 393 347 558 535 485 472 462 534 517 448 311 291 286 287 288 291 329 300 261 238 251 255 241 249 250 223 243 201 213 203 203 199 202 204 205 203 203 198
129 212 190 221 230 238 252 276 309 359 480 554 492 471 452 476 486 481 462 356 286 272 287 292 291 287 311 295 259 249 249 237 236 243 248 234 252 227 210 195 205 201 196 198 195 197 202
134 119 226 216 228 237 255 291 331 342 518 550 487 458 454 461 448 457 476 451 315 275 289 288 279 225 320 285 295 261 250 246 238 241 254 248 221 234 233 229 206 202 198 200 203 206 202
139 227 238 222 230 235 253 319 396 334 483 606 576 462 443 444 440 443 439 532 450 276 283 278 279 271 297 291 276 295 254 253 237 242 238 244 250 228 234 238 228 219 215 206 203 203 205
130 213 218 220 239 234 252 317 381 364 467 482 500 449 439 432 438 441 445 571 455 273 267 273 279 270 272 324 273 276 244 260 247 246 236 240 244 248 236 218 228 235 225 218 227 215 227
142 148 206 225 245 205 288 315 374 426 439 449 449 443 420 420 439 431 485 498 396 275 275 268 269 271 255 320 271 262 261 280 246 249 237 232 233 246 245 238 225 228 224 226 230 234 239
190 122 227 225 240 205 295 370 363 428 448 445 464 452 434 429 445 462 488 479 357 270 272 273 263 272 261 283 289 270 264 265 268 247 229 228 227 228 234 233 240 236 235 237 241 243 241
227 228 216 222 239 218 306 385 364 446 470 464 453 476 461 435 460 502 408 446 312 279 274 268 262 254 247 260 281 284 252 257 258 236 243 241 232 231 237 231 238 238 242 240 248 248 221
231 232 214 221 237 253 295 381 377 455 495 477 446 452 461 451 478 400 382 378 304 144 269 254 260 248 258 258 258 269 283 274 265 257 259 261 251 238 237 221 221 233 231 237 244 243 251
229 221 214 225 239 297 296 377 378 493 489 525 464 453 455 480 386 387 369 333 275 274 262 240 268 236 257 259 252 252 239 257 306 309 310 268 263 264 244 243 239 243 244 249 256 252 259
240 204 212 225 243 285 293 338 377 482 493 503 474 466 446 383 363 349 335 331 279 271 258 246 240 234 226 249 249 237 221 288 283 289 295 297 304 303 279 267 260 259 271 280 285 268 257
239 127 210 225 243 261 282 283 346 390 512 492 490 411 374 348 339 335 327 318 282 263 254 247 240 242 232 248 238 285 277 272 270 267 270 271 275 278 287 288 272 254 251 250 245 238 236
234 142 211 223 244 291 303 304 357 341 523 565 393 370 355 334 306 336 330 332 276 262 245 239 235 224 233 230 285 275 260 255 252 247 246 243 246 243 235 231 226 225 230 225 220 254 250
209 198 211 222 306 288 282 215 319 344 397 378 354 357 340 345 341 335 334 346 280 252 242 234 226 227 240 283 258 245 242 240 240 237 233 232 233 227 224 222 227 266 254 245 242 241 238
106 194 144 224 266 297 271 280 305 342 308 366 373 369 349 341 336 321 321 338 331 249 236 230 229 233 263 257 247 241 237 237 234 234 226 221 235 273 257 250 244 239 237 234 230 220 236
193 192 213 263 260 280 276 276 297 328 328 313 344 350 338 332 331 331 322 304 286 252 230 232 229 237 262 242 242 238 235 230 228 221 289 259 247 240 234 230 218 212 210 228 240 245 239
190 212 218 306 264 258 267 288 292 306 317 313 352 358 320 308 336 309 307 266 260 238 233 232 245 266 242 243 237 233 228 227 220 215 212 210 209 207 206 208 218 219 233 246 237 240 232
191 189 278 289 270 278 268 265 282 280 347 314 287 375 327 329 310 305 239 239 237 240 224 234 273 247 241 240 233 228 226 224 217 215 214 210 209 218 228 218 244 238 243 222 185 236 219
191 244 295 283 267 280 268 281 275 269 345 333 319 289 365 353 336 264 254 245 238 228 228 241 266 244 239 237 232 228 222 221 216 212 216 218 232 224 216 244 242 235 238 240 217 224 225
195 269 303 282 270 279 268 277 263 281 303 315 310 295 291 359 343 280 265 249 240 236 221 219 238 251 242 236 232 226 225 224 225 226 221 234 213 216 236 226 245 236 228 220 218 215 214
302 270 295 269 280 287 266 258 288 276 276 326 310 297 271 292 351 351 283 268 249 241 239 225 221 233 247 234 234 232 226 220 225 224 223 212 214 253 239 246 224 230 228 229 169 205 221
271 290 291 219 277 262 280 256 287 272 272 305 304 299 311 277 356 351 337 280 248 243 238 237 232 227 211 248 216 214 233 236 228 216 206 223 233 236 174 213 213 229 218 215 222 212 209
295 286 287 277 294 284 280 278 297 275 275 300 299 308 306 274 283 351 344 340 264 240 251 241 231 224 222 233 247 215 239 240 226 209 212 230 206 233 242 239 220 237 210 165 220 227 212
292 289 269 288 280 279 296 289 301 284 260 282 320 308 311 287 274 346 347 328 334 263 250 251 242 233 217 229 210 228 250 241 205 211 209 222 257 259 248 243 189 232 227 145 212 217 218

GFSGBSN_2pvu_pres_036.txt.gz
Presure
113 97 96 189 229 230 230 239 258 261 308 326 311 378 347 236 317 211 335 347 322 345 330 322 289 297 298 279 256 213 233 206 214 220 228 171 219 216 193 194 180 171 168 167 178 177 170
122 108 179 222 237 241 182 242 259 266 326 330 395 348 403 478 521 484 343 337 337 318 330 323 296 276 284 287 270 237 223 222 209 208 225 200 214 191 207 208 197 175 178 170 168 171 175
144 131 141 236 144 249 230 241 259 269 316 328 361 577 545 558 527 504 473 117 312 327 332 314 308 283 276 269 267 264 235 247 213 209 213 218 191 202 210 212 207 195 186 168 176 170 169
137 143 120 245 228 252 232 243 273 293 322 379 522 552 522 521 492 479 457 454 317 337 321 320 300 313 269 275 268 268 257 233 233 214 206 211 217 201 216 158 204 194 200 186 187 172 170
136 101 106 236 251 226 247 244 274 312 375 346 509 548 526 500 475 466 447 436 377 317 323 328 310 315 273 264 259 273 275 265 245 227 212 214 200 221 205 202 215 209 209 210 189 193 191
171 136 192 256 254 202 240 253 229 327 371 472 500 546 471 455 490 485 457 432 445 309 318 317 306 292 302 257 271 260 254 261 258 250 242 213 214 203 215 216 211 208 208 216 214 192 203
149 109 241 257 252 235 242 257 275 334 360 471 488 564 488 454 459 448 468 442 427 313 309 312 312 305 302 271 252 259 264 261 247 238 254 238 233 196 206 177 211 215 216 210 208 210 208
128 104 245 256 202 225 243 261 295 323 375 469 472 501 466 452 442 452 464 436 415 459 306 306 308 291 292 301 265 251 249 253 255 255 260 251 247 235 212 209 204 209 204 211 208 208 210
153 192 208 167 201 224 242 258 326 321 481 470 458 470 450 436 461 447 453 436 418 421 302 289 301 285 288 279 315 261 260 247 250 244 247 245 239 239 236 223 223 204 207 201 212 193 205
134 215 239 211 202 219 242 259 322 334 484 480 453 456 439 434 414 441 448 431 417 366 290 282 289 285 284 288 323 291 250 263 243 246 254 260 242 244 244 250 235 236 215 208 207 207 193
141 137 208 205 200 219 240 262 319 336 489 484 452 439 455 430 427 448 477 418 508 301 295 303 267 184 281 278 274 292 292 265 249 240 245 249 238 248 246 247 251 217 229 238 199 209 208
141 116 242 193 206 219 238 267 313 370 527 501 454 462 469 443 452 471 525 443 411 295 281 280 238 277 266 278 267 304 289 288 275 248 240 238 246 252 236 237 240 259 252 232 245 223 210
105 132 106 189 210 218 238 303 310 379 542 491 472 481 489 487 482 471 493 372 355 305 293 280 285 275 271 262 257 288 280 281 276 295 247 239 238 246 244 237 238 245 243 243 227 230 236
140 138 203 200 211 213 237 306 314 422 514 493 488 478 422 397 458 484 405 194 347 307 268 264 278 270 259 260 272 298 279 269 267 280 279 249 240 246 245 238 237 239 245 245 245 241 221
140 237 148 198 215 199 237 292 313 353 523 507 468 401 361 348 403 426 358 346 365 275 271 279 268 260 263 254 293 289 278 263 258 266 275 276 251 250 260 238 245 238 237 238 237 237 236
170 263 174 194 197 195 260 305 308 351 453 381 380 369 353 357 372 376 353 332 276 261 268 262 253 252 256 244 259 276 282 269 262 270 265 265 268 251 242 246 239 237 234 229 235 243 241
225 126 223 190 164 235 265 301 295 336 347 398 378 380 343 344 337 351 306 280 270 268 267 257 250 244 253 254 251 249 252 256 262 262 264 261 261 259 265 236 240 245 246 242 244 244 241
140 249 200 163 172 260 267 293 294 322 345 416 385 376 316 347 351 386 284 285 271 264 246 265 235 232 253 256 254 253 243 249 297 293 292 299 303 307 268 259 260 261 259 260 266 260 258
141 252 201 120 211 265 273 286 293 319 356 321 383 350 348 336 344 352 277 274 253 260 236 240 238 225 225 236 255 297 277 266 262 264 268 275 279 278 280 281 281 280 281 277 268 259 245
201 237 195 185 216 266 294 283 295 276 307 327 377 352 343 350 355 270 276 259 249 250 245 236 231 231 244 277 264 253 251 251 251 251 249 252 250 249 245 244 242 238 233 230 227 222 236
128 201 192 200 229 268 284 285 289 277 305 349 302 390 358 347 339 341 270 266 258 251 240 230 224 233 234 263 251 245 243 239 240 237 238 237 233 231 231 228 226 257 255 254 246 259 233
128 197 189 207 270 297 281 289 281 284 269 290 322 317 385 327 355 333 250 262 258 235 234 229 235 231 273 255 243 240 240 238 236 233 228 222 223 281 274 272 257 245 221 213 208 212 246
215 194 196 222 270 259 296 278 289 285 266 295 325 315 338 329 345 326 282 219 250 240 235 232 235 239 263 246 243 242 237 229 225 220 294 283 258 236 213 213 211 213 226 221 238 243 232
223 219 205 280 269 280 283 276 282 279 264 301 281 332 295 356 343 295 298 277 227 242 237 233 242 275 254 245 237 234 228 224 218 219 216 215 214 212 209 215 225 217 227 231 231 226 237
195 221 276 274 272 292 295 282 288 274 275 292 290 298 332 303 337 272 252 263 254 231 232 236 257 265 249 242 236 231 230 225 219 217 216 216 215 216 224 224 214 242 240 232 236 227 224
172 228 285 274 270 292 283 278 275 279 291 292 287 276 321 336 300 333 269 270 253 254 238 229 276 259 246 241 235 231 222 220 219 215 216 222 228 231 219 215 248 233 229 231 227 215 229
284 278 281 280 269 290 288 287 290 279 267 281 289 277 268 316 317 292 322 311 252 252 245 248 228 255 246 239 238 234 229 222 220 221 222 226 235 215 215 233 246 239 227 224 230 115 222
285 285 303 283 293 291 279 291 277 285 272 264 282 281 262 281 314 301 283 321 341 261 256 243 238 230 236 247 241 239 233 225 220 221 226 233 209 221 250 234 175 232 232 203 180 218 224
293 284 289 271 295 291 276 285 273 286 287 272 300 283 269 289 293 329 310 287 345 366 252 254 241 239 230 259 244 229 236 232 224 230 233 220 213 231 249 240 241 235 222 226 231 215 213

GFSGBSN_2pvu_pres_039.txt.gz
Presure
134 134 143 219 231 237 201 210 232 239 273 179 334 321 353 502 517 539 574 450 421 259 347 314 332 319 336 297 289 278 263 240 212 187 198 203 234 191 206 195 191 181 171 171 174 182 191
104 154 157 195 235 198 198 206 235 241 276 311 335 360 490 497 543 517 520 542 469 369 341 333 334 337 329 304 299 283 273 240 229 207 191 192 210 183 190 228 220 194 187 168 162 165 174
155 154 152 207 102 193 204 208 240 243 278 298 337 407 483 546 514 490 495 501 514 504 320 345 308 329 323 312 295 281 280 257 235 227 201 200 205 175 229 222 222 218 195 181 180 171 166
139 130 134 211 233 195 195 210 248 247 284 341 361 485 478 545 504 481 480 476 160 505 329 317 324 329 332 303 306 289 280 272 240 232 229 192 232 195 191 229 191 179 217 211 174 180 177
133 101 141 194 229 194 198 211 249 258 289 342 492 483 514 534 470 454 480 469 470 472 392 322 336 332 321 306 305 286 287 269 261 233 233 223 198 214 201 204 223 184 179 208 214 187 185
148 110 139 124 228 193 185 209 248 276 306 353 502 466 535 486 464 444 443 451 450 449 438 308 332 331 311 297 289 293 286 274 266 255 231 228 220 218 205 190 222 229 210 175 214 215 161
126 108 130 124 229 227 199 218 241 283 314 386 487 469 463 459 440 439 441 466 434 428 436 306 328 317 309 316 287 283 283 286 264 265 249 231 224 216 209 201 171 220 221 222 209 210 221
141 148 151 128 231 225 173 225 245 286 354 501 477 463 459 436 448 446 446 444 426 424 413 310 307 311 303 296 300 278 267 282 277 263 256 251 236 207 226 206 221 206 217 188 187 213 212
118 113 136 152 165 203 176 223 244 293 427 535 481 452 441 442 423 433 441 444 426 418 398 308 288 309 304 303 307 271 259 262 274 276 267 250 237 227 211 221 200 207 209 205 206 189 205
148 115 141 220 241 258 177 191 243 316 514 499 475 460 444 459 440 455 447 451 416 539 328 304 286 297 305 290 282 292 257 256 264 259 260 257 259 237 238 221 221 214 208 206 196 219 215
140 120 100 142 244 272 181 196 244 314 398 436 483 493 467 450 455 459 468 419 592 438 304 294 290 297 293 296 271 294 264 256 255 261 267 270 274 247 252 243 228 218 208 214 213 205 197
141 147 192 133 127 249 183 218 246 310 432 416 449 490 490 474 474 493 425 422 428 355 296 290 288 300 300 279 284 297 260 262 256 260 271 255 250 251 256 244 250 243 217 222 217 209 196
147 143 193 241 132 242 178 227 276 334 364 421 417 498 497 525 512 420 455 391 341 320 290 297 305 300 289 270 285 271 298 263 255 249 242 249 254 266 251 239 251 251 251 249 254 237 220
131 160 152 227 134 235 171 227 301 322 367 394 393 460 469 472 479 362 353 341 322 300 303 306 294 284 283 273 276 268 266 302 287 251 246 241 240 248 243 245 248 252 240 239 240 246 241
130 175 156 203 214 231 207 222 301 321 338 389 400 416 392 377 347 350 359 337 282 288 277 282 291 284 270 271 267 260 303 291 287 286 273 244 253 247 246 236 249 251 248 238 244 247 243
165 151 190 128 211 220 220 223 293 319 272 386 374 384 406 383 358 354 373 273 278 275 269 282 267 268 262 261 258 272 291 295 284 285 288 291 254 252 248 248 242 244 245 244 247 241 237
213 176 205 173 207 215 216 214 302 312 289 333 375 371 409 371 365 323 266 265 261 271 265 257 261 259 260 260 290 290 293 284 276 271 270 281 287 290 255 249 241 238 241 241 249 246 238
179 186 154 187 203 202 207 153 285 298 284 320 385 360 307 303 294 283 274 273 274 267 259 259 265 256 249 256 267 285 287 276 265 261 259 258 269 272 267 267 264 240 240 244 251 263 243
193 186 137 185 199 212 223 273 300 298 301 315 332 369 331 298 285 277 275 277 270 266 250 241 248 251 250 246 247 239 250 254 262 267 267 262 254 253 261 261 262 262 265 235 243 241 247
211 187 139 191 211 230 243 275 296 299 296 315 331 394 376 301 286 276 268 265 241 265 240 233 236 236 237 241 240 253 256 257 258 238 235 267 271 259 258 256 257 261 263 264 264 256 261
191 158 200 216 238 231 297 275 257 282 293 314 305 331 403 369 286 280 282 273 254 244 247 238 231 231 238 243 280 267 261 260 265 268 268 273 276 280 283 286 292 297 291 292 293 276 260
190 142 204 218 261 256 287 277 298 280 277 310 309 306 338 400 296 283 278 274 263 253 250 243 238 236 242 280 265 258 255 256 255 252 251 252 254 258 259 263 260 253 250 243 234 225 224
187 190 230 250 294 283 280 278 301 278 287 284 285 288 317 345 389 280 279 246 256 258 232 235 232 238 239 266 257 247 247 240 241 236 236 235 233 232 236 229 225 225 239 254 257 250 240
128 208 263 290 290 283 287 280 144 291 299 295 281 273 292 324 339 359 273 271 249 259 239 219 235 239 239 266 250 241 243 239 236 234 231 228 228 236 270 285 276 267 235 221 215 209 222
188 172 296 290 287 290 286 284 267 291 277 287 265 269 302 284 318 344 314 277 264 255 262 237 223 235 247 265 250 250 241 236 234 227 294 294 259 221 214 212 214 224 224 210 236 232 242
286 300 293 181 286 287 291 285 274 291 280 283 281 282 296 305 298 295 329 266 273 259 254 249 239 222 255 267 252 239 237 229 228 224 225 223 219 218 216 219 222 223 214 244 237 224 224
309 220 288 244 285 288 305 300 273 292 281 279 295 292 283 298 286 283 305 323 271 278 252 236 249 227 245 263 249 239 239 231 230 226 222 222 217 219 226 230 215 209 244 231 231 226 231
301 291 291 286 295 305 295 282 306 291 282 269 303 287 287 295 285 274 311 301 302 289 269 251 241 248 236 266 250 238 233 234 224 225 223 222 226 228 237 216 228 229 242 241 231 230 223
297 294 224 303 307 299 312 276 295 289 279 281 278 288 297 302 294 291 287 304 310 299 314 269 250 240 223 270 234 240 232 230 229 223 220 223 225 235 218 221 241 234 186 240 227 230 213

GFSGBSN_2pvu_pres_042.txt.gz
Presure
120 138 111 112 121 234 245 200 174 184 238 252 296 340 339 408 492 481 482 483 517 537 426 365 327 330 317 329 349 314 298 283 251 231 202 203 196 189 198 196 162 166 186 173 177 177 181
143 131 142 141 196 134 246 205 173 180 240 296 328 330 394 501 496 481 499 504 480 498 536 395 330 330 315 337 326 343 299 275 269 239 226 217 176 189 168 202 191 156 174 187 182 171 183
114 148 135 129 110 105 253 200 179 226 242 308 341 414 471 493 489 519 489 475 466 475 515 407 346 319 319 296 318 337 309 288 298 237 230 226 199 174 186 225 207 189 146 166 175 179 170
143 116 146 158 154 123 237 231 180 226 244 318 340 489 486 491 515 477 466 460 454 460 500 422 368 314 322 313 317 317 323 287 263 257 233 227 212 204 216 191 180 208 185 172 159 168 171
137 138 121 112 221 155 224 229 207 226 251 348 437 500 471 475 463 448 441 433 463 453 468 437 402 312 323 303 316 309 317 286 282 257 239 224 225 224 199 201 185 184 153 161 181 189 179
126 128 155 147 180 148 180 225 239 228 255 374 445 486 454 456 450 435 418 424 451 454 479 446 410 309 318 299 321 312 309 284 268 282 281 241 218 225 210 199 201 182 216 195 158 168 156
128 161 106 182 177 96 218 220 231 228 289 371 445 466 445 432 450 435 431 441 440 436 489 445 402 298 322 302 324 300 307 285 278 276 274 265 242 218 212 213 185 182 197 157 232 169 155
127 148 149 138 172 186 214 215 215 241 290 432 458 474 452 330 445 427 451 443 428 460 542 439 369 297 317 309 320 297 294 286 292 278 269 271 258 241 227 219 215 196 175 179 200 224 212
125 147 129 179 175 205 125 211 168 231 312 434 508 498 473 446 436 444 445 449 421 438 532 397 317 295 311 304 296 303 283 283 278 286 269 267 268 257 239 231 216 227 200 194 178 198 166
140 150 156 169 193 233 205 210 179 264 360 444 472 501 484 462 451 457 457 448 404 511 408 371 298 295 301 304 303 302 283 282 286 282 276 273 273 259 246 230 226 222 208 193 190 166 203
152 151 160 174 190 200 202 214 175 285 343 466 490 546 514 501 488 459 434 415 412 428 364 319 294 274 308 303 287 314 279 285 281 285 276 273 274 261 256 238 225 224 224 214 202 184 211
189 151 162 164 125 198 202 210 256 309 334 481 450 437 431 419 477 418 411 405 419 360 322 304 281 255 302 298 304 311 268 277 278 281 287 274 279 268 258 249 232 223 224 222 222 213 211
136 155 143 164 175 198 203 225 264 254 297 410 406 401 389 369 378 472 457 406 357 320 298 291 280 305 298 298 297 298 265 264 266 273 275 282 284 274 261 253 251 234 223 226 222 219 205
103 156 143 165 127 169 202 210 271 169 294 381 403 341 390 382 395 414 382 343 310 286 290 272 282 309 313 303 277 285 287 277 268 261 258 257 272 282 252 257 258 238 243 232 221 219 207
114 153 129 162 170 188 200 223 284 161 288 318 319 345 322 318 299 295 292 291 288 286 267 301 294 300 294 285 277 271 252 303 277 267 253 255 258 259 261 255 254 250 248 246 249 234 238
134 165 165 163 252 148 201 230 283 245 286 302 306 322 304 293 304 266 292 283 288 269 288 277 286 287 274 267 271 273 264 276 292 274 263 248 253 253 255 252 260 257 255 256 245 247 251
141 154 153 177 216 122 204 262 282 283 283 278 400 328 317 305 263 287 279 269 287 284 272 275 274 274 268 272 272 270 272 275 281 293 269 256 254 255 250 251 262 255 256 261 250 246 243
154 161 123 149 189 125 207 287 281 278 281 287 326 334 293 291 301 296 298 295 282 276 277 272 269 270 267 260 254 266 266 294 297 281 281 276 250 244 241 245 245 247 245 249 253 247 246
146 153 131 132 186 125 241 289 281 284 269 284 290 401 292 310 295 295 289 249 262 270 268 261 251 251 251 258 267 287 300 293 290 290 277 282 282 282 267 255 252 245 244 252 247 242 250
186 183 131 188 186 126 294 288 281 285 278 308 301 313 332 305 308 286 289 278 260 253 253 259 255 251 246 252 251 256 272 290 284 276 267 263 261 267 274 275 277 275 266 255 245 241 239
142 158 214 185 192 133 215 286 282 283 279 286 296 286 291 350 300 291 290 277 244 256 252 246 247 244 249 249 247 247 251 254 262 268 267 265 260 258 257 262 267 266 266 265 265 264 264
153 168 183 192 111 258 213 284 284 279 286 296 296 288 307 337 381 297 280 278 271 272 251 216 241 248 235 243 266 285 280 280 278 237 242 245 252 254 255 259 259 259 260 263 264 263 265
224 184 177 202 319 217 291 285 269 278 296 273 290 288 295 292 321 368 289 271 263 267 253 242 249 237 248 246 282 273 270 270 267 262 263 267 273 279 283 287 290 292 294 297 294 297 289
179 185 191 324 311 296 291 286 282 277 302 305 282 292 296 307 288 306 386 290 277 275 261 245 238 237 225 243 274 265 257 255 255 252 251 250 251 256 264 265 264 263 260 251 240 232 227
190 311 316 290 305 135 293 286 281 278 300 304 280 298 281 287 284 290 283 327 312 268 266 260 248 219 235 222 271 260 251 242 240 238 234 233 233 234 227 224 225 228 233 247 253 254 251
317 331 325 267 123 188 290 287 284 278 292 293 300 290 273 271 290 307 283 300 309 364 274 273 239 249 227 232 240 268 246 244 240 238 237 235 230 229 242 289 286 275 215 211 228 220 218
296 327 314 304 302 296 290 289 280 298 312 309 296 289 276 287 295 279 313 295 286 286 324 281 272 243 251 229 230 277 250 248 239 237 229 238 265 226 216 212 215 213 221 220 217 223 233
308 309 235 294 293 296 291 155 284 300 276 306 290 290 289 281 305 291 299 297 297 303 292 315 287 266 240 233 242 255 254 244 240 234 226 222 218 220 220 224 225 224 216 209 241 240 232
306 295 255 307 281 292 301 135 286 293 302 310 295 290 281 282 290 290 281 295 300 299 301 284 287 305 271 241 233 236 268 243 239 234 234 225 222 219 230 226 234 217 208 229 235 231 239

GFSGBSN_2pvu_pres_045.txt.gz
Presure
103 118 150 122 160 112 209 186 108 212 188 269 325 341 317 461 506 488 483 483 480 477 478 464 410 372 359 325 341 318 350 353 272 229 232 202 205 214 201 190 179 176 138 176 175 180 175
128 130 151 140 160 164 225 190 203 218 197 294 311 347 446 495 487 483 485 481 470 469 467 485 479 388 363 324 328 322 336 357 322 246 237 218 224 214 209 197 195 164 168 134 177 177 176
87 134 135 179 125 110 149 164 204 223 208 305 317 341 361 486 466 480 481 457 450 466 471 461 477 423 369 326 321 312 324 356 305 276 254 255 231 205 220 194 203 195 176 160 152 138 178
128 136 138 135 101 164 211 179 208 224 177 308 364 409 473 474 449 453 436 433 458 440 435 463 473 470 365 320 85 305 311 348 308 306 255 276 240 231 212 218 186 202 180 179 171 164 142
148 136 126 149 106 143 151 189 210 225 215 310 346 490 465 451 438 454 425 420 423 429 421 450 476 446 357 316 309 297 306 326 305 295 309 248 269 238 233 202 195 212 201 183 179 170 165
118 143 146 151 112 134 151 205 211 226 308 311 489 499 461 448 429 445 419 427 434 452 435 441 504 420 334 297 309 296 299 310 307 294 291 284 278 263 233 221 199 184 208 186 180 189 171
140 117 152 141 162 122 172 113 212 229 310 314 436 472 484 453 424 432 423 456 429 439 456 465 489 395 309 294 301 295 304 292 321 297 290 287 243 235 236 228 199 195 179 223 201 165 191
128 97 154 154 153 159 135 213 210 234 310 314 412 417 462 473 431 436 450 452 431 443 493 493 412 365 303 295 299 292 308 295 291 304 298 287 259 238 263 226 229 224 227 189 186 203 206
124 137 135 142 153 169 163 213 206 241 309 308 386 439 483 492 458 466 463 443 441 474 563 419 385 337 297 294 292 292 304 280 273 306 297 281 278 288 237 241 222 222 220 208 221 188 179
120 142 146 157 151 166 147 200 203 252 302 305 363 439 578 441 462 465 438 434 472 557 403 384 360 305 293 293 294 282 298 280 285 276 295 278 278 267 271 255 231 227 223 226 198 197 207
117 140 128 159 127 162 141 191 204 275 297 299 340 452 561 435 436 434 440 573 416 394 383 364 341 300 287 295 309 280 302 282 288 291 284 275 282 271 276 255 260 224 225 223 218 197 192
118 130 125 160 153 149 150 189 211 279 296 295 331 345 307 404 481 529 487 397 371 375 355 343 318 296 289 303 302 304 283 283 282 292 278 269 269 280 311 272 270 227 221 214 215 214 213
127 118 162 155 151 138 222 186 175 299 294 289 341 336 311 322 313 315 382 381 364 379 348 318 298 287 286 315 301 297 275 276 286 297 272 270 269 270 274 293 287 263 224 219 217 216 209
137 122 152 153 154 159 163 117 218 300 293 285 337 307 309 326 278 307 285 298 285 272 281 273 288 304 316 318 279 312 276 270 275 278 276 280 282 289 298 296 267 268 254 238 223 222 229
129 119 148 152 153 166 179 137 304 299 289 284 296 306 313 285 283 296 317 315 277 304 294 297 319 302 296 298 287 300 280 279 273 275 279 275 276 284 277 279 286 265 264 257 241 225 221
124 148 140 155 145 198 183 143 299 297 284 285 283 319 307 288 302 261 308 302 305 305 306 300 300 293 289 289 286 283 290 275 276 281 281 279 271 274 280 290 276 273 267 259 262 242 230
125 154 216 153 101 185 181 139 298 293 284 272 297 308 314 298 278 310 303 291 285 299 303 302 298 303 291 288 272 287 294 278 269 267 265 261 267 272 272 279 284 273 266 264 257 251 256
112 167 145 197 153 181 179 181 299 287 284 164 275 309 311 305 306 288 259 290 288 287 282 278 276 274 273 276 278 275 278 260 273 289 268 263 261 266 255 255 255 269 264 255 259 260 257
125 236 208 165 115 178 183 146 265 281 283 284 278 282 314 331 311 292 293 285 265 276 280 270 266 265 264 260 257 258 263 264 274 273 288 274 264 261 258 253 247 258 256 258 258 257 249
186 240 151 143 140 200 324 307 125 281 282 280 283 307 313 302 326 299 281 269 281 257 259 257 253 259 257 259 268 285 292 302 296 304 284 279 272 264 261 260 254 254 258 259 261 257 250
233 151 140 186 167 228 326 305 128 287 280 277 274 273 293 320 372 319 300 285 277 268 266 232 253 255 256 256 253 254 274 298 288 294 295 267 271 272 271 262 256 269 270 258 251 247 254
129 154 177 184 285 337 329 298 297 288 277 278 288 291 298 302 310 360 312 297 282 267 260 251 222 241 253 246 251 274 251 249 280 280 284 282 276 270 272 276 283 281 275 270 269 267 263
200 150 180 229 254 328 314 300 261 289 282 277 273 274 290 309 295 301 317 299 287 273 263 244 250 230 235 225 249 289 284 287 270 251 250 262 264 259 258 256 256 258 261 265 267 265 265
170 178 241 309 324 276 255 300 284 285 280 278 272 277 286 293 290 292 303 299 340 292 275 260 247 236 232 227 240 264 266 267 265 269 273 279 279 279 277 277 255 259 258 259 259 259 258
149 200 280 310 299 304 283 294 286 281 275 280 275 290 274 290 289 292 283 303 290 314 307 280 246 249 233 237 236 236 266 248 247 251 251 251 252 254 257 273 286 288 290 292 294 293 283
283 278 295 275 312 296 306 301 292 286 280 293 283 301 282 287 289 291 303 292 303 282 299 322 289 269 249 249 232 235 251 248 239 238 241 239 239 241 234 239 236 235 235 233 233 230 226
286 295 290 361 363 322 301 302 298 295 282 290 293 311 298 299 286 294 284 287 289 296 281 286 302 314 266 250 235 230 241 266 237 236 236 237 237 235 228 227 231 236 242 248 257 261 257
324 280 295 352 361 354 329 313 320 296 311 319 311 306 296 298 296 285 286 284 290 312 295 280 281 293 306 287 255 227 228 248 256 242 235 235 225 259 270 293 261 243 215 214 214 227 220
295 335 296 361 365 90 370 343 335 302 299 334 290 308 294 305 302 291 284 291 289 282 289 294 300 279 279 283 310 249 228 239 259 248 239 228 289 232 217 217 216 213 224 226 225 213 224

GFSGBSN_2pvu_pres_048.txt.gz
Presure
107 108 141 133 144 141 149 204 141 224 202 287 322 324 360 487 477 472 479 480 477 480 467 461 454 423 392 364 355 341 325 308 359 379 248 212 232 210 218 199 187 176 185 144 172 170 174
108 103 122 136 148 109 160 170 157 223 216 305 325 321 377 394 454 455 474 475 464 472 459 468 407 459 399 380 350 346 319 329 332 361 313 228 230 212 230 211 197 178 184 166 133 187 144
147 94 126 144 151 89 163 132 169 189 236 316 311 320 425 454 448 440 452 449 442 439 459 456 454 441 430 378 355 326 320 323 311 346 365 262 221 221 229 216 201 191 189 187 144 130 187
99 132 96 152 151 99 142 163 222 191 250 321 318 315 446 442 442 432 446 425 422 423 441 448 441 452 455 387 347 326 320 322 331 338 351 322 238 228 219 179 207 203 163 192 187 155 144
108 112 138 125 157 154 152 165 145 202 304 317 313 352 401 457 438 424 424 415 427 418 414 440 442 457 471 389 296 316 314 313 312 322 331 316 278 236 219 231 215 206 189 184 190 185 174
121 112 138 137 154 159 156 217 144 204 319 314 311 355 360 447 446 421 420 434 446 452 419 433 454 467 488 374 327 306 307 313 306 326 324 307 304 241 227 216 234 201 201 185 184 185 180
137 116 148 143 161 159 161 162 207 200 318 314 308 352 468 457 437 429 427 453 437 432 442 436 461 481 450 350 316 308 294 310 302 307 315 305 313 258 261 228 219 197 212 199 190 185 194
133 124 122 142 159 110 177 162 196 164 311 312 305 352 529 448 453 475 471 448 425 444 454 453 456 427 386 327 307 294 290 296 226 298 313 318 297 320 266 233 221 220 201 196 204 194 185
139 147 149 147 160 148 164 213 192 177 308 307 298 350 327 586 453 447 446 451 480 517 464 435 411 393 340 312 292 285 296 282 319 309 300 308 301 302 284 270 227 216 225 210 209 196 195
110 144 144 107 145 172 162 174 208 167 308 300 296 348 329 349 593 611 594 594 512 447 404 395 384 350 314 298 288 282 299 252 293 310 299 311 294 302 301 264 265 224 216 221 216 200 209
119 123 127 156 113 163 164 173 187 229 299 295 294 342 322 363 306 414 424 422 406 401 373 374 342 320 304 293 288 286 273 268 286 284 335 309 295 284 300 283 275 250 223 214 216 224 202
140 137 129 129 157 184 173 194 136 231 302 291 290 306 323 307 343 318 356 414 398 380 359 337 315 303 297 291 289 286 270 270 265 273 294 310 304 294 285 298 257 230 251 243 220 218 228
139 144 145 145 153 164 140 200 139 131 300 289 290 283 318 308 325 333 309 297 388 376 357 310 306 300 296 289 291 282 267 265 265 266 290 296 307 311 299 282 296 271 229 253 248 239 227
134 147 125 155 147 169 203 194 174 252 300 286 284 283 325 308 326 303 317 304 305 282 356 330 313 294 291 312 295 283 279 269 302 270 270 273 291 301 314 307 281 283 254 240 230 255 238
140 141 124 146 157 158 155 180 316 191 301 289 283 282 337 310 294 282 318 310 310 314 297 278 274 314 310 293 291 272 297 289 282 280 276 280 283 288 294 306 295 290 269 254 223 227 245
149 121 155 163 180 198 152 173 163 182 301 290 285 282 320 311 300 286 310 316 320 321 315 313 307 309 296 293 278 291 291 289 283 285 282 280 279 283 282 278 296 290 282 276 252 251 218
147 121 139 210 208 168 161 169 157 226 303 242 286 286 277 322 309 289 303 301 303 310 317 305 305 304 297 293 272 278 273 281 284 276 275 284 293 284 276 273 273 265 259 277 282 256 227
149 143 150 198 203 158 194 173 326 299 254 271 283 284 278 354 316 296 292 270 293 270 288 291 302 306 291 293 284 304 287 284 281 280 272 269 268 267 273 280 290 301 285 289 272 270 269
142 135 149 175 196 167 255 320 319 318 296 296 280 280 283 289 343 299 282 274 280 273 245 279 278 283 284 286 285 282 277 304 276 271 276 275 275 281 275 269 275 283 284 290 293 262 260
188 140 152 192 191 142 212 309 163 302 300 295 283 277 282 283 333 325 295 276 282 268 258 254 255 271 276 279 278 270 269 274 264 255 283 267 262 264 261 262 263 259 262 273 281 274 277
137 141 153 181 192 173 309 322 306 302 294 290 273 274 274 280 318 357 316 288 271 266 261 248 258 242 256 255 248 251 290 297 278 268 270 273 284 276 264 263 267 252 253 253 257 264 260
140 177 152 184 138 298 111 275 320 307 295 300 283 278 273 307 317 306 325 309 289 263 265 252 250 239 249 247 241 284 252 252 299 296 296 276 267 276 277 270 261 259 244 249 249 248 253
172 149 231 239 170 273 249 370 285 330 306 293 292 280 276 267 313 306 301 309 340 294 278 266 255 251 236 230 242 269 281 275 256 276 296 293 273 267 265 266 267 267 265 264 259 252 255
145 223 233 164 163 285 315 372 360 338 311 178 289 224 283 268 311 301 300 298 316 313 313 281 267 254 245 235 232 242 270 268 279 273 258 247 286 276 271 271 272 274 277 278 276 274 267
170 150 157 154 286 299 296 394 264 347 333 310 289 276 280 280 300 304 300 292 301 316 301 320 285 269 259 246 236 235 250 256 249 252 261 268 271 264 254 250 251 251 254 257 259 263 262
167 131 212 279 292 282 194 398 369 171 347 321 313 295 283 296 305 291 299 300 290 290 307 291 308 320 271 259 248 234 234 262 250 245 247 251 251 254 256 262 276 285 288 258 253 253 253
137 212 279 279 296 269 409 398 370 356 351 316 317 298 319 326 305 298 289 296 294 291 285 283 288 304 313 279 259 250 235 238 259 244 241 241 238 242 241 249 253 258 271 280 281 283 283
195 193 301 306 150 343 418 388 374 363 352 333 314 337 316 301 305 298 294 288 283 289 286 295 285 291 289 300 297 262 252 240 245 258 239 239 239 235 233 231 232 233 232 231 240 243 239
275 284 151 278 256 188 420 402 379 355 365 339 347 319 299 305 308 299 294 292 290 287 282 288 249 285 287 297 295 302 263 242 232 247 258 238 241 237 232 228 225 227 237 243 242 243 249

GFSGBSN_2pvu_pres_051.txt.gz
Presure
103 137 121 115 140 144 151 156 159 224 180 196 126 319 323 378 367 440 439 453 474 469 486 481 485 462 427 385 337 291 279 315 297 296 313 243 235 245 210 198 178 162 183 185 141 138 176
104 106 132 144 139 157 153 157 154 234 189 309 126 317 345 366 340 439 427 442 451 455 449 474 462 454 439 423 367 316 273 285 298 301 328 273 244 231 229 208 196 208 169 176 173 178 135
108 118 105 148 141 141 161 137 204 150 191 319 324 317 232 369 477 446 434 432 432 427 438 436 444 442 430 425 401 361 307 274 308 292 307 259 253 239 238 211 198 194 201 184 173 184 59
139 115 118 147 112 160 155 117 167 103 190 303 323 317 361 373 332 461 429 419 427 415 416 462 437 426 430 427 415 365 319 305 309 289 293 314 261 249 222 232 202 200 197 169 175 179 180
104 132 130 122 154 134 119 150 167 115 194 333 319 318 359 363 356 443 433 418 436 450 412 435 428 423 425 447 404 370 323 305 301 282 329 315 274 301 235 226 213 204 188 206 193 177 190
123 120 103 116 154 160 123 158 176 193 173 332 319 320 358 359 355 451 435 435 450 460 422 430 431 429 438 439 410 358 331 317 310 304 294 297 336 252 251 244 219 206 196 179 204 190 183
103 132 103 122 160 139 156 156 159 224 193 328 319 320 357 384 505 456 440 437 446 426 420 425 432 431 424 428 382 349 318 329 273 290 317 309 333 340 233 235 234 216 208 192 168 197 184
133 139 127 122 159 112 158 172 174 155 236 289 315 315 356 379 519 514 466 450 450 461 436 453 440 436 414 405 351 310 313 305 292 295 320 303 301 332 337 293 232 229 202 201 208 207 196
138 117 142 120 161 134 146 120 154 204 190 270 309 307 345 354 328 479 539 513 481 481 431 458 441 402 397 345 336 293 296 304 306 307 204 310 310 325 342 321 245 231 221 211 216 202 206
135 133 140 123 157 139 178 227 155 204 133 281 308 296 339 350 425 439 437 476 479 415 375 347 363 381 371 327 315 298 291 295 316 290 302 289 297 317 329 320 301 232 226 214 218 206 213
132 137 148 118 125 132 182 215 152 303 254 292 146 298 325 344 319 397 442 432 384 356 363 372 372 337 306 285 322 307 291 302 315 291 276 312 310 298 325 332 314 254 223 208 219 218 218
134 123 129 105 126 150 213 185 151 304 184 299 124 295 291 324 318 352 342 380 349 388 413 355 327 308 297 299 286 281 287 282 326 296 288 303 288 307 329 341 323 304 246 222 208 215 214
137 137 125 135 152 154 236 230 155 309 321 297 124 291 314 324 309 310 337 331 370 363 358 306 305 297 298 284 273 275 264 272 274 295 280 308 290 306 306 330 329 307 283 243 224 220 211
134 146 119 155 167 160 176 128 190 180 178 302 290 291 285 295 289 312 317 311 379 305 321 320 304 295 301 290 279 272 267 269 275 283 301 285 309 323 303 315 316 318 293 267 239 219 224
132 141 123 139 152 162 144 131 190 267 296 259 293 292 282 303 308 303 326 323 306 293 287 307 307 303 291 287 286 281 273 274 277 272 269 298 297 305 314 330 298 306 309 279 282 251 245
139 136 133 184 154 158 187 170 161 302 333 322 296 292 307 271 320 300 303 333 312 310 295 295 303 294 299 300 291 287 290 283 268 282 278 270 290 292 304 326 305 304 293 303 279 263 245
138 133 124 163 157 177 186 196 184 274 280 336 306 291 285 271 327 305 290 296 319 311 309 308 305 294 294 303 292 281 284 284 280 280 272 273 274 272 275 281 306 320 291 290 284 280 260
133 124 129 149 153 171 188 171 188 271 284 322 146 295 284 284 348 317 295 293 281 296 314 313 314 305 295 290 294 287 274 285 286 279 286 276 272 273 273 284 277 290 302 306 281 258 259
123 113 141 144 195 146 214 132 171 310 242 348 327 191 289 285 276 339 300 282 270 271 277 284 305 303 301 295 285 316 301 288 279 282 281 279 277 282 284 282 270 270 270 284 290 285 258
129 158 132 146 142 150 183 141 196 314 359 376 238 319 299 284 283 290 320 294 279 278 272 256 253 273 280 283 281 280 288 283 283 270 271 273 265 266 267 268 274 275 279 276 271 286 283
142 143 134 175 142 139 193 140 283 201 267 360 339 321 252 287 277 297 324 317 294 282 278 268 254 250 250 254 252 254 266 275 273 282 289 277 274 273 267 279 275 277 269 278 281 295 279
169 134 134 142 172 178 153 163 334 299 152 363 344 333 110 296 279 305 305 337 309 293 280 273 262 253 248 251 249 265 266 254 294 276 267 274 265 274 264 269 267 261 266 261 262 271 283
131 136 125 144 174 159 181 269 144 313 393 372 342 333 324 300 288 313 293 297 307 324 282 275 273 265 255 245 241 246 287 288 260 307 308 274 263 275 276 278 270 254 272 255 255 256 258
134 149 142 192 175 131 209 238 245 328 329 379 230 341 342 290 325 316 305 309 314 311 328 292 275 273 265 257 247 238 258 279 284 268 256 304 298 279 269 282 278 276 271 262 252 251 249
140 122 238 161 143 139 162 124 327 270 267 376 366 344 331 118 302 294 309 307 301 300 314 305 311 282 274 266 257 249 240 270 267 267 274 276 253 296 274 270 266 262 263 266 268 268 264
167 230 132 136 160 207 164 177 190 305 285 389 364 341 356 332 316 314 299 301 300 286 294 303 298 306 288 267 264 250 250 246 265 254 255 262 266 270 255 254 271 263 265 263 269 271 273
161 232 213 153 151 228 214 278 147 247 189 403 385 348 358 338 326 309 308 296 299 290 295 291 295 296 301 305 273 264 254 245 242 263 247 251 253 254 254 258 263 261 253 249 251 248 255
169 183 125 123 202 165 247 279 136 360 368 399 360 373 362 337 325 181 297 296 291 289 288 295 290 294 294 295 292 290 264 254 246 239 254 244 244 245 246 249 255 255 265 276 280 274 255
135 150 157 124 254 262 236 276 173 385 184 401 388 393 361 342 325 317 303 308 301 284 293 283 285 284 278 293 291 298 293 270 256 245 242 253 240 239 239 241 239 240 254 257 271 278 281

GFSGBSN_2pvu_pres_054.txt.gz
Presure
140 98 107 103 99 146 124 151 147 129 198 210 208 125 276 376 375 378 469 441 422 424 463 465 477 474 494 340 326 314 286 319 132 313 287 287 240 247 212 218 169 202 188 182 179 182 140
121 118 100 126 118 155 128 151 169 172 188 199 277 337 323 382 366 488 465 444 426 428 434 442 456 461 474 471 331 300 310 289 289 294 329 260 242 240 229 212 202 193 199 192 186 172 185
105 118 108 113 138 117 131 145 153 175 239 194 125 249 323 378 357 471 454 447 417 422 434 429 452 452 469 456 464 267 315 292 270 297 293 298 321 243 250 224 223 208 209 200 184 169 90
114 132 103 107 147 129 110 155 199 151 223 317 123 260 314 373 385 473 450 429 417 427 429 421 454 442 450 447 450 324 276 305 281 281 294 300 259 243 242 246 241 219 194 205 186 184 180
127 144 126 115 143 134 137 160 214 159 249 246 120 321 316 368 392 479 447 434 443 467 444 418 445 427 435 425 459 424 269 278 277 274 307 288 302 309 242 239 239 242 209 195 166 126 187
147 114 139 121 105 115 137 159 172 221 222 283 119 324 322 367 386 517 456 443 440 450 428 432 427 425 422 419 449 413 316 261 179 270 279 284 292 290 322 248 242 245 213 190 193 166 179
157 145 145 102 162 126 161 152 145 212 205 320 299 324 321 362 383 539 481 447 432 420 423 419 435 420 436 433 441 400 392 295 282 266 269 141 281 296 316 343 228 240 218 202 193 197 178
139 146 145 146 157 138 149 99 182 219 196 301 147 313 323 312 347 404 420 489 468 446 451 441 438 426 433 379 357 358 381 342 300 261 270 288 292 284 266 320 335 240 236 240 199 186 191
153 143 136 137 123 148 104 149 189 227 293 295 232 310 319 307 343 380 404 421 473 461 406 412 384 374 384 376 348 327 376 331 290 280 254 258 268 299 294 315 367 246 244 228 205 198 194
151 142 141 129 146 156 134 146 177 222 193 191 156 312 314 311 347 404 396 402 379 368 369 357 327 327 338 358 394 358 324 316 290 353 276 263 288 274 334 321 357 298 229 246 235 204 202
129 142 144 117 146 145 127 158 222 152 163 340 161 207 308 311 308 395 338 417 395 340 349 349 338 316 318 310 321 327 336 302 277 268 247 269 271 305 277 335 346 372 275 233 237 229 216
129 140 147 119 97 150 165 140 128 188 184 300 345 209 314 304 304 321 436 322 333 357 348 342 306 302 289 295 320 318 332 222 312 291 282 313 296 310 302 302 332 359 354 262 228 238 234
133 139 131 126 149 155 159 139 131 182 172 175 343 295 266 298 296 329 311 342 308 340 333 349 302 308 295 287 288 305 322 298 329 325 294 292 305 298 307 291 328 343 372 274 259 234 230
146 142 127 132 134 155 182 140 194 183 213 354 349 345 328 300 294 317 308 320 304 336 293 327 310 307 296 294 293 274 293 316 302 302 294 295 315 296 307 315 305 323 343 347 261 268 235
133 140 133 132 138 135 176 186 146 140 302 190 146 262 332 120 295 313 302 325 314 332 312 305 306 306 297 287 289 288 294 307 293 288 286 297 294 295 305 327 319 336 340 349 323 253 255
128 130 135 133 142 134 204 143 155 218 270 217 251 347 337 307 293 302 306 303 317 302 304 295 299 303 300 291 288 284 282 289 292 305 313 303 305 301 322 319 303 313 320 336 342 312 252
129 118 131 137 140 141 150 145 141 133 222 197 380 356 331 320 250 282 291 303 295 296 312 304 300 288 300 297 281 284 281 274 280 271 280 268 300 298 304 302 312 323 314 312 323 314 302
119 131 134 125 144 132 139 142 158 140 134 162 156 359 345 319 304 300 313 302 297 287 283 325 317 294 292 287 290 286 272 285 284 284 266 266 277 269 268 292 301 314 299 297 303 309 291
132 119 124 120 143 129 151 158 137 144 127 184 375 346 343 182 319 298 284 306 291 281 283 275 319 310 299 294 289 292 277 262 268 266 271 265 270 270 273 273 275 279 303 303 286 293 302
131 122 122 128 142 120 180 143 128 142 243 132 317 311 348 332 227 315 318 302 302 294 286 278 273 277 302 299 290 289 294 283 286 280 278 274 275 274 264 266 260 268 267 275 293 295 277
124 129 113 134 135 138 151 122 150 205 219 145 183 346 346 326 321 316 307 322 312 299 294 287 273 259 266 264 262 266 272 282 282 281 282 274 285 272 282 279 279 277 267 265 267 280 286
122 115 125 113 238 143 138 142 190 140 196 130 314 138 292 331 333 312 302 317 312 307 294 289 281 270 262 261 257 258 268 266 269 282 274 284 281 277 275 272 272 262 277 272 271 265 269
132 133 139 114 138 136 147 229 171 195 170 131 133 149 318 342 326 310 302 307 284 294 306 291 276 280 272 265 247 254 256 278 275 253 291 281 273 275 277 278 275 269 279 270 275 271 272
130 143 151 171 129 128 232 144 154 155 275 181 271 266 309 269 344 321 322 301 307 310 300 314 290 282 269 275 266 252 245 253 281 283 256 305 301 273 269 277 275 266 278 272 266 265 262
138 123 132 194 151 139 133 135 231 167 272 230 291 419 391 171 335 334 317 311 297 294 298 320 314 298 279 279 273 263 252 251 260 279 284 263 271 303 285 267 265 276 275 261 255 265 258
137 131 167 120 133 126 163 150 141 245 212 185 283 338 407 361 351 257 320 306 298 288 295 290 297 306 318 291 280 273 262 255 249 260 270 273 275 249 302 284 275 270 280 281 281 268 263
114 141 130 130 115 127 125 129 135 153 169 183 277 283 410 373 370 350 330 312 307 301 293 290 286 284 303 299 304 279 271 262 255 251 257 255 260 265 270 279 277 272 265 264 262 259 269
120 147 136 146 150 134 164 200 122 151 151 241 257 294 405 388 269 364 183 314 305 307 290 276 284 282 288 293 289 298 298 269 262 255 250 252 256 257 256 263 267 264 254 260 257 268 267
145 90 129 116 202 130 147 153 119 122 186 174 267 280 387 448 390 291 268 325 304 296 301 299 284 282 283 291 287 287 291 295 278 262 257 250 255 253 252 250 255 254 260 267 270 266 253

GFSGBSN_2pvu_pres_057.txt.gz
Presure
150 140 127 114 118 111 114 145 141 114 234 212 221 323 344 144 374 488 500 464 442 442 423 420 461 466 481 484 342 329 316 292 292 304 309 280 304 252 255 179 209 204 180 169 190 181 188
140 133 173 123 99 175 131 172 106 177 190 190 208 372 348 148 377 531 478 455 450 428 425 435 439 456 465 495 335 339 314 299 301 243 301 269 253 245 247 239 184 205 197 163 155 164 192
134 114 154 117 149 133 152 118 152 162 129 245 164 370 354 320 414 528 474 452 437 426 423 436 429 454 457 470 316 343 316 294 284 288 321 280 282 290 240 248 247 164 206 213 164 195 178
125 124 161 122 157 126 155 122 129 159 155 195 239 353 228 344 348 522 468 451 442 447 477 423 448 451 449 467 449 327 317 300 285 288 285 278 291 309 252 243 249 220 214 208 158 179 190
119 142 149 115 122 119 129 151 128 173 145 201 220 368 219 329 429 529 468 451 439 465 447 428 443 441 453 457 443 304 327 286 292 278 288 288 318 314 283 246 244 248 214 213 212 134 174
154 142 163 121 134 118 149 124 127 116 182 164 172 367 173 340 414 518 496 461 445 435 437 432 433 444 428 436 456 417 329 294 282 278 283 281 282 321 326 224 241 238 239 225 220 206 168
138 141 159 120 154 122 156 150 134 176 177 164 235 359 270 336 344 435 461 406 462 444 444 434 431 416 420 437 460 426 314 289 270 286 285 287 281 306 284 285 244 240 238 241 219 203 208
139 130 152 123 107 155 137 146 154 139 171 222 154 338 354 328 314 365 391 382 382 475 440 436 418 416 434 386 393 440 311 284 271 277 293 290 283 279 299 242 246 245 241 240 248 227 199
148 138 141 129 115 148 135 159 131 161 165 225 182 226 351 219 311 396 378 367 369 375 390 382 376 404 426 371 342 379 234 293 287 262 289 292 294 271 287 297 313 230 240 236 244 233 227
132 134 162 145 130 152 151 135 179 139 161 221 159 263 354 129 187 309 361 325 384 358 349 328 330 349 376 359 342 344 297 296 284 275 265 275 197 295 249 275 270 249 246 248 238 243 211
135 137 147 146 139 157 167 171 143 223 149 171 185 351 352 338 318 311 380 317 317 369 347 331 338 346 356 356 348 355 334 297 286 278 269 259 295 273 297 256 294 249 252 250 243 244 247
150 138 141 136 152 117 131 149 133 126 141 170 154 176 347 329 319 303 341 321 350 340 329 341 320 330 328 337 324 375 342 295 287 290 265 269 262 289 287 288 313 311 268 264 239 243 246
166 141 111 149 137 125 130 135 136 137 138 170 187 163 318 332 318 311 309 330 328 319 320 315 311 321 331 308 328 322 346 310 282 302 279 274 266 267 268 288 285 314 317 296 320 250 240
156 129 117 139 115 145 142 136 121 134 132 157 143 300 305 328 326 310 302 298 330 311 323 318 310 302 306 319 309 308 308 319 309 287 280 294 288 301 273 267 268 274 292 318 341 317 336
145 133 134 130 136 149 138 153 137 139 160 137 131 156 162 341 313 309 305 307 302 323 308 327 309 318 296 299 289 309 304 303 303 304 290 298 313 336 330 271 277 267 290 273 301 373 357
169 131 115 126 132 143 132 147 123 187 157 142 246 136 156 166 267 271 308 301 302 309 316 318 295 304 293 303 311 331 313 324 331 318 303 321 315 304 292 316 321 312 270 336 290 358 364
148 120 146 133 103 136 146 135 137 147 133 129 164 179 268 353 149 327 305 298 297 297 314 312 297 316 294 281 284 277 290 299 309 299 296 293 302 306 297 295 310 322 322 334 321 341 345
133 147 143 125 117 105 144 117 146 127 212 138 236 255 155 368 348 333 320 311 300 290 289 310 307 297 315 289 299 276 277 271 267 276 263 307 311 306 306 307 314 310 310 296 308 317 335
155 160 140 124 117 114 135 142 143 146 170 163 270 197 223 150 350 334 317 302 298 302 291 288 320 312 298 298 276 292 277 273 269 271 276 278 278 273 265 296 295 302 305 307 294 295 304
122 130 132 126 124 138 133 125 141 187 150 150 166 161 146 158 354 347 332 297 328 297 296 285 284 306 321 306 294 286 284 278 278 270 268 271 268 271 276 264 276 278 288 309 295 294 292
147 143 133 141 136 116 133 136 145 180 217 152 149 169 165 133 368 348 332 322 306 302 296 290 285 283 265 273 274 284 287 296 290 273 275 279 276 270 277 270 274 270 275 276 282 292 290
126 138 131 124 138 134 136 137 217 126 164 154 153 145 165 266 184 354 134 327 317 310 312 301 291 277 280 275 265 269 270 265 278 283 283 281 267 282 283 276 279 271 268 268 269 268 280
123 120 110 125 115 145 148 147 122 160 161 140 157 272 171 167 189 366 335 329 320 315 299 296 298 285 278 282 265 262 250 267 282 263 272 282 280 286 269 279 278 283 281 273 268 272 269
154 130 120 128 121 126 147 133 117 129 147 181 137 185 145 195 302 298 348 329 318 312 308 310 298 300 285 277 271 276 262 257 252 274 289 259 279 295 278 286 281 275 273 273 274 283 266
134 128 124 141 129 142 122 113 140 150 161 114 186 147 176 168 281 277 229 146 326 307 308 298 299 306 297 287 280 277 269 262 255 255 255 292 267 294 307 278 272 277 276 275 270 280 273
125 132 142 114 140 150 101 139 202 120 145 130 127 204 290 148 142 133 175 356 330 240 308 154 299 294 311 302 293 283 275 271 260 259 252 249 284 270 265 304 296 271 275 280 270 272 273
118 126 119 133 149 147 138 148 209 127 147 183 148 174 175 149 136 143 129 369 177 326 306 302 296 287 291 292 304 309 294 281 272 267 258 249 255 270 274 266 304 290 274 266 283 278 270
133 118 124 131 119 144 136 160 111 170 137 150 196 195 131 187 275 140 128 177 244 238 309 295 296 287 277 285 287 296 298 300 284 271 266 259 251 245 242 263 273 298 281 271 270 275 278
136 119 121 154 137 133 127 124 234 132 131 244 136 144 266 176 237 133 119 170 373 341 323 299 286 284 271 278 276 282 286 297 294 294 278 263 255 250 247 247 258 265 276 278 271 267 260

GFSGBSN_2pvu_pres_060.txt.gz
Presure
124 144 162 152 110 115 119 134 152 137 165 171 167 174 250 379 380 540 522 488 459 435 433 429 423 428 446 446 343 354 332 302 303 285 303 294 309 368 332 259 217 245 148 175 155 167 187
127 144 157 153 118 117 127 141 154 115 129 174 220 153 297 382 372 468 496 472 454 452 437 422 423 429 452 461 412 343 334 309 295 298 302 315 272 347 277 254 250 244 222 165 169 199 158
139 126 135 142 152 123 172 110 148 150 131 165 145 196 322 352 365 455 493 472 457 453 439 434 429 445 449 463 473 319 340 319 304 292 283 284 275 331 282 267 250 241 241 182 160 193 189
138 132 124 139 143 116 105 120 129 152 143 178 149 185 370 366 317 405 481 457 456 463 459 436 430 456 460 471 464 359 336 315 311 288 277 285 284 310 272 310 245 247 247 211 194 179 199
141 132 135 155 127 121 115 119 153 143 135 158 158 164 309 356 318 435 471 475 453 443 445 448 443 447 449 461 442 446 319 321 308 281 277 284 273 273 342 349 250 248 232 240 179 206 196
137 135 133 157 164 161 132 114 140 138 135 148 250 263 217 326 346 401 411 436 460 458 446 442 440 449 438 450 425 453 304 318 301 279 277 275 287 281 332 279 245 246 244 240 219 172 204
130 130 130 124 108 135 111 126 129 144 151 136 137 163 180 230 349 332 382 359 387 447 446 424 438 425 449 415 427 480 295 311 288 273 275 273 292 299 309 273 274 243 242 238 234 218 161
128 120 121 144 146 136 150 133 178 152 153 136 188 137 162 173 342 335 375 348 365 443 433 409 436 429 442 430 432 487 310 298 284 273 276 295 291 291 297 325 325 246 244 235 236 236 225
118 134 135 136 142 127 135 117 137 138 139 124 200 146 259 184 234 335 352 358 354 365 380 374 383 446 425 416 428 348 309 295 284 282 276 275 281 292 255 277 268 249 243 243 239 239 234
117 131 126 153 129 150 106 104 120 151 133 168 255 187 210 349 325 331 323 333 324 371 375 359 366 389 354 359 363 303 304 302 282 280 278 276 280 287 268 265 275 309 246 243 244 243 240
129 133 131 144 134 126 153 154 117 125 173 152 132 180 265 144 350 337 311 346 325 385 376 349 353 372 347 344 348 278 270 300 282 274 274 276 276 284 289 268 288 317 238 242 245 243 246
130 120 136 136 152 141 124 126 127 166 145 163 147 185 172 134 352 327 323 311 314 320 355 345 324 348 361 330 341 286 281 270 292 280 277 273 281 274 295 286 282 308 318 236 240 245 247
119 120 151 168 112 113 151 147 145 173 161 152 152 137 253 184 244 341 323 306 325 318 324 331 323 315 348 335 317 304 279 311 288 293 283 279 274 285 275 287 285 272 306 311 234 246 247
132 124 148 168 126 114 118 135 155 123 110 163 152 150 183 191 234 341 327 310 303 321 342 329 318 327 320 346 356 308 290 294 293 286 307 275 283 286 289 286 292 304 247 264 264 270 237
133 125 150 130 134 119 112 140 120 181 167 129 153 161 192 159 203 191 325 315 308 310 319 313 302 325 327 313 328 329 321 293 294 284 288 286 275 275 271 272 286 309 305 313 304 241 260
129 140 128 127 145 127 142 130 150 137 154 182 161 147 176 149 167 235 256 329 311 306 299 313 322 301 313 320 312 342 322 311 308 288 287 275 283 286 285 285 269 247 297 308 318 298 263
134 124 125 133 149 140 131 123 144 155 136 220 142 133 197 203 291 327 309 332 317 305 301 324 314 303 293 334 306 310 328 321 313 308 290 284 274 270 273 291 290 283 328 303 269 269 277
130 117 146 128 128 127 139 149 122 140 151 150 215 157 147 160 251 290 360 326 319 311 299 293 311 302 310 288 284 279 304 308 300 296 304 301 297 291 284 289 304 303 331 331 335 345 325
127 118 138 162 141 126 123 134 144 143 157 145 169 153 138 225 192 351 325 357 320 318 302 291 285 315 303 291 300 283 277 273 286 299 301 303 304 301 293 302 307 297 301 300 306 320 329
158 166 131 157 133 118 145 138 137 141 146 154 145 143 148 239 194 152 157 266 288 321 307 295 289 283 317 302 297 287 283 280 278 270 283 284 280 288 288 291 292 299 297 300 309 310 305
115 120 128 134 140 121 127 140 128 122 152 136 130 138 229 153 142 133 132 146 180 285 330 305 292 289 275 270 309 300 293 286 277 281 271 275 276 276 270 261 274 294 290 290 299 309 297
154 157 123 135 142 127 140 131 150 141 159 136 163 170 233 138 165 120 264 178 158 175 320 315 303 238 287 272 265 264 285 302 304 292 282 278 266 271 257 276 271 264 277 282 282 299 304
156 127 145 152 141 122 118 125 137 139 126 144 119 157 152 146 161 140 221 145 145 149 164 172 312 299 290 281 268 266 266 254 272 279 286 298 292 286 274 280 283 269 272 281 277 277 281
139 164 155 151 142 129 116 147 128 148 117 139 154 143 183 143 240 161 203 144 134 159 314 308 220 308 298 287 278 266 268 268 263 253 279 278 264 283 284 283 282 287 282 273 269 271 271
157 131 155 151 144 111 124 91 127 149 130 129 116 154 147 134 175 284 280 163 136 139 155 324 308 306 279 298 285 278 271 273 265 261 256 250 272 277 262 297 283 293 285 289 290 275 269
154 178 164 148 132 120 115 109 142 132 141 111 119 143 125 159 214 241 158 118 131 385 147 314 320 305 304 299 300 287 273 272 267 265 260 260 257 246 275 269 305 292 283 290 278 274 282
173 161 164 147 126 120 129 110 207 126 126 129 130 121 145 154 116 162 133 137 161 135 143 257 251 304 296 295 295 307 291 282 276 271 268 265 261 254 250 263 279 293 318 275 283 281 277
150 159 145 135 104 123 107 138 132 133 175 163 137 139 129 126 119 241 198 245 123 330 129 340 164 307 300 285 286 293 289 298 297 289 279 270 265 258 256 256 245 245 275 309 279 272 280
163 193 136 141 106 130 117 93 187 141 188 130 143 109 151 160 267 251 232 115 111 124 113 353 328 307 300 289 290 291 287 287 289 294 295 286 268 263 257 252 252 253 248 257 296 280 274

GFSGBSN_2pvu_pres_063.txt.gz
Presure
113 130 130 131 170 155 151 113 111 112 141 124 125 179 170 147 164 270 412 499 480 470 451 429 425 418 429 439 458 184 346 344 302 288 292 284 284 274 261 236 253 259 222 215 208 193 191
118 132 131 143 143 162 135 109 116 141 145 142 148 135 94 201 315 176 388 447 475 489 464 453 446 434 421 422 437 457 354 345 314 282 284 309 284 272 304 241 217 311 246 169 187 233 189
116 130 130 139 145 125 151 121 101 112 114 175 165 182 125 238 300 371 382 460 461 462 462 473 442 428 425 442 447 449 341 334 332 278 279 306 292 311 272 250 224 313 229 222 214 203 193
117 130 128 137 124 157 126 104 98 100 150 124 157 150 118 128 382 351 362 397 467 460 458 438 442 448 454 448 466 450 336 331 328 280 272 286 292 273 276 273 282 264 275 229 224 199 244
129 118 121 135 149 160 122 125 124 113 113 150 125 149 212 243 381 177 350 384 392 454 467 442 453 457 463 460 481 443 342 324 320 311 289 271 293 287 311 309 325 293 353 256 227 218 238
152 117 125 127 115 135 127 117 109 114 169 110 149 152 147 218 352 270 345 361 385 400 445 434 429 448 444 469 407 419 490 311 315 299 281 276 297 279 309 303 294 289 410 251 236 227 215
138 123 132 132 143 140 136 121 126 116 111 152 118 153 147 133 192 219 349 342 393 403 434 443 431 430 461 406 404 421 484 313 307 300 283 288 296 297 305 315 271 348 309 244 240 238 216
134 123 140 127 135 146 124 131 146 109 177 144 149 118 137 171 236 366 349 335 357 402 433 444 446 460 433 401 429 460 345 327 311 295 290 285 285 305 293 305 273 332 260 254 247 245 243
135 143 124 127 142 111 146 151 120 138 127 182 130 170 143 173 214 344 357 336 330 376 369 444 439 420 412 422 443 427 306 312 306 291 286 290 288 289 271 304 305 319 275 253 241 245 245
124 119 120 139 137 129 130 121 102 152 144 145 149 120 160 191 180 252 356 342 329 347 367 365 419 423 434 440 419 395 292 311 300 279 277 277 285 288 286 285 302 256 247 198 247 242 242
125 140 117 132 130 130 135 110 165 153 148 198 133 157 165 169 206 255 346 329 323 343 353 362 367 378 429 401 384 310 264 295 295 181 275 274 307 279 298 288 284 249 253 255 246 227 246
119 146 132 134 135 122 133 127 127 135 153 162 152 154 133 174 244 319 273 349 327 331 343 359 351 355 363 353 327 287 283 288 291 280 278 280 288 287 292 292 291 288 317 260 245 244 255
147 136 115 134 129 129 114 114 127 142 147 184 142 153 200 184 248 248 357 343 324 317 332 354 334 360 350 332 299 299 293 288 277 276 284 290 284 283 267 266 284 253 244 249 287 245 243
144 122 117 135 115 151 139 159 126 145 156 108 167 156 236 177 150 153 298 351 333 315 323 319 349 329 349 340 299 289 293 287 282 283 283 284 290 282 293 276 293 289 293 302 282 243 245
117 146 119 133 126 161 120 155 143 144 161 144 146 138 193 157 156 174 238 164 342 261 312 319 313 360 319 349 295 288 280 298 287 274 293 299 278 294 247 271 282 302 291 288 309 294 245
166 143 115 143 152 132 164 162 149 130 148 151 138 133 166 156 145 227 167 187 169 249 305 319 315 312 351 315 337 298 295 274 286 283 267 269 269 288 283 295 278 277 290 298 312 308 285
161 129 132 141 153 123 135 147 138 134 146 154 166 126 176 163 151 160 162 169 174 150 145 155 251 303 312 332 323 323 307 288 293 288 281 270 291 282 284 290 274 283 287 283 293 301 308
157 153 144 163 141 126 162 153 146 133 144 128 160 126 142 132 135 150 180 157 311 338 164 309 230 229 304 298 315 332 307 310 316 292 275 296 289 249 276 274 302 281 274 271 270 271 287
118 145 142 145 125 126 150 151 130 146 131 151 134 116 130 149 184 153 279 131 256 139 181 149 159 299 321 300 290 311 306 325 308 305 298 293 287 284 268 274 283 272 277 280 292 298 340
149 147 156 163 152 161 134 147 157 135 136 134 144 141 174 135 206 173 173 156 137 159 210 255 152 257 289 305 296 292 282 286 296 310 296 294 298 296 293 292 292 302 297 305 304 291 307
160 164 148 157 122 140 136 143 161 134 125 122 142 131 120 134 170 224 242 143 144 129 274 149 300 154 189 282 299 298 292 285 280 282 283 289 292 303 299 298 298 295 308 305 304 297 305
169 149 133 148 122 159 144 145 139 126 132 132 134 122 160 212 153 166 153 122 131 134 211 142 152 320 298 289 277 273 302 294 286 280 277 279 285 283 279 285 284 287 288 292 290 299 305
135 144 148 125 135 143 160 126 115 132 128 115 146 167 155 171 175 151 194 158 131 252 138 221 137 295 294 299 286 275 275 267 290 298 292 282 274 274 279 271 272 266 268 279 290 284 290
150 142 146 134 144 153 155 133 122 118 115 127 129 189 138 123 129 140 183 175 118 190 129 127 140 140 310 303 293 281 274 269 261 255 265 284 287 294 291 280 277 270 280 275 271 270 263
136 134 130 150 145 155 143 160 145 127 114 142 135 148 119 140 116 157 168 175 181 124 119 334 228 326 308 301 285 287 277 276 264 262 257 251 252 271 278 267 282 288 286 286 270 267 271
139 139 141 124 149 121 141 159 120 132 123 113 145 110 104 122 161 233 166 187 142 116 131 380 358 330 312 306 302 297 291 277 275 267 262 259 253 248 250 284 278 267 256 299 290 289 279
135 141 145 128 152 132 170 111 125 120 132 110 149 146 127 158 148 182 238 163 234 121 111 162 341 344 321 281 299 298 299 293 283 275 270 266 265 258 255 252 247 274 276 255 305 284 288
135 138 143 146 156 143 154 144 137 117 139 149 143 136 165 195 132 222 141 231 164 194 150 111 332 360 159 307 299 294 294 293 292 286 281 277 269 269 264 260 256 252 251 266 264 317 281
136 141 141 153 101 153 154 134 123 118 140 121 145 205 181 120 165 144 141 166 137 146 122 463 418 175 151 315 296 295 288 278 289 291 287 293 287 279 269 264 260 254 254 250 257 271 305

GFSGBSN_2pvu_pres_066.txt.gz
Presure
103 113 119 129 106 147 145 124 122 110 129 104 121 158 154 134 123 265 385 371 420 429 513 471 433 420 408 417 434 447 371 180 343 306 304 307 289 274 248 215 207 202 187 200 134 209 189
106 107 119 125 111 147 150 161 124 105 155 120 121 156 111 134 277 215 384 372 400 424 474 483 472 426 419 414 429 455 482 347 347 320 290 311 295 289 257 235 212 206 209 170 204 157 151
135 116 144 129 127 147 153 132 120 110 106 134 127 143 132 121 271 215 381 371 381 403 442 463 453 473 450 422 419 435 453 342 336 344 304 291 297 292 281 250 232 214 212 221 186 122 146
103 114 139 116 136 141 152 151 111 111 144 109 125 151 138 188 253 165 181 372 366 386 452 458 440 458 450 437 434 428 441 478 331 334 309 287 285 292 283 270 249 226 218 226 153 180 232
109 110 125 128 126 142 154 156 124 107 111 122 150 140 154 127 186 247 352 373 357 379 449 451 463 466 465 459 445 441 443 490 325 289 323 295 275 281 289 280 261 248 226 222 217 161 209
103 110 135 126 123 152 122 149 121 134 153 117 111 136 135 178 224 215 230 375 357 367 457 466 454 441 452 456 459 448 451 438 317 322 321 296 283 275 286 298 276 273 249 88 221 169 190
142 112 137 122 135 138 143 162 155 117 122 161 149 150 188 159 174 209 242 369 356 353 406 464 472 463 452 426 435 431 449 376 316 315 312 305 293 275 323 316 274 268 263 252 228 217 209
129 112 130 137 173 146 154 132 137 134 172 176 117 161 147 97 168 221 186 328 359 352 399 436 487 423 410 404 405 431 441 342 308 312 302 301 300 271 308 306 280 266 265 259 241 224 220
110 157 145 157 143 135 147 134 103 117 138 103 130 166 173 168 225 230 243 330 362 340 385 434 422 415 403 403 424 442 387 314 308 300 293 290 298 285 273 298 289 307 266 256 246 228 245
104 142 126 145 121 130 121 146 128 116 135 144 131 113 182 139 165 187 181 206 239 342 334 398 435 422 439 445 438 482 322 305 304 292 293 284 295 302 312 281 292 273 315 274 266 237 222
126 136 173 150 119 148 135 130 151 168 152 134 125 120 136 212 230 174 146 192 155 165 168 378 397 480 497 459 464 381 305 302 289 286 290 298 304 292 329 292 299 278 311 298 250 245 233
139 134 121 134 137 157 136 131 118 139 152 157 149 144 165 205 148 194 173 193 152 227 350 252 366 348 379 369 380 318 296 303 294 295 295 290 292 306 290 284 301 285 288 317 312 334 272
141 126 106 126 164 125 135 138 143 139 151 132 125 168 183 153 196 178 246 255 161 147 169 319 383 378 362 342 314 302 295 291 281 272 270 294 291 291 285 279 268 291 278 307 315 282 327
159 162 123 152 168 127 136 136 137 131 148 153 128 153 130 145 194 143 175 142 165 172 152 293 338 344 343 345 306 292 284 306 282 285 279 278 284 269 293 291 291 282 282 289 315 278 240
133 133 160 198 136 164 162 161 161 137 156 150 115 169 128 184 128 168 200 156 160 229 156 160 314 339 327 299 313 303 308 313 287 288 289 288 282 297 280 281 307 272 286 279 267 315 249
131 130 127 149 137 146 169 155 144 135 166 128 154 118 159 151 190 193 149 189 226 160 301 141 316 345 347 315 306 294 312 292 285 290 291 278 280 290 283 294 298 304 284 283 294 236 253
182 124 149 181 132 151 146 153 159 138 164 145 140 155 127 169 129 168 198 165 142 140 184 218 273 307 330 336 316 300 276 301 271 284 297 281 287 282 271 284 268 279 283 266 276 294 268
132 126 116 117 149 139 189 158 136 159 145 150 144 157 112 149 116 130 177 173 157 134 272 142 328 316 320 324 333 329 294 284 285 284 273 294 282 289 274 272 307 307 284 285 300 283 271
132 116 140 147 154 156 147 152 132 157 130 156 147 151 155 153 172 178 156 166 223 134 204 267 140 222 255 298 307 346 321 320 285 278 272 275 256 285 284 279 267 259 263 270 272 282 287
117 130 141 119 155 153 140 134 125 158 161 158 144 128 144 149 150 127 174 165 172 131 189 134 277 282 309 301 304 293 320 319 316 309 295 281 278 272 267 276 261 270 290 270 270 276 281
112 113 119 164 227 185 147 127 135 145 149 131 145 138 144 159 123 132 225 183 231 178 138 125 260 308 312 305 248 288 305 299 310 321 313 307 306 297 291 297 298 294 296 301 306 296 306
158 120 139 150 144 142 151 127 154 148 155 154 120 143 125 112 113 111 151 170 110 145 169 123 366 287 323 304 293 193 281 302 293 288 292 304 302 300 298 295 294 291 295 290 283 298 292
137 163 121 152 177 136 145 148 137 151 135 154 129 125 121 118 112 125 190 154 228 225 126 141 168 265 330 312 142 292 284 274 299 289 288 285 277 277 276 283 285 284 291 288 288 293 297
109 232 124 144 135 135 135 130 125 134 136 162 136 130 122 154 143 116 139 146 233 128 129 117 231 365 336 309 230 270 290 280 269 266 275 292 289 287 277 279 276 277 276 274 276 274 280
125 190 137 134 141 135 142 136 126 154 140 133 118 128 136 148 152 148 142 149 166 249 131 452 110 245 352 328 160 247 291 290 280 268 266 259 279 283 281 289 288 283 277 270 270 276 283
221 217 125 135 141 139 134 147 129 149 143 100 131 143 140 156 126 166 144 148 226 165 157 130 448 231 364 329 319 259 296 291 288 277 273 266 259 252 255 262 276 275 271 281 283 282 278
228 123 144 128 134 130 137 117 139 139 149 164 122 143 137 119 126 162 143 126 171 179 203 262 121 439 384 342 164 307 300 297 292 280 277 271 267 261 260 255 255 249 277 280 264 255 291
136 141 140 125 132 136 138 141 147 137 150 134 127 99 130 144 158 118 124 154 172 171 244 270 114 373 137 217 145 315 304 292 291 291 284 275 272 265 265 262 261 257 251 255 271 277 257
139 146 150 133 134 148 139 143 151 149 145 135 125 152 155 112 193 164 116 238 153 143 163 271 281 117 441 177 141 210 304 299 291 292 294 286 276 275 272 269 266 270 262 255 252 245 263

GFSGBSN_2pvu_pres_069.txt.gz
Presure
107 103 109 131 110 123 143 139 128 126 116 131 110 106 115 116 118 119 196 341 393 381 427 490 503 446 428 423 427 444 470 74 155 326 322 299 323 308 278 256 245 211 190 177 199 164 144
104 109 111 111 124 125 184 139 128 137 115 115 121 170 131 138 175 186 176 341 389 386 441 472 476 456 422 418 416 416 434 459 340 340 291 329 313 316 305 268 249 234 197 164 186 208 160
158 133 110 120 131 114 155 174 150 159 121 152 118 129 172 176 115 176 226 214 387 388 418 474 463 458 451 420 405 415 424 446 349 330 347 284 288 307 307 281 255 242 223 199 200 189 139
133 107 147 128 131 128 162 135 169 128 161 162 187 123 122 124 153 188 175 237 350 390 418 485 469 469 472 461 415 421 416 442 374 330 328 305 281 289 303 291 269 251 236 204 198 190 193
133 124 135 130 158 124 146 168 153 134 162 143 110 116 129 179 188 178 159 220 165 230 190 500 465 458 478 459 450 442 421 449 459 333 327 325 278 283 294 288 282 263 245 222 202 198 194
137 121 125 102 123 119 144 143 126 142 112 99 144 113 127 132 119 192 164 160 163 183 400 478 480 457 466 473 460 441 435 453 491 341 307 328 316 274 289 293 292 272 257 235 206 94 193
117 140 125 102 151 118 129 157 141 170 170 149 104 101 166 157 157 171 188 152 154 275 393 434 420 427 408 415 474 461 439 447 433 343 316 315 318 284 282 284 282 267 254 237 224 201 187
98 122 143 102 141 123 160 131 145 161 150 103 153 130 137 117 161 176 187 153 157 264 358 444 425 422 422 405 427 440 439 441 387 339 309 318 334 310 282 286 282 264 259 250 236 220 208
133 127 133 147 128 145 115 135 146 157 131 145 134 160 108 142 138 163 188 152 216 343 362 402 397 366 434 422 422 455 479 397 355 320 304 315 314 311 293 274 279 274 261 256 245 233 218
123 124 117 146 141 133 119 186 151 146 155 127 146 134 161 185 151 177 136 139 154 315 188 399 385 439 468 451 445 435 393 355 326 306 302 305 315 312 297 273 274 274 268 262 255 244 232
121 124 125 132 137 149 128 144 159 146 158 125 141 126 135 136 138 170 147 171 194 177 151 367 386 426 448 500 502 415 364 332 304 300 301 304 308 312 304 282 264 271 275 271 269 255 243
131 117 118 127 140 164 132 131 160 150 132 129 138 125 116 127 130 167 169 232 183 167 155 358 379 389 407 457 404 334 306 308 303 298 305 298 306 309 300 316 310 269 273 283 281 267 259
121 131 131 122 141 184 119 113 130 138 157 131 146 123 129 149 140 150 169 165 185 262 306 345 352 371 378 334 313 319 303 296 293 284 299 300 302 310 311 295 280 273 286 268 268 270 261
124 121 135 131 142 147 127 130 137 149 161 165 166 170 134 116 120 170 161 181 157 145 270 120 341 355 368 335 306 289 302 297 307 304 289 292 298 297 310 307 307 261 263 258 297 257 274
118 131 134 134 136 126 199 139 137 145 117 156 168 149 129 121 145 131 149 169 176 164 159 183 141 172 380 334 321 292 308 305 260 298 310 292 297 308 303 309 299 279 288 298 297 261 285
118 117 136 119 148 131 131 124 136 193 156 140 167 153 150 125 130 163 165 165 183 142 249 134 303 254 368 334 309 308 311 305 292 276 289 289 292 296 285 277 291 304 292 269 272 291 272
114 128 158 178 140 115 121 127 190 136 141 155 140 164 148 126 138 129 124 166 164 200 128 142 157 340 318 357 328 325 299 291 298 283 242 283 261 289 284 286 279 291 305 283 269 266 289
117 194 127 133 170 126 130 125 163 142 141 144 159 158 150 172 117 130 130 201 156 193 240 226 126 338 330 309 341 330 313 306 289 282 289 292 272 289 268 280 290 271 272 283 300 280 274
183 119 134 130 133 114 128 147 164 148 152 143 155 145 145 140 140 138 169 203 173 182 163 164 124 238 336 316 301 329 326 307 293 295 291 288 279 273 287 256 291 261 264 270 281 290 290
158 153 134 132 130 151 127 178 209 149 140 134 157 143 146 174 128 132 128 143 143 159 194 200 126 118 337 323 281 293 339 314 303 296 298 274 289 283 278 264 277 270 280 263 260 268 269
136 166 166 128 152 143 120 133 233 145 142 129 149 145 147 144 139 133 140 176 171 187 212 212 127 335 167 326 298 166 289 339 320 301 304 290 285 283 279 261 274 274 260 270 280 272 277
137 150 139 116 219 123 118 172 227 142 138 122 149 157 158 121 142 107 116 112 155 178 212 142 126 106 113 338 323 305 185 285 290 316 315 315 308 302 299 295 293 290 291 295 308 307 306
144 206 203 141 112 121 225 236 146 144 150 150 127 148 152 144 155 142 130 201 177 144 162 212 140 123 384 357 327 204 300 290 279 290 295 296 304 309 314 305 302 296 296 295 298 303 303
221 191 137 178 145 126 212 143 147 142 148 154 143 122 152 152 131 130 147 165 193 187 195 160 250 345 126 363 347 318 298 293 288 276 276 287 288 282 280 280 284 271 287 282 289 290 290
198 218 225 124 224 126 153 136 144 137 142 152 146 136 158 149 130 136 109 123 152 128 172 187 190 137 185 117 148 245 183 302 289 286 274 272 264 288 288 290 280 276 278 274 274 288 265
227 234 232 158 146 188 189 125 131 144 143 145 141 139 154 134 142 141 157 143 204 158 186 141 233 243 180 227 150 142 145 278 296 287 283 273 269 266 258 276 268 272 280 281 286 288 275
228 197 183 229 209 213 137 148 139 136 133 131 156 155 132 157 107 126 142 152 192 157 190 149 154 231 238 229 241 368 316 204 272 291 286 279 262 264 265 259 260 262 265 267 280 276 265
114 201 205 205 127 236 146 134 148 135 150 109 145 147 119 157 123 149 121 162 154 148 150 212 166 203 213 184 274 130 351 322 157 294 295 284 275 272 272 267 262 271 262 254 252 247 277
252 122 204 238 128 141 137 124 142 133 143 148 150 123 128 119 142 115 148 111 143 188 170 134 147 145 195 290 365 117 137 191 149 151 292 289 289 281 276 271 266 263 265 264 263 255 254

GFSGBSN_2pvu_pres_072.txt.gz
Presure
108 110 101 138 107 116 113 111 168 155 137 109 145 167 120 114 170 111 165 114 232 172 346 478 488 491 432 436 424 415 426 353 352 333 255 305 323 300 285 263 235 212 189 244 99 199 122
109 104 112 140 157 119 112 132 136 168 161 143 151 144 138 130 110 151 137 141 207 157 348 521 494 488 443 424 419 417 419 354 344 341 225 309 303 318 297 277 242 224 204 195 160 246 136
109 125 149 107 135 140 116 117 161 146 171 126 140 132 102 150 125 125 180 135 200 166 164 421 506 489 493 426 411 412 420 431 348 341 329 290 295 315 310 280 261 234 219 205 239 179 226
106 109 104 121 131 103 111 132 181 139 170 124 167 100 124 152 156 153 132 142 174 298 343 408 451 466 516 462 422 402 414 425 387 340 336 313 292 299 316 305 270 246 237 221 230 199 184
115 122 109 120 135 127 149 132 138 177 142 119 124 149 131 102 138 141 129 176 182 217 333 273 445 445 432 512 453 408 398 408 439 359 334 321 289 300 282 312 286 261 245 241 214 247 192
108 104 124 122 112 140 144 127 168 140 129 154 132 173 133 109 117 136 165 142 230 154 185 393 436 439 422 427 478 456 413 405 425 363 338 309 306 323 280 312 313 285 125 249 207 231 178
122 155 138 133 119 134 113 149 112 161 151 172 168 110 136 178 152 136 173 190 141 228 152 157 405 454 421 426 482 452 453 434 435 398 340 317 321 283 345 281 304 291 262 252 243 74 227
128 133 126 118 138 137 141 136 116 154 155 162 137 158 141 141 146 128 124 164 172 211 315 153 397 462 434 430 450 460 450 416 393 403 346 319 300 310 281 275 297 294 287 261 249 237 234
121 128 123 131 127 139 135 110 118 155 166 156 128 122 101 120 131 137 131 181 165 197 190 381 399 458 450 432 441 410 449 385 374 381 346 314 313 330 274 277 280 294 301 272 258 245 237
126 126 123 125 127 126 139 148 189 136 135 142 149 146 123 130 141 122 125 163 178 218 204 374 402 474 486 433 456 400 412 396 389 362 328 311 311 321 284 268 275 283 317 278 266 257 241
124 127 123 124 113 123 119 115 185 140 118 151 129 152 173 128 138 120 124 147 185 177 277 290 146 394 467 391 377 380 383 405 386 333 311 303 308 319 304 293 267 275 281 281 272 265 250
123 124 120 119 134 133 135 142 142 164 153 137 165 139 160 126 164 162 133 147 137 175 200 144 134 223 450 313 327 363 394 388 342 319 311 309 305 321 312 301 292 275 275 276 277 272 266
126 128 119 130 132 138 139 141 123 188 136 122 158 159 176 147 120 125 118 179 139 154 197 139 139 363 335 345 330 294 324 307 316 310 306 256 305 303 311 303 282 265 268 276 283 273 265
121 125 118 129 131 135 138 141 145 136 140 206 148 155 159 142 116 184 123 129 159 195 172 228 152 148 329 339 329 297 281 308 293 306 302 306 308 322 211 305 288 280 266 281 270 264 256
130 126 123 126 144 136 137 137 143 134 136 210 106 149 136 164 191 116 167 131 140 129 164 162 308 130 151 320 316 312 298 277 319 311 311 315 306 307 303 300 324 292 199 259 301 263 263
172 129 124 126 127 127 189 140 139 126 131 163 151 142 156 125 135 138 144 160 197 168 160 203 203 183 124 330 315 312 304 310 310 287 302 287 307 300 301 322 298 280 291 307 257 255 260
127 113 121 128 124 159 167 132 138 134 134 209 152 135 168 158 160 122 109 149 124 163 171 176 169 222 204 331 316 307 296 310 306 311 312 290 285 272 293 300 296 216 286 286 261 267 253
127 127 134 132 122 127 138 150 120 166 134 214 133 152 145 165 169 120 142 121 110 188 116 185 176 355 148 341 319 265 307 301 292 302 271 294 305 286 268 292 288 277 286 284 278 274 270
136 125 126 125 127 141 167 131 135 121 135 210 151 125 152 166 139 124 139 180 184 119 168 188 166 143 114 342 341 329 315 295 305 292 295 283 270 277 278 257 289 275 272 273 273 284 301
132 154 160 132 161 163 141 125 148 151 134 166 154 111 142 139 164 147 108 147 144 192 147 206 172 189 111 350 213 319 348 317 304 298 292 295 285 285 281 265 269 265 269 265 266 258 267
195 136 176 206 150 204 146 147 125 130 141 199 157 151 158 134 160 118 156 136 127 130 159 197 167 252 393 125 339 324 303 299 324 308 306 289 287 281 275 274 287 272 258 275 268 257 270
220 203 202 184 202 141 179 147 126 152 188 223 155 136 155 141 148 121 134 126 151 174 142 161 173 205 177 379 348 329 155 303 297 333 318 305 292 291 292 294 286 258 274 277 271 273 281
158 135 186 146 187 168 204 192 134 152 167 233 151 142 150 142 150 125 121 107 146 149 136 180 158 207 312 321 249 247 323 149 157 297 334 310 312 303 303 301 301 297 294 296 294 295 303
176 224 201 167 160 139 183 183 146 147 154 158 145 139 149 150 158 126 106 139 165 125 146 216 156 164 250 200 380 315 148 133 275 292 291 287 305 298 312 309 309 305 300 303 301 301 302
227 198 192 170 142 196 198 194 135 187 157 156 134 142 149 152 144 159 120 140 122 162 137 180 164 224 147 298 268 397 346 189 163 304 289 282 280 280 285 284 279 283 290 273 274 288 273
221 198 193 185 145 150 205 224 130 140 241 151 146 176 151 155 201 161 142 129 161 143 165 148 150 152 164 142 157 400 368 343 212 311 155 289 278 272 287 278 281 280 283 286 285 286 278
203 153 168 204 206 175 221 227 172 173 213 135 149 127 148 154 156 136 125 124 147 110 147 113 202 158 187 164 284 194 393 369 131 134 141 151 200 274 268 262 267 279 279 273 278 271 266
215 192 200 150 212 166 173 220 202 239 191 142 144 127 144 125 138 136 134 146 171 146 131 146 153 123 186 153 218 226 358 212 347 162 134 135 268 157 211 270 267 266 264 262 251 257 260
154 230 230 143 139 124 174 236 152 234 137 152 154 149 137 160 118 144 110 166 164 141 169 135 111 135 196 158 176 267 327 418 372 338 117 295 139 294 157 279 269 266 263 258 257 258 254

GFSGBSN_2pvu_pres_075.txt.gz
Presure
107 108 111 109 103 109 107 126 113 119 124 133 154 183 178 128 122 134 116 138 128 131 225 237 343 472 512 445 460 414 399 433 385 356 351 314 326 319 295 283 258 241 233 207 185 172 171
128 125 109 109 103 104 116 127 141 153 121 157 153 191 166 124 136 110 154 137 139 147 150 400 397 165 269 449 464 413 398 422 384 352 351 329 310 335 296 288 271 237 221 230 228 185 183
122 106 108 112 112 107 115 116 125 154 108 135 120 195 175 145 128 117 141 139 144 134 159 191 316 413 192 458 427 422 398 403 402 353 346 339 309 335 304 287 279 251 239 230 225 196 206
127 110 108 104 111 114 114 127 130 126 116 140 160 112 114 111 151 132 150 143 129 132 146 219 390 428 150 544 431 407 409 400 415 360 340 337 321 314 306 292 285 264 239 231 248 200 191
123 121 101 114 107 137 126 124 131 121 160 132 145 173 188 179 195 109 141 135 164 135 133 294 393 429 442 463 434 414 399 406 412 364 338 330 323 301 307 300 282 268 267 238 224 211 195
117 118 117 120 108 128 128 134 132 141 170 127 139 151 192 178 154 148 130 131 124 135 148 320 336 179 450 467 490 407 401 415 412 366 336 322 324 323 312 312 285 272 270 249 242 235 195
116 117 117 120 121 110 125 136 130 142 126 170 142 187 183 118 159 126 130 149 132 132 224 305 327 462 150 441 481 427 401 399 412 363 341 320 313 332 295 305 314 265 263 262 235 240 218
119 117 117 125 127 132 136 130 136 135 151 173 183 141 142 177 128 133 142 136 135 132 195 202 389 137 134 442 474 455 420 395 405 420 344 321 303 320 343 287 305 299 270 267 253 231 235
118 121 122 134 131 131 126 126 118 132 131 150 151 142 166 212 177 121 138 113 141 131 133 192 437 469 416 423 461 461 453 410 417 416 349 320 309 304 316 283 288 304 277 263 261 245 164
118 120 121 125 131 132 126 124 121 116 142 130 173 152 176 199 188 151 128 133 127 138 126 143 372 157 169 421 463 395 384 399 412 397 346 322 310 305 300 317 263 277 319 276 260 257 240
119 121 113 118 126 134 124 119 135 142 143 132 152 149 152 159 156 131 154 134 157 161 176 127 226 232 129 340 394 368 372 359 377 352 370 328 306 309 299 336 286 270 287 291 275 259 254
122 121 123 117 129 129 123 130 130 141 146 141 146 182 148 156 191 116 137 162 129 121 122 200 248 344 271 276 355 286 375 361 378 379 340 321 306 309 303 288 318 276 268 294 296 284 260
120 130 126 115 129 120 124 135 133 137 140 193 136 148 144 136 175 143 136 140 151 160 152 172 203 367 141 364 310 373 399 376 417 372 337 306 296 313 325 286 281 314 268 284 297 294 278
130 124 126 123 132 123 125 132 133 134 140 138 129 141 161 164 163 142 139 141 148 146 121 180 217 313 152 161 327 306 356 291 328 319 314 309 318 315 326 295 272 296 269 266 273 294 291
122 143 126 128 135 129 128 127 127 133 142 144 127 149 165 220 159 156 127 119 136 113 133 115 189 176 263 317 337 295 326 314 317 313 310 289 292 306 306 298 292 278 258 266 270 280 282
188 124 125 173 138 130 126 125 133 136 141 146 131 132 191 142 166 126 142 141 135 145 150 178 197 201 135 124 341 328 311 326 318 303 314 301 278 298 297 304 317 285 283 300 274 268 272
220 128 128 209 147 132 127 133 127 136 151 149 181 137 156 149 164 139 155 161 132 139 142 158 162 177 111 210 329 258 311 294 291 291 307 296 315 313 312 306 310 300 299 315 264 257 266
190 133 136 143 134 162 131 131 132 161 129 153 131 144 145 141 159 159 121 149 150 130 151 171 242 166 371 124 333 321 314 306 288 294 282 316 280 305 300 317 304 291 296 297 288 292 289
204 134 179 224 136 142 146 140 132 135 140 127 193 145 149 124 142 158 121 123 130 122 130 195 125 200 172 289 342 260 319 307 299 289 289 282 291 293 282 245 284 292 292 297 302 300 285
165 194 136 136 139 134 174 131 134 138 144 143 191 163 151 161 130 159 139 130 124 150 194 150 212 162 169 305 299 325 331 146 309 298 293 283 279 287 276 273 278 272 271 278 278 275 278
202 138 120 127 137 134 132 129 203 121 147 135 141 167 206 163 111 153 136 118 169 137 156 159 196 154 181 139 209 292 331 260 135 155 300 297 290 271 281 275 265 265 281 278 276 267 266
203 151 126 199 134 164 175 130 140 143 113 204 152 213 196 149 149 151 164 128 176 124 195 147 125 174 151 296 186 265 344 328 143 143 320 307 295 292 269 281 275 269 276 271 271 270 273
194 152 207 141 170 143 167 197 139 173 152 143 154 164 204 149 144 156 144 175 125 153 132 149 120 173 190 247 180 297 348 338 325 138 300 325 311 304 294 289 287 279 259 271 267 275 275
200 195 144 239 193 148 149 162 202 178 170 153 201 203 175 157 153 177 136 117 113 144 153 173 182 195 165 166 212 187 246 345 332 259 228 149 277 331 313 308 305 299 295 289 278 291 287
145 201 232 214 145 129 211 147 148 186 138 160 155 223 159 158 135 159 119 120 162 108 126 119 191 144 170 159 169 323 426 253 346 333 283 129 147 145 301 296 314 311 306 313 311 305 298
201 202 207 238 137 211 141 215 180 125 175 211 226 190 207 123 144 145 124 151 116 144 114 136 102 125 109 120 128 169 211 300 273 326 333 275 134 132 142 138 285 279 290 292 301 305 276
177 204 169 239 223 198 143 217 190 192 200 215 217 150 215 155 152 149 127 114 146 159 150 111 140 140 178 183 160 139 271 367 317 376 347 303 316 142 283 283 147 272 284 283 286 279 277
134 207 230 231 174 189 169 143 191 203 211 202 231 216 231 156 149 158 144 128 108 117 127 153 150 166 162 158 123 192 271 177 218 396 232 338 322 149 238 291 251 150 274 272 278 274 277
214 211 222 235 142 205 145 208 203 135 227 225 142 238 231 153 155 146 192 135 137 141 167 159 125 155 116 115 186 167 246 273 332 184 226 289 319 312 159 300 287 279 250 267 268 260 260

GFSGBSN_2pvu_pres_078.txt.gz
Presure
117 130 140 119 110 115 105 105 106 133 138 136 115 136 121 121 166 181 108 149 130 146 141 126 143 205 186 479 448 425 408 243 459 409 366 355 332 361 316 295 300 287 280 262 251 179 194
120 119 123 155 110 113 107 105 109 132 130 138 108 158 108 110 121 166 189 148 146 145 129 141 141 154 343 513 361 327 403 388 410 402 375 351 346 329 320 293 286 297 280 271 252 250 182
126 177 127 127 122 121 112 119 104 136 119 139 140 135 127 145 193 198 165 121 156 147 153 138 151 153 386 423 155 401 398 385 394 406 385 339 369 325 91 306 299 287 278 270 252 252 237
135 182 120 122 123 113 105 113 105 135 123 122 132 156 114 103 176 185 195 209 133 149 140 147 218 279 338 189 142 412 410 393 388 406 426 334 342 324 329 314 295 290 267 300 261 240 212
189 124 151 125 126 115 112 110 115 140 129 133 146 153 138 156 147 175 208 150 152 142 151 170 143 135 272 460 276 438 397 391 396 406 417 327 335 325 312 305 291 298 279 270 264 248 230
193 128 147 126 131 124 114 110 122 127 129 139 136 133 161 141 159 186 144 137 141 144 136 167 135 497 196 466 508 421 416 395 389 396 363 326 323 331 318 294 303 293 283 277 262 249 236
203 129 126 127 132 125 122 103 126 126 139 133 134 128 188 161 177 171 210 154 133 158 156 125 131 138 367 409 283 422 409 393 401 391 373 319 324 353 305 336 293 285 280 268 252 247 234
195 150 124 126 192 125 121 119 126 135 128 125 132 134 124 146 121 182 167 219 138 135 136 135 146 138 367 389 177 422 413 404 414 404 366 319 309 318 319 285 299 285 286 264 261 249 246
160 188 128 140 128 122 123 149 123 133 127 123 116 135 127 171 147 158 147 162 144 129 154 143 138 217 148 125 492 439 412 406 398 402 362 315 303 314 316 294 326 325 292 273 261 252 227
193 147 173 145 128 124 125 199 124 136 128 129 139 154 147 140 165 173 220 134 136 159 157 162 166 180 223 340 374 484 438 406 394 398 359 310 311 331 316 324 286 313 291 268 263 255 250
117 131 151 125 132 127 125 109 133 135 128 135 141 140 152 141 162 159 147 145 158 151 151 116 202 314 371 126 363 401 386 444 418 417 344 295 300 304 326 331 287 351 290 277 266 256 254
187 126 182 128 125 125 129 123 132 133 123 137 110 130 134 149 140 187 154 145 130 151 122 149 169 223 342 260 334 253 373 361 407 388 318 296 295 316 321 276 283 342 292 289 264 265 266
238 165 133 119 123 126 127 123 134 131 131 146 144 136 132 138 143 192 199 135 141 110 139 129 154 175 270 172 257 314 367 355 348 349 328 299 302 304 310 303 333 278 303 290 294 285 266
172 271 123 118 117 124 127 121 136 133 134 136 128 132 151 138 144 150 188 157 136 158 145 156 162 150 374 318 336 321 413 384 349 390 327 302 299 327 312 299 290 325 276 280 288 290 256
178 271 118 129 116 118 126 127 137 132 132 135 146 121 152 135 156 202 144 185 155 132 134 118 136 145 202 347 274 314 309 394 361 404 335 317 313 312 304 296 291 320 318 308 273 282 290
300 182 235 126 128 129 136 127 179 141 128 137 138 141 157 155 159 143 187 131 148 134 123 122 158 138 170 342 234 329 311 321 329 326 317 293 311 308 301 298 293 279 306 306 319 274 281
235 240 253 181 135 124 151 126 136 137 137 138 129 149 134 151 151 157 180 215 152 182 143 138 170 155 228 156 247 348 305 232 321 284 298 301 280 293 293 315 311 295 281 282 294 269 275
199 214 204 193 189 134 168 128 142 129 136 138 125 116 154 139 196 161 228 167 160 161 129 148 126 180 172 152 149 331 128 317 141 277 294 314 298 298 299 299 305 303 302 307 263 315 309
187 197 207 205 232 145 147 135 136 147 141 131 155 140 147 184 158 157 196 170 141 150 126 181 165 131 182 141 291 344 334 322 303 140 152 294 293 298 308 303 305 306 312 307 289 265 256
202 212 214 255 194 204 194 134 139 140 149 137 137 145 127 153 140 187 184 156 163 127 147 155 137 161 169 168 154 226 270 328 322 309 143 239 290 294 287 299 302 298 297 310 298 317 296
207 213 194 205 201 211 203 134 145 141 135 132 134 137 155 198 161 196 164 162 141 121 180 111 140 119 162 186 146 331 206 302 328 319 313 276 275 287 285 283 277 285 287 292 285 291 285
202 198 199 241 227 206 228 136 149 140 124 137 139 138 156 200 156 193 180 162 140 123 179 189 146 192 152 131 193 145 125 358 245 324 117 315 149 255 278 271 276 275 278 276 282 279 273
260 186 223 213 205 137 190 140 139 135 130 139 209 171 173 197 198 230 173 165 161 153 173 130 112 192 160 177 145 218 163 379 360 334 324 335 321 317 145 147 292 275 284 271 266 273 271
235 204 216 165 205 213 229 132 178 129 152 142 157 210 176 158 149 160 137 157 158 122 154 110 131 151 106 153 158 143 232 125 379 349 290 322 310 311 125 136 141 144 294 281 277 274 274
179 249 208 197 211 207 211 225 229 136 142 187 206 146 150 208 168 226 202 138 159 137 130 124 123 123 152 141 167 173 297 214 252 274 165 339 325 307 305 121 218 299 182 287 282 270 274
213 210 220 202 204 219 223 239 216 148 156 200 204 176 195 217 160 198 154 144 175 117 147 138 175 137 162 147 138 137 127 120 207 163 135 351 306 327 310 299 255 331 306 160 241 305 290
204 191 225 213 152 214 235 143 221 214 168 198 214 167 175 162 228 161 151 156 153 147 124 144 172 114 149 164 196 175 229 160 237 325 240 394 260 342 328 310 297 285 285 281 309 155 300
242 191 203 199 213 222 231 178 214 164 157 207 170 196 201 144 212 205 158 205 143 152 128 155 145 143 128 130 151 129 140 170 181 260 269 228 320 186 141 328 303 277 288 284 279 276 274
217 214 199 206 119 237 236 223 218 214 184 218 178 133 213 140 144 179 142 127 158 154 152 104 188 135 173 130 170 149 167 147 218 259 160 239 301 127 374 205 319 286 142 283 280 276 269

GFSGBSN_2pvu_pres_081.txt.gz
Presure
123 188 151 119 179 124 117 121 113 114 111 112 110 135 118 142 125 142 125 145 184 161 238 127 167 135 179 143 143 354 440 143 513 464 413 385 367 358 353 369 324 299 287 214 231 233 202
132 128 164 124 119 121 128 138 117 118 109 110 109 165 117 132 145 118 135 157 176 167 147 179 173 163 141 176 145 453 418 417 451 491 407 387 360 353 343 344 314 298 307 165 168 231 234
132 132 191 140 125 131 126 126 201 167 115 110 113 133 126 140 156 120 136 135 147 186 166 130 178 132 133 387 294 333 396 378 395 441 401 380 357 349 349 341 326 295 301 271 227 264 214
189 109 137 166 128 127 134 134 166 125 115 111 115 158 134 145 141 215 171 168 128 163 143 155 131 153 146 164 498 411 185 393 381 396 405 368 350 347 346 335 350 319 290 293 267 282 230
134 192 145 176 154 164 178 129 128 118 113 111 126 157 141 140 153 159 112 166 198 172 155 162 132 153 144 152 536 187 411 385 382 392 390 376 355 330 348 321 322 301 284 277 296 283 267
189 178 197 179 163 149 128 168 133 134 125 111 123 150 145 134 141 123 161 150 202 126 155 152 154 139 269 182 372 214 411 390 381 363 386 369 345 327 339 350 314 295 284 293 275 269 268
185 172 195 149 135 200 134 127 133 143 127 121 116 172 142 127 136 198 198 163 229 210 151 157 144 165 168 178 128 458 421 399 399 393 396 362 335 320 328 317 306 288 283 282 273 272 276
176 167 202 161 206 147 160 129 137 140 127 127 131 135 129 120 151 121 149 214 202 168 155 123 145 142 151 161 128 454 427 400 391 385 368 373 345 324 353 304 312 286 291 278 279 277 277
299 163 164 203 140 189 196 125 164 133 125 130 110 143 132 135 139 119 176 157 182 182 151 143 168 158 187 154 124 449 439 413 408 380 367 347 315 366 335 316 317 288 279 284 286 271 262
266 304 252 158 123 203 182 143 130 134 125 132 131 141 134 139 155 145 128 178 145 167 160 144 148 136 158 363 230 417 427 416 427 385 365 336 320 315 310 310 336 292 281 282 269 268 272
303 244 218 311 287 147 135 232 142 128 131 129 136 131 137 146 154 124 202 164 193 162 148 140 150 148 146 151 358 392 421 420 419 397 344 329 320 326 349 329 304 286 284 288 296 275 293
252 283 313 198 253 171 193 220 228 134 130 130 136 134 134 149 150 140 176 140 209 153 136 160 149 144 159 159 281 372 436 417 426 358 326 309 306 322 326 334 321 310 166 287 276 279 276
265 350 264 254 307 185 175 152 136 126 130 126 132 138 138 141 148 139 188 178 174 147 162 111 147 135 185 365 299 192 379 177 415 343 322 308 306 302 302 315 332 330 311 285 267 279 280
363 385 327 258 193 207 150 126 206 124 127 124 134 137 136 143 145 159 204 130 199 150 154 128 155 154 143 161 334 389 367 369 390 345 308 302 303 309 309 336 297 314 287 299 274 276 299
558 574 611 379 285 289 238 127 133 118 124 124 133 139 135 145 146 134 156 186 142 148 146 143 145 129 164 145 260 346 137 360 144 320 312 302 263 309 310 317 324 328 287 294 287 355 286
523 557 591 275 207 198 208 163 125 117 123 124 133 145 139 140 149 155 162 180 184 135 143 133 165 157 157 170 150 333 311 403 370 141 319 301 293 310 348 315 307 312 336 290 352 323 307
527 558 519 357 225 289 184 247 119 122 121 169 132 144 147 135 152 136 164 205 183 162 144 132 139 146 156 152 244 154 321 318 388 285 148 310 314 317 308 303 296 301 325 324 276 312 299
478 419 316 259 174 192 185 249 198 131 120 125 133 137 136 146 140 155 147 158 187 163 134 142 141 131 128 122 170 157 331 320 309 304 317 150 297 310 301 298 298 296 298 293 324 343 280
477 298 341 205 174 189 191 241 203 200 120 149 133 136 162 140 118 149 160 163 196 146 147 160 123 126 141 139 149 172 297 300 307 304 299 287 307 296 293 300 299 307 299 297 285 322 315
483 341 353 276 283 207 247 207 226 191 123 133 141 118 135 141 148 150 144 213 228 209 210 150 141 160 140 167 165 269 171 350 137 302 304 117 304 303 304 296 296 308 309 307 321 284 305
343 259 289 258 190 185 194 229 208 205 207 197 140 132 136 137 118 154 154 171 190 143 168 155 147 135 149 129 129 142 232 206 304 338 190 297 289 303 149 187 308 310 301 303 307 308 302
345 303 279 246 247 175 208 204 220 205 212 212 144 220 131 147 118 151 154 220 193 190 145 158 128 125 136 167 117 150 122 141 241 288 336 329 289 290 284 138 136 144 170 293 290 291 291
268 281 281 252 243 183 231 201 211 181 165 138 153 131 137 145 208 173 147 228 173 160 202 154 152 140 119 114 160 143 157 155 256 307 207 334 329 319 292 288 189 178 273 287 284 292 289
263 275 257 218 209 209 195 176 202 216 165 124 143 141 172 145 202 179 147 176 205 191 163 140 191 151 151 152 164 158 149 149 252 118 218 270 237 324 322 316 290 291 216 278 249 208 281
277 269 247 178 201 234 206 217 208 124 215 123 128 141 136 144 140 151 141 141 212 158 167 190 188 129 193 158 103 153 122 125 221 206 311 281 311 311 295 315 331 310 289 281 288 282 157
271 251 217 208 186 212 218 206 217 223 190 217 129 144 133 156 178 195 218 133 228 162 168 135 163 167 101 147 153 165 149 179 164 287 142 253 157 134 337 328 314 307 315 242 317 294 283
245 213 222 196 212 206 220 203 213 218 233 135 188 178 171 210 179 152 192 171 206 146 189 152 163 172 145 124 125 136 196 171 123 182 197 191 292 181 325 125 304 320 306 309 315 293 300
228 238 189 167 187 218 203 215 228 221 226 142 199 210 149 213 130 207 216 238 170 222 149 148 188 164 137 145 142 178 185 127 142 234 256 245 250 149 302 306 122 311 322 313 302 294 288
255 209 217 176 173 208 215 204 216 166 228 211 208 210 196 207 192 211 143 235 139 182 212 148 146 119 188 152 139 101 124 146 132 180 159 232 223 245 254 143 276 291 353 329 312 302 292

GFSGBSN_2pvu_pres_087.txt.gz
Presure
168 178 179 183 187 141 175 127 141 170 157 126 134 143 137 204 111 110 119 129 110 129 157 124 128 153 148 130 141 113 148 143 177 174 171 442 468 443 138 246 235 410 310 276 150 329 323
189 168 173 189 191 171 161 155 178 139 151 167 131 132 135 121 144 110 120 120 121 131 151 129 143 154 224 265 112 187 163 126 149 175 183 444 132 133 404 391 383 351 296 276 298 314 331
216 238 239 230 252 206 144 218 150 172 139 166 131 141 141 141 139 168 179 119 133 146 157 113 134 133 157 171 125 132 142 161 168 177 133 201 414 418 401 394 357 300 295 280 314 313 309
224 299 245 250 314 248 217 229 230 143 170 129 155 170 138 129 127 125 132 123 133 137 116 116 153 141 139 176 172 181 162 189 170 132 451 417 370 389 389 393 341 300 288 282 279 299 297
241 272 257 278 243 286 287 300 197 201 241 170 159 145 140 137 142 175 135 125 135 127 131 120 135 144 210 138 155 146 169 159 145 249 444 414 367 388 377 379 347 299 288 284 323 309 292
244 244 254 230 269 303 146 176 271 187 209 228 145 235 130 141 139 177 131 127 139 121 153 136 130 136 264 184 130 186 179 169 114 369 389 400 358 379 376 356 345 310 296 279 266 313 277
228 230 258 278 243 260 334 242 249 258 283 316 229 143 142 228 143 195 141 129 143 127 159 137 144 197 140 126 172 164 187 124 401 375 357 389 343 335 373 343 320 316 287 284 283 257 273
236 238 327 253 303 234 285 330 207 230 289 277 137 287 144 257 229 141 136 134 171 128 144 132 138 134 190 132 172 150 178 118 398 374 365 375 351 337 378 323 319 310 297 292 279 275 258
232 238 285 282 270 258 306 294 280 329 220 257 240 137 282 256 186 137 127 136 194 138 132 138 176 160 171 176 162 160 149 326 385 385 381 385 348 348 361 315 304 299 289 310 289 281 283
289 298 329 326 345 360 297 275 320 318 322 285 183 207 152 241 215 143 137 128 136 129 139 131 202 151 138 147 149 149 178 429 290 376 373 361 362 344 365 315 301 292 283 281 289 274 286
279 344 345 357 403 424 432 415 336 329 344 351 273 241 187 253 168 135 199 141 146 126 133 256 130 143 165 169 160 164 169 427 397 362 158 350 360 344 343 323 300 286 295 295 275 268 262
322 354 396 426 429 444 455 455 422 297 353 277 252 241 262 252 163 128 138 137 127 145 129 207 190 179 169 129 168 239 165 347 197 368 149 333 334 343 328 327 300 294 282 271 281 281 280
341 399 420 443 460 466 479 501 491 324 355 174 289 283 254 151 167 125 141 132 134 131 130 247 151 156 172 145 163 271 165 167 345 333 146 329 331 347 327 321 299 304 289 268 268 265 276
377 416 435 423 420 437 498 544 576 353 326 239 245 217 255 239 133 128 141 156 129 142 143 134 170 168 163 184 144 159 355 149 255 340 334 230 358 332 318 321 323 292 287 287 271 272 274
410 433 446 432 431 476 485 497 389 345 189 245 281 269 184 143 136 131 137 135 138 136 137 148 156 159 161 127 131 152 134 150 329 321 332 325 368 324 309 322 329 347 281 270 289 276 274
426 451 450 459 534 470 458 484 383 271 251 291 278 267 212 125 134 135 144 132 142 135 140 196 162 132 165 159 169 155 133 148 215 323 313 321 328 316 314 318 337 325 268 279 286 292 287
447 454 488 505 453 455 466 531 345 369 252 247 272 248 125 128 135 140 147 137 139 132 137 175 115 137 150 116 133 155 353 157 136 321 313 318 330 331 299 305 306 317 320 330 278 273 289
440 516 447 434 445 445 461 508 366 251 275 289 136 235 127 129 139 178 137 128 141 136 147 154 207 153 175 162 134 174 149 175 147 329 296 302 312 183 307 308 286 346 303 301 317 279 282
445 505 435 433 424 457 474 339 259 232 247 207 213 234 128 145 140 137 130 131 137 125 152 237 159 207 162 146 155 144 342 128 151 184 303 311 295 299 316 146 222 315 334 300 296 297 309
506 439 431 434 417 441 349 287 237 276 262 250 238 162 126 138 137 130 133 134 135 184 147 199 157 157 128 153 153 159 128 123 236 142 325 193 316 294 314 308 257 147 143 334 326 294 290
541 439 428 432 443 359 256 242 226 268 251 240 227 226 128 140 133 149 136 137 131 132 203 135 148 172 168 143 135 130 184 132 144 155 326 146 319 182 267 309 285 315 264 155 322 326 344
512 468 441 469 285 265 273 277 242 268 244 145 226 215 131 129 134 148 138 142 124 212 241 174 215 166 215 144 118 152 122 143 178 258 137 144 327 140 322 317 139 312 312 317 327 323 313
411 406 420 339 265 295 267 286 275 247 226 232 127 206 195 133 148 131 130 136 136 223 220 196 154 159 206 209 179 140 141 121 161 214 165 132 350 140 339 333 321 186 128 181 301 318 319
404 380 342 331 308 290 283 259 246 237 198 200 209 169 162 140 130 132 139 136 144 206 215 218 167 190 148 149 119 158 149 148 134 153 144 222 235 254 331 275 300 244 334 321 313 317 320
412 360 327 285 290 281 261 243 240 232 205 189 209 240 213 205 144 115 147 221 195 189 134 149 148 200 167 175 144 148 141 130 157 137 247 132 242 155 133 168 223 122 291 304 328 321 311
359 298 289 262 256 251 245 193 227 229 208 187 203 223 183 160 137 140 146 224 143 167 238 218 151 179 164 194 186 203 151 147 124 115 141 134 203 181 170 258 217 273 124 220 134 351 338
300 289 255 268 253 243 221 215 181 218 199 207 203 176 141 145 128 143 200 150 209 240 156 133 152 163 179 196 173 177 180 178 177 147 141 163 154 153 240 203 252 192 217 152 251 270 293
288 275 266 244 255 243 242 233 229 197 204 188 136 211 176 131 171 141 177 150 203 239 229 126 204 192 213 165 186 177 184 208 156 175 136 142 114 158 240 149 118 214 243 214 221 134 262
279 270 249 225 157 236 219 237 215 189 186 222 228 123 225 132 194 140 217 205 155 232 231 239 157 133 192 191 155 177 184 191 161 148 163 136 143 143 158 162 184 210 137 137 237 135 236

GFSGBSN_2pvu_pres_090.txt.gz
Presure
251 156 248 258 214 266 239 216 232 202 196 136 128 154 208 144 177 139 180 115 113 116 130 126 127 137 113 140 125 152 127 168 157 130 133 152 174 168 169 355 436 427 443 378 329 184 327
227 241 228 226 228 235 247 271 269 251 220 230 161 142 174 207 128 133 138 104 116 144 118 129 129 132 136 148 155 160 141 239 237 155 117 128 161 169 446 428 418 410 445 344 324 298 142
250 253 229 211 252 260 254 249 240 269 255 259 146 195 133 145 239 147 144 147 116 133 140 134 136 131 131 150 154 151 159 283 171 150 134 126 179 176 422 329 117 408 383 198 293 290 109
181 183 233 241 252 240 236 265 251 239 274 268 231 225 237 269 228 164 200 145 151 123 128 124 142 119 129 145 151 153 168 138 147 204 191 176 327 420 116 411 432 425 316 301 306 283 275
235 176 245 230 232 240 225 244 251 241 269 275 228 233 220 218 205 224 234 139 136 201 144 131 121 130 150 140 147 124 129 167 148 122 183 200 417 117 377 408 423 349 295 289 282 287 260
228 233 224 207 242 285 265 292 241 266 298 292 258 302 191 235 172 281 168 265 117 127 140 135 112 140 145 150 149 246 193 181 147 149 171 393 300 374 382 408 393 309 297 286 291 273 266
218 246 239 265 224 284 271 202 300 329 301 256 312 280 303 317 160 284 273 149 191 149 118 141 133 131 147 157 151 238 126 134 162 182 398 368 358 386 385 395 315 300 281 299 288 289 262
230 232 234 257 289 272 270 298 327 319 342 329 254 250 142 170 314 260 237 144 259 143 125 135 139 137 149 133 149 152 123 164 163 166 219 365 349 352 391 321 302 289 284 272 270 276 294
225 252 264 299 307 316 324 335 346 347 330 338 340 315 289 277 220 276 254 214 223 146 134 121 138 148 127 152 193 155 130 169 188 159 379 363 157 357 380 337 293 285 274 272 276 281 259
233 317 308 314 311 324 350 379 402 394 363 355 328 335 311 315 291 267 241 255 125 144 145 134 133 133 156 163 187 150 143 226 150 165 380 350 155 355 367 302 294 293 278 286 286 265 256
264 328 318 322 329 356 404 409 411 420 412 365 340 231 299 331 326 279 183 254 126 137 137 153 141 154 146 222 150 157 183 168 278 385 387 343 260 352 377 295 283 275 290 270 319 293 280
278 333 321 343 355 413 441 431 429 444 441 420 265 232 312 325 176 259 160 139 137 144 137 135 139 150 162 155 122 295 164 177 266 384 377 353 264 350 352 313 285 281 271 276 270 306 270
327 330 341 355 407 458 424 423 420 422 458 483 264 354 291 287 259 247 253 133 144 134 135 124 142 159 222 171 125 160 144 190 284 355 363 358 333 347 325 319 293 282 276 268 279 276 269
332 345 347 385 465 424 428 438 443 427 443 266 371 344 261 268 167 251 171 131 138 132 135 139 141 152 170 169 162 128 175 335 184 230 355 358 349 353 325 311 308 300 277 286 262 262 263
350 351 364 475 405 413 466 458 460 481 516 530 368 290 255 249 251 244 153 148 145 132 133 137 149 135 166 129 149 135 150 141 342 340 352 337 350 332 313 311 311 311 285 286 277 273 270
358 363 398 444 403 421 494 477 470 471 516 368 357 265 264 238 250 163 148 139 178 134 144 131 149 158 202 139 148 170 147 309 184 348 368 333 345 324 316 304 288 291 279 294 276 284 278
355 381 467 442 435 474 467 462 462 490 471 269 283 272 260 251 202 159 138 139 132 136 135 136 154 134 228 157 175 171 132 188 252 147 335 330 319 193 342 323 295 284 279 282 285 267 276
383 447 470 440 469 437 438 453 472 425 272 143 276 265 215 243 212 142 139 223 138 142 126 134 143 164 166 187 166 174 170 286 166 146 151 328 314 312 138 205 325 322 294 296 278 259 268
409 475 468 527 418 423 447 468 219 299 291 252 245 263 245 145 152 140 194 132 150 132 131 140 141 127 174 152 164 164 144 297 150 147 151 271 140 325 313 223 132 134 305 287 286 278 276
483 488 497 432 426 463 435 471 279 261 256 194 265 251 237 141 176 158 145 140 137 132 136 148 152 150 156 132 131 118 160 149 145 166 148 137 232 339 316 329 320 315 306 132 315 301 283
519 558 514 431 424 442 442 321 275 270 133 234 253 125 132 139 149 140 148 145 139 133 128 144 207 170 206 159 132 188 181 174 190 306 142 222 333 336 190 325 193 183 336 351 358 303 296
600 572 455 427 427 393 304 273 275 266 261 249 244 173 125 134 141 137 135 150 134 139 130 231 156 161 136 168 168 140 176 175 148 246 149 295 156 130 146 212 334 330 323 334 339 369 362
512 468 436 414 437 301 284 280 264 256 250 250 238 135 155 213 140 146 150 144 138 175 228 152 183 159 137 154 170 165 136 127 129 148 250 147 137 144 152 199 198 284 136 346 226 327 326
483 340 395 330 297 278 280 268 210 261 254 210 228 183 144 137 135 149 140 141 137 167 225 138 141 163 154 172 155 169 171 158 152 122 203 221 146 169 261 154 167 133 319 283 349 226 342
472 375 319 293 296 280 244 215 252 245 243 240 223 204 214 131 216 145 135 146 133 142 207 218 213 156 150 150 210 107 171 182 156 131 150 145 167 166 205 194 163 124 175 134 282 146 277
360 375 276 304 256 266 255 235 242 243 243 234 228 191 135 141 221 179 131 131 130 233 142 217 213 206 142 197 155 213 206 181 167 172 183 147 202 204 160 255 255 155 164 250 135 146 120
389 311 305 253 264 254 253 251 243 242 181 184 188 207 154 166 131 177 137 156 141 234 223 216 209 203 142 158 151 165 179 170 172 182 120 149 169 144 205 136 204 244 138 234 162 196 249
300 296 275 269 242 255 250 241 243 229 228 193 190 204 191 148 141 173 131 186 153 234 160 178 191 166 205 127 199 149 146 185 185 134 190 146 166 124 145 159 154 231 137 174 127 200 253
308 278 268 230 152 244 248 236 234 220 213 181 187 213 200 142 198 128 157 209 166 238 246 222 214 169 207 135 180 179 143 187 141 162 191 172 147 145 142 157 161 211 132 126 140 232 227

GFSGBSN_2pvu_pres_093.txt.gz
Presure
167 216 234 243 171 236 241 241 250 255 254 260 253 282 242 265 244 179 206 148 237 126 125 119 106 147 113 129 165 147 152 206 171 124 150 166 185 176 136 141 141 147 141 139 143 150 162
216 148 245 222 235 223 241 248 253 270 243 252 256 285 252 296 279 174 156 153 230 154 149 139 145 156 124 149 139 128 194 126 139 128 161 164 174 141 134 134 129 135 137 167 300 410 356
217 174 226 234 169 244 248 242 250 268 259 299 208 227 265 256 256 266 225 151 190 344 147 111 125 122 126 139 141 128 149 156 141 126 138 164 284 201 196 156 131 147 437 427 449 407 355
210 212 231 183 240 181 234 245 277 276 243 262 263 284 292 262 276 235 275 349 233 154 280 119 148 143 147 125 175 145 141 137 152 169 148 154 175 180 176 153 219 400 414 425 163 345 340
195 204 232 209 242 250 255 269 281 312 311 324 306 299 248 270 266 285 283 141 232 225 122 154 122 132 148 148 194 147 143 156 155 160 173 140 185 175 177 388 405 421 436 369 332 305 309
179 225 216 230 248 246 245 283 342 331 323 328 322 245 246 271 311 291 302 187 265 171 275 156 216 133 129 144 126 155 144 149 171 192 138 133 172 154 383 398 404 423 356 334 311 300 301
227 229 249 244 257 256 282 345 347 336 320 315 322 316 332 337 304 323 269 267 329 157 152 187 146 147 132 265 151 133 165 163 134 135 189 128 152 169 378 399 410 361 322 303 286 275 297
217 221 175 252 262 279 339 350 331 331 327 321 335 326 340 359 348 321 270 336 303 235 150 233 134 182 153 136 142 148 164 176 139 125 176 168 305 371 398 407 360 326 307 298 290 287 272
231 238 257 269 261 297 322 339 336 343 350 360 362 364 359 359 354 307 330 305 262 203 134 201 141 155 222 141 146 163 157 141 139 194 173 296 363 366 398 224 322 295 298 289 277 272 264
240 223 260 265 271 314 320 352 361 382 427 429 414 416 391 367 353 260 299 185 176 187 257 183 242 159 118 143 154 158 157 172 149 162 186 330 371 362 367 323 305 294 286 286 278 276 262
243 251 273 265 313 335 357 360 445 448 446 427 414 409 403 374 331 277 276 235 153 201 263 148 145 198 154 144 163 173 156 178 158 173 166 359 362 360 330 303 292 289 289 288 271 287 264
248 275 294 292 338 357 366 458 438 401 387 413 444 421 423 383 299 286 266 189 242 142 167 132 223 129 144 152 151 133 124 154 217 162 373 352 353 359 315 304 289 281 278 271 281 274 267
269 293 291 336 357 370 454 389 413 386 400 418 467 463 435 265 302 265 266 248 149 198 155 252 143 148 148 149 154 144 178 137 173 236 366 343 342 354 310 296 286 290 271 271 267 273 266
304 293 303 362 376 424 427 403 420 401 411 464 488 477 189 315 268 262 151 240 257 141 156 155 157 140 156 162 184 137 189 184 172 380 364 345 342 342 297 289 269 277 289 288 274 293 279
322 296 368 391 428 465 418 405 403 464 491 486 491 266 298 221 262 246 245 244 217 198 166 156 148 143 157 139 146 171 150 217 149 157 349 345 340 332 274 295 286 275 270 269 259 261 264
304 373 409 453 451 440 405 402 476 451 457 475 390 212 257 231 248 243 245 189 157 144 154 138 149 152 156 154 166 142 150 180 140 159 344 340 339 165 295 292 285 281 279 270 273 260 260
360 430 495 460 451 411 428 430 441 452 453 327 261 285 268 255 250 249 246 244 147 153 152 157 140 149 165 115 121 137 169 218 151 293 340 334 339 310 134 184 291 302 277 288 290 278 269
420 518 473 464 426 451 439 443 458 469 319 264 277 182 255 252 246 240 152 230 144 148 148 158 148 182 162 210 114 149 150 161 169 142 153 317 340 339 306 234 133 143 281 275 271 272 271
561 542 554 521 455 434 425 434 447 307 275 282 257 261 252 254 244 190 135 157 147 148 154 150 150 185 165 167 176 160 186 128 174 258 175 155 208 146 328 352 310 292 289 291 286 277 274
436 554 547 447 457 422 430 320 290 277 269 272 244 242 245 199 233 133 138 147 237 154 140 138 183 158 171 240 131 176 163 203 154 201 148 127 137 242 347 316 324 334 322 316 309 295 282
423 452 439 435 443 419 316 290 282 259 265 255 231 214 245 148 156 136 135 142 140 150 147 133 157 182 142 165 151 214 173 147 141 141 168 282 143 127 202 247 126 139 170 301 309 318 309
443 420 423 438 437 318 297 279 271 264 256 255 150 246 169 224 137 139 142 146 143 147 141 129 208 223 194 159 173 172 131 172 179 156 113 216 134 137 146 138 155 350 131 314 306 299 309
452 246 255 362 309 287 274 269 257 258 263 217 246 232 233 125 140 140 144 154 146 145 142 220 197 125 150 152 176 168 155 179 158 104 114 130 185 155 236 183 160 334 276 155 162 304 348
452 232 285 311 282 284 174 271 257 258 222 252 236 168 127 205 142 137 135 143 139 141 141 217 185 157 139 221 249 161 227 179 145 171 133 158 253 155 153 156 196 123 245 135 198 334 197
482 261 274 274 273 257 270 264 257 252 252 239 178 239 131 127 125 227 149 131 142 136 138 218 151 211 161 146 153 157 199 145 113 160 135 181 150 120 153 220 196 243 154 148 132 251 121
239 242 293 249 281 250 233 242 248 251 224 224 225 185 167 127 140 141 146 139 136 144 200 216 139 208 204 151 152 192 175 184 226 111 196 167 177 157 133 200 173 246 230 243 141 252 134
266 292 273 261 280 134 254 175 253 234 211 227 219 207 199 134 150 134 137 139 134 136 169 213 216 208 199 140 143 147 173 138 153 184 165 187 187 162 160 172 161 121 142 141 130 234 175
303 272 275 251 247 255 229 247 239 228 228 221 199 225 230 129 161 219 136 139 133 137 218 211 199 210 206 207 185 156 132 187 141 158 206 177 174 113 159 187 154 178 232 201 196 238 205
308 279 214 266 239 221 250 239 172 180 206 219 212 222 200 134 223 148 144 143 143 136 141 212 202 209 206 211 199 133 146 198 196 139 195 171 176 175 196 148 187 180 174 233 180 132 205

GFSGBSN_2pvu_pres_096.txt.gz
Presure
205 143 199 207 229 232 226 229 215 236 253 225 234 261 260 270 265 232 291 256 228 272 187 306 206 134 119 117 121 135 127 118 130 158 146 134 153 143 160 141 161 174 132 244 197 144 110
174 196 199 208 212 206 234 244 231 244 254 255 254 264 276 233 315 278 256 246 280 291 247 153 197 146 129 122 117 142 112 137 118 130 98 157 146 149 163 143 170 201 173 166 167 150 147
213 191 215 203 220 184 232 236 236 252 266 253 263 268 296 343 321 284 307 279 301 235 257 147 220 226 121 119 120 169 128 134 176 114 132 139 142 162 154 163 177 242 151 203 149 151 143
204 210 208 197 225 225 238 252 192 254 256 268 263 287 330 341 322 311 305 308 268 265 260 157 204 162 160 224 126 141 134 139 126 113 137 158 161 158 157 278 250 146 187 148 149 151 148
209 206 202 211 230 233 263 257 259 266 264 259 286 323 351 337 324 312 315 317 308 295 298 303 241 180 160 117 124 142 141 145 167 141 141 128 153 156 228 167 162 169 154 264 150 161 156
206 208 207 214 230 252 281 282 277 279 282 288 354 354 350 335 337 324 310 313 148 269 331 293 182 318 159 149 132 133 147 125 144 148 141 154 172 262 152 154 170 171 329 296 400 429 384
205 207 216 229 243 278 288 285 291 293 306 345 330 328 330 324 317 325 319 323 296 298 321 334 310 242 124 267 128 158 126 130 140 172 160 144 209 185 167 183 140 370 360 381 381 410 345
205 219 226 238 259 287 306 296 308 341 340 338 333 340 342 337 325 323 328 324 344 289 331 160 280 136 281 131 143 148 148 127 170 160 169 230 170 157 165 191 150 404 330 358 350 337 333
216 222 231 256 285 308 309 330 345 347 351 357 366 362 363 353 343 333 338 334 335 330 294 272 228 225 216 153 223 139 203 155 168 169 155 156 171 154 142 408 374 333 325 319 155 317 302
218 227 237 276 320 319 360 364 371 383 391 420 438 438 421 414 402 360 363 372 283 273 268 266 189 194 139 149 139 150 159 156 171 160 148 145 130 144 388 384 325 311 303 279 295 285 281
227 241 284 322 336 382 392 405 423 426 405 389 383 399 414 416 421 401 368 257 252 272 147 270 128 215 170 231 125 151 126 176 147 172 174 204 245 330 375 348 319 299 291 291 287 289 275
239 260 314 347 398 426 470 441 427 413 389 389 386 390 415 413 412 425 259 279 170 150 268 223 163 157 148 152 140 164 176 214 185 136 169 249 357 357 377 324 298 298 282 279 285 280 282
261 314 340 426 505 491 437 422 389 406 414 397 404 393 419 450 388 298 280 272 278 229 227 256 227 149 150 148 135 168 197 167 137 161 359 345 365 356 317 303 289 293 282 269 269 267 271
300 331 552 494 510 463 412 398 405 410 400 415 422 427 444 355 270 280 271 288 221 269 243 172 160 153 148 154 167 162 180 176 137 192 337 347 357 362 319 294 279 281 281 271 272 271 267
309 516 526 493 460 449 398 397 411 413 462 466 475 480 305 264 282 277 276 273 252 230 242 154 131 151 139 166 171 190 144 169 158 151 342 336 335 319 163 282 272 278 275 269 283 280 267
359 397 535 505 461 429 406 402 418 447 452 401 309 292 260 287 268 270 228 245 239 238 139 150 147 142 161 167 152 264 170 146 154 323 166 333 337 255 142 174 272 293 284 265 272 281 266
428 274 536 564 462 424 436 445 452 344 295 295 277 252 281 272 267 257 240 230 231 210 143 154 155 144 164 184 154 133 158 145 163 176 219 154 313 289 274 267 142 283 268 278 275 282 266
288 218 450 445 447 439 421 319 295 293 278 278 147 275 272 260 251 243 227 231 176 145 151 150 149 155 153 336 150 179 175 124 257 164 154 323 238 311 285 283 289 263 274 278 265 272 270
438 431 434 443 429 315 297 294 272 277 280 252 275 260 168 249 244 246 238 216 143 154 136 157 148 146 196 153 172 138 178 150 164 145 146 165 158 312 156 296 285 296 284 276 273 266 275
445 437 437 493 309 297 288 284 270 264 265 270 255 258 251 200 247 235 230 141 151 143 153 141 163 155 176 186 175 275 176 135 162 161 159 150 202 160 162 298 132 211 293 279 284 275 274
430 449 419 301 307 290 288 274 252 274 266 254 248 252 243 235 201 234 145 142 154 172 141 142 156 180 177 149 177 145 152 140 155 162 138 241 142 165 142 140 146 312 150 142 188 296 288
437 457 302 297 283 294 283 266 263 262 259 250 252 239 245 164 242 141 168 151 224 153 135 143 163 193 228 147 161 285 189 174 260 114 116 190 255 122 141 317 312 136 156 213 285 283 253
243 312 235 284 286 280 259 266 257 253 254 222 246 195 177 235 137 203 217 147 151 146 136 151 178 173 169 160 185 178 143 249 143 143 193 272 141 178 320 130 232 147 202 283 144 186 115
242 289 274 276 217 273 264 242 251 244 241 248 235 206 228 132 169 129 205 147 217 150 145 141 206 183 182 154 198 202 193 207 165 212 135 254 132 179 153 128 212 271 220 127 267 148 198
259 268 273 204 233 262 243 250 242 183 238 222 234 227 168 133 135 126 142 139 149 206 139 143 214 167 188 175 159 179 145 174 124 176 230 143 225 169 137 241 148 159 120 135 140 223 150
244 300 289 216 231 254 228 251 241 235 239 227 232 193 133 134 133 130 151 142 147 142 146 143 189 214 167 198 151 149 159 186 151 185 215 202 152 103 151 197 164 254 228 233 214 131 246
240 259 261 236 228 155 186 246 241 228 221 181 186 176 170 132 138 130 146 148 163 181 138 152 178 213 210 189 149 185 164 148 204 145 139 184 166 110 186 159 180 207 160 138 214 139 151
283 241 152 246 221 246 165 231 240 202 206 228 198 227 225 197 205 162 138 137 142 162 142 201 148 216 184 208 204 190 143 146 200 197 177 145 166 190 207 192 194 159 151 171 199 232 215
229 230 282 255 203 241 239 214 230 229 205 191 192 218 228 124 141 137 139 143 137 147 190 148 208 150 150 190 145 143 201 144 196 199 213 134 169 166 181 209 131 149 145 151 169 108 137

GFSGBSN_2pvu_pres_099.txt.gz
Presure
202 170 190 167 175 214 215 214 212 217 224 237 241 248 252 217 247 254 271 250 234 285 309 254 256 274 305 274 205 153 130 130 124 128 130 126 150 147 144 143 120 123 93 101 133 152 117
198 198 199 212 219 220 211 206 214 224 236 239 253 251 219 230 231 253 212 278 277 284 309 330 282 274 280 253 235 138 138 119 122 132 121 136 137 112 150 139 116 144 145 165 154 163 184
196 201 201 206 210 215 220 213 220 227 234 247 252 262 263 279 281 276 274 282 281 285 332 322 320 309 258 324 142 310 121 128 126 136 93 143 133 151 99 130 147 145 305 144 159 172 201
192 195 203 209 208 221 221 221 231 236 244 254 262 281 298 311 287 291 284 288 289 332 331 318 310 276 309 278 240 251 133 120 126 126 160 112 137 189 118 142 114 154 124 143 235 183 227
196 196 210 207 222 225 228 235 238 253 267 299 313 320 317 328 314 298 237 309 337 326 326 319 305 284 243 307 171 270 145 127 131 123 160 146 152 134 138 132 132 147 153 175 187 275 323
192 203 216 216 235 236 238 254 274 328 325 334 355 355 359 361 356 354 343 339 325 320 322 310 313 309 298 321 263 186 138 128 130 139 139 140 113 140 158 143 131 178 259 305 237 184 160
206 205 227 241 240 249 269 334 343 354 356 354 361 348 347 326 333 336 333 334 327 316 313 315 320 245 269 282 327 141 157 124 237 134 142 144 143 161 143 131 144 127 141 183 161 157 180
195 229 245 250 257 283 386 394 385 380 372 371 377 371 362 349 328 323 327 322 316 312 316 317 325 284 312 291 133 153 153 148 146 140 139 151 119 150 146 212 245 184 173 161 272 196 184
226 242 253 271 305 434 373 408 393 488 472 444 425 407 401 395 378 337 323 316 313 306 158 315 291 282 239 242 299 157 123 161 141 136 131 146 139 149 174 178 176 174 155 199 284 259 364
245 248 258 320 436 299 457 460 446 418 404 394 389 391 382 418 407 370 332 347 320 312 326 287 322 232 288 289 141 182 135 130 150 158 151 155 262 184 169 160 146 141 147 150 315 321 311
257 261 348 277 417 462 465 431 405 412 369 385 370 361 382 414 409 419 352 344 325 334 324 333 289 235 155 146 288 157 149 154 156 130 134 191 163 156 167 155 171 338 321 313 309 306 307
264 287 417 245 512 483 444 419 396 378 367 374 364 357 367 376 392 401 378 346 290 328 319 285 283 283 143 210 136 127 148 144 152 225 181 152 187 252 325 320 323 320 307 298 292 293 292
294 419 396 470 503 448 388 387 367 358 376 383 403 372 375 385 393 404 399 353 342 289 286 277 281 201 182 142 152 151 162 287 204 171 169 137 327 150 312 304 298 303 293 294 278 290 282
410 395 396 456 452 402 403 397 392 385 386 405 391 408 411 399 404 401 394 296 287 283 263 255 120 121 180 152 141 151 130 176 179 208 146 168 347 306 293 169 301 291 286 282 280 279 287
414 398 408 405 390 394 417 425 418 413 435 450 464 468 338 415 309 302 292 286 262 255 187 222 168 151 120 140 156 165 210 174 165 135 131 156 343 300 292 150 290 263 277 262 288 276 281
209 408 422 419 401 413 413 452 423 427 445 396 328 314 305 306 291 274 262 250 242 207 257 238 152 160 140 149 149 269 171 157 147 168 155 152 329 297 277 158 146 262 265 270 278 282 267
213 435 430 459 425 357 319 313 322 312 295 294 285 276 270 255 241 253 260 252 193 284 278 151 144 150 140 168 200 187 155 166 147 128 133 193 166 296 235 275 281 251 264 278 272 260 282
282 255 326 315 317 308 291 255 279 282 274 258 263 242 249 252 288 300 172 229 226 187 155 143 144 150 158 197 183 179 172 146 121 131 175 160 143 260 284 280 273 271 268 270 263 273 272
231 233 266 290 245 272 274 273 269 253 264 259 243 275 292 176 340 338 255 338 258 144 150 134 149 167 171 304 270 252 159 127 145 150 143 149 230 242 156 290 272 296 283 272 274 281 280
283 244 227 246 270 259 269 272 263 259 254 191 245 244 324 348 258 161 341 154 145 154 157 141 155 165 182 181 195 272 167 148 169 183 157 136 159 267 148 278 158 214 279 283 275 268 262
288 254 269 214 237 262 267 262 243 252 245 239 232 268 219 253 237 241 151 149 142 151 141 158 147 187 169 185 302 302 300 336 335 134 158 126 204 276 144 278 252 149 268 180 217 280 271
215 262 274 233 205 273 258 255 245 127 242 237 247 185 188 190 221 148 135 145 156 137 134 158 294 158 154 177 166 345 352 184 185 344 144 291 161 167 129 148 225 145 170 200 239 141 142
225 256 256 231 263 250 255 243 249 229 238 214 235 237 224 231 145 139 148 136 147 141 136 171 141 163 166 167 167 201 151 276 249 349 346 124 110 305 278 254 218 259 146 199 293 145 180
214 263 256 224 250 241 250 241 230 245 230 241 155 221 211 147 139 134 147 144 150 133 147 157 193 183 168 159 162 161 165 160 186 201 106 264 158 233 136 126 144 142 157 126 218 273 163
213 215 273 255 224 238 238 236 212 221 241 226 171 211 219 130 137 219 141 142 151 151 137 150 192 194 171 201 159 158 222 170 210 148 217 136 225 187 150 236 173 238 262 149 229 145 229
218 176 263 273 232 245 219 159 222 237 214 194 165 138 238 131 122 131 147 139 149 141 142 147 166 215 192 135 194 199 182 153 181 198 119 209 198 229 145 186 112 165 167 182 235 141 139
201 206 230 268 253 220 195 234 217 205 195 211 226 208 139 124 130 131 147 187 151 141 138 145 151 213 204 190 159 203 165 145 182 169 135 142 209 161 191 215 172 189 184 184 140 155 124
193 219 214 293 243 249 240 216 142 207 214 219 219 211 222 232 119 128 134 133 131 185 151 185 211 188 210 214 184 208 138 152 176 174 198 190 149 178 157 200 169 166 190 214 155 162 141
198 211 212 222 239 173 220 216 217 209 215 171 194 202 236 228 119 125 133 142 137 134 142 141 149 206 205 202 204 205 203 201 200 194 141 199 148 144 156 184 211 223 154 150 172 152 160

GFSGBSN_2pvu_pres_105.txt.gz
Presure
191 235 225 232 233 228 226 222 227 226 227 222 231 231 233 234 240 238 235 239 241 247 241 248 252 257 253 252 257 263 250 258 188 214 213 130 138 146 136 122 119 132 131 127 144 153 149
247 241 241 253 230 241 241 253 260 254 243 247 244 250 246 248 243 245 241 243 242 246 249 250 240 251 259 226 237 271 241 293 225 179 142 148 186 135 127 130 127 124 128 133 155 142 141
272 244 261 288 283 278 281 282 380 281 319 355 296 263 255 265 277 276 267 263 246 253 243 255 245 258 261 272 259 272 292 303 306 305 292 170 131 271 131 129 129 128 143 137 133 146 154
274 236 201 342 451 450 418 406 402 390 389 390 400 393 390 377 382 348 332 320 281 256 259 265 262 267 275 282 297 299 311 323 152 136 311 151 133 133 167 139 130 142 127 141 142 135 113
212 248 236 275 378 393 383 385 388 394 404 406 396 382 374 433 399 395 366 347 337 317 308 297 296 296 299 306 312 319 324 320 315 311 309 138 177 131 128 143 140 130 123 131 127 118 148
213 247 239 268 422 414 394 390 402 420 459 465 473 397 398 406 402 398 393 353 347 338 329 325 319 315 317 316 320 332 320 308 312 313 292 141 174 152 167 133 123 135 131 125 145 122 133
217 230 249 243 284 417 399 389 396 416 435 456 387 372 372 364 373 397 364 351 353 359 345 335 335 339 331 330 334 323 312 318 324 134 154 275 151 166 125 160 115 148 160 153 117 136 340
233 237 232 232 258 425 414 398 405 421 406 408 385 389 370 370 369 371 338 339 335 328 344 354 343 333 332 339 311 326 328 329 331 288 202 243 304 197 126 101 147 139 121 134 182 184 193
204 239 236 239 238 327 407 409 405 399 408 396 391 386 377 393 382 320 353 334 349 339 339 334 336 341 339 322 324 324 325 322 315 316 308 295 305 187 142 142 123 142 123 163 139 160 140
248 223 168 229 297 251 447 436 426 371 375 387 371 371 382 378 373 422 359 339 337 339 323 317 327 319 318 322 318 308 313 312 314 202 167 321 215 141 154 152 138 140 128 223 149 144 145
264 208 149 218 254 229 290 458 441 389 376 376 389 372 367 372 384 392 345 326 326 321 318 317 313 320 318 315 314 308 313 304 224 300 317 155 230 157 121 162 167 149 155 150 155 155 160
237 183 195 219 242 272 260 293 458 423 402 389 384 368 393 433 384 385 349 322 322 316 314 319 316 310 312 308 196 308 258 158 245 268 120 139 172 140 233 140 347 169 163 160 158 166 148
257 230 226 221 206 233 309 252 282 472 419 406 386 395 399 388 390 367 332 322 316 236 316 315 307 306 300 301 239 190 255 110 169 134 163 158 193 160 152 153 156 164 141 163 161 176 185
259 229 230 225 215 236 216 292 244 267 297 429 411 410 378 175 367 339 332 323 318 321 300 302 308 292 151 296 253 277 189 182 152 255 141 169 166 164 172 161 178 184 187 305 296 283 272
267 252 235 198 230 247 212 217 209 242 255 266 272 280 380 346 320 340 330 319 317 311 308 292 156 185 173 182 249 247 152 162 168 157 154 148 326 175 305 255 169 283 314 324 288 161 146
262 260 135 219 214 198 237 154 400 197 222 273 305 268 245 256 259 260 289 260 256 232 189 154 247 186 193 166 157 143 152 154 229 317 130 216 304 259 305 163 289 286 304 311 124 146 277
213 270 246 128 186 198 230 205 224 257 220 203 215 259 290 298 293 241 277 282 232 277 281 187 147 163 163 143 153 202 146 186 299 188 132 152 158 188 246 285 283 279 289 290 277 268 270
200 228 277 188 192 201 204 229 206 295 279 415 386 207 367 343 240 324 197 153 150 149 148 148 143 162 153 135 223 174 178 166 166 160 127 135 148 150 270 271 275 281 264 280 120 264 271
180 209 250 259 208 164 194 190 198 213 206 207 136 135 392 144 338 152 144 138 161 158 154 146 145 145 212 180 238 257 138 190 158 163 141 135 148 153 167 290 141 262 247 255 285 269 262
189 192 217 290 164 224 190 207 190 200 249 157 197 219 308 144 149 135 131 149 140 143 138 165 334 279 171 207 197 222 256 160 148 226 135 150 124 141 164 151 230 252 266 266 264 260 239
181 198 212 232 288 201 213 188 184 209 186 220 204 199 209 148 137 133 148 143 135 148 160 179 182 338 316 333 168 162 289 153 150 191 143 254 165 209 266 128 263 144 146 266 259 247 253
180 194 194 204 229 126 226 210 211 202 198 190 186 175 154 134 141 141 140 133 136 195 184 143 162 158 320 187 252 326 340 338 265 179 178 131 141 139 284 131 156 138 243 155 142 253 121
167 209 188 187 204 225 163 140 186 210 149 157 203 170 140 142 143 140 141 132 131 159 158 150 161 318 161 151 169 271 330 338 336 296 290 285 202 284 155 146 140 185 175 157 152 269 278
171 169 207 192 199 201 203 289 208 198 131 184 203 150 136 143 146 150 142 135 133 134 148 167 176 155 212 283 273 153 278 282 158 293 238 178 300 298 245 284 220 262 204 290 141 129 196
186 167 193 194 176 198 196 166 246 153 112 211 216 198 134 126 142 148 142 135 135 139 139 145 197 242 225 219 209 248 247 183 250 243 188 325 192 330 326 198 250 334 190 346 356 375 360
166 182 161 181 181 219 193 207 215 247 264 200 208 214 191 133 144 146 149 145 150 134 141 183 207 202 193 154 238 148 223 163 197 242 235 248 146 196 230 221 175 159 246 258 119 121 152
170 169 174 171 165 205 202 197 205 208 286 148 222 218 182 213 125 136 152 145 167 124 136 145 199 186 208 197 207 203 194 201 197 223 143 225 231 210 224 204 191 205 185 151 176 152 144
205 187 186 169 171 166 186 192 202 198 218 239 210 266 198 222 200 124 128 125 135 136 131 146 156 148 204 184 207 205 209 211 211 214 210 204 160 192 207 214 205 204 176 167 198 168 197
181 195 191 175 178 171 205 168 196 230 185 201 167 202 277 254 212 201 197 117 132 129 139 195 140 142 145 162 207 206 205 207 206 206 206 149 201 199 188 196 164 198 165 181 207 183 220

GFSGBSN_2pvu_pres_108.txt.gz
Presure
172 246 233 243 258 230 250 261 256 272 403 383 332 335 250 262 255 254 252 242 242 240 234 229 238 235 245 234 246 239 230 255 250 266 267 189 144 165 133 149 135 138 116 143 150 142 129
261 248 231 219 233 232 247 265 275 385 396 393 393 343 329 308 262 269 255 258 253 249 244 242 244 244 252 243 248 227 243 244 264 244 224 269 225 182 152 134 141 154 136 109 129 108 129
265 254 226 185 233 380 300 266 407 395 411 406 383 376 353 330 323 327 268 244 262 264 253 249 252 252 253 256 257 258 259 244 264 272 270 275 215 278 298 145 131 127 147 131 125 142 155
244 244 229 159 239 250 258 295 418 408 409 397 390 402 422 399 378 372 336 280 283 265 257 256 258 254 256 256 253 262 266 269 269 268 274 278 291 277 189 243 136 150 126 127 146 131 130
255 198 163 270 229 241 262 417 415 402 396 434 435 450 524 447 398 402 404 366 325 291 268 266 259 257 265 269 264 273 272 267 278 281 284 297 323 173 335 198 150 302 143 144 130 132 134
222 218 165 283 219 237 264 437 407 406 420 421 398 392 389 372 382 409 418 411 427 365 332 268 293 281 267 270 266 276 281 275 284 304 316 335 338 331 321 151 227 143 162 158 139 138 144
258 182 163 226 223 383 254 446 427 414 411 402 389 371 374 369 402 388 390 336 324 373 344 317 310 311 311 305 310 308 309 308 316 330 342 187 315 312 348 133 217 135 161 150 145 98 139
217 219 207 251 223 398 233 296 429 397 407 395 378 381 381 385 374 365 362 326 329 345 357 328 316 319 313 308 306 316 320 321 332 346 328 307 337 326 327 136 331 132 150 138 112 126 131
250 206 236 250 241 411 356 265 410 401 389 370 384 393 392 391 375 355 345 322 331 350 337 332 334 324 315 313 320 325 333 337 345 322 325 338 322 185 317 152 151 264 150 125 134 139 139
202 212 214 219 232 354 374 311 301 403 391 391 369 387 385 396 399 349 328 328 335 336 333 344 345 340 339 339 345 342 341 340 333 331 323 317 320 322 312 148 172 108 132 136 130 121 145
183 195 194 213 243 228 296 327 236 294 401 391 395 386 390 416 168 333 334 330 321 319 337 323 333 333 342 345 337 332 335 177 316 311 310 320 319 334 318 268 166 168 286 133 135 145 160
287 197 242 213 227 219 233 386 353 232 295 431 437 409 397 371 348 345 339 340 331 327 334 333 331 325 328 327 323 312 307 299 315 322 134 307 263 244 292 289 135 131 163 134 322 147 154
227 263 230 206 214 232 199 390 373 353 307 305 291 392 354 339 329 327 329 335 335 329 334 327 319 319 312 307 303 309 309 249 307 325 330 284 280 272 230 160 149 263 141 149 148 174 148
162 167 165 225 207 213 228 225 226 365 350 320 232 319 280 278 345 344 333 326 323 323 319 315 299 295 296 304 308 313 314 313 190 247 277 252 165 162 179 187 182 160 191 145 303 321 170
209 233 267 201 231 183 188 216 218 223 341 346 330 316 306 295 294 210 273 306 269 286 248 271 271 277 306 292 270 202 275 278 276 269 261 176 157 171 132 167 148 145 150 151 161 170 161
191 213 214 239 174 227 181 194 213 201 274 317 353 202 314 318 202 304 177 261 180 220 168 265 164 229 199 212 311 228 224 281 160 171 133 152 136 165 224 146 212 154 297 305 177 222 218
180 213 219 221 269 211 216 216 218 212 187 192 191 191 194 193 227 239 182 178 295 159 160 249 235 154 164 148 153 157 160 151 151 123 261 247 241 145 139 143 287 186 281 287 288 278 273
187 204 172 205 215 175 215 217 198 226 204 195 206 185 363 167 153 151 151 148 144 142 155 154 145 136 140 151 155 163 321 175 216 208 132 135 151 138 138 283 200 283 279 223 291 268 263
176 189 177 210 159 239 228 217 150 217 204 204 192 152 150 142 140 149 149 148 138 137 149 155 199 184 182 297 185 188 179 167 157 140 134 153 134 155 148 168 272 255 271 201 271 277 257
180 191 196 194 185 213 164 255 172 187 165 159 165 157 142 139 149 146 140 138 157 238 265 260 185 175 264 185 174 259 182 169 164 144 150 126 197 200 151 152 164 263 141 228 281 210 263
161 174 177 189 192 189 189 290 252 151 149 135 150 150 143 147 173 146 141 164 172 259 157 242 234 235 334 180 327 162 203 161 153 147 228 158 273 146 125 159 197 133 189 193 180 280 260
160 199 163 188 199 178 185 203 298 264 134 162 143 138 141 201 147 143 140 133 258 144 148 149 221 267 354 220 254 303 187 176 289 275 266 281 278 151 259 235 222 264 158 204 142 149 279
166 176 181 164 193 198 159 168 204 153 193 134 134 136 128 140 148 142 136 136 169 163 159 161 266 321 337 336 187 191 290 260 222 281 288 294 194 186 192 253 233 268 199 240 177 141 228
145 176 189 170 168 173 216 202 187 144 196 177 135 139 122 141 151 139 139 132 165 175 174 175 214 185 166 208 254 200 317 219 271 305 309 226 296 153 291 171 307 241 273 282 227 284 272
163 162 187 166 196 181 184 187 202 157 218 195 158 133 121 206 144 129 135 138 130 142 182 169 211 209 160 151 174 248 165 248 251 259 207 328 183 321 168 167 227 165 313 323 301 307 279
177 172 191 174 156 177 173 200 193 184 204 160 145 225 128 128 132 135 138 138 146 136 142 151 208 147 190 193 185 192 200 196 236 233 243 238 241 258 245 260 180 179 169 331 218 331 120
163 183 165 192 171 166 184 182 175 184 191 183 221 169 204 124 125 212 157 128 147 119 129 138 167 202 199 199 204 213 208 205 190 197 180 198 226 218 233 224 189 175 168 167 246 153 144
183 161 183 179 176 203 167 172 174 206 189 202 201 209 182 209 207 128 123 125 131 125 131 170 139 142 174 210 207 196 205 202 197 212 208 189 168 199 199 200 187 196 211 141 162 189 190
178 193 143 181 191 196 158 205 176 177 165 178 183 185 193 213 200 217 126 133 129 130 124 130 137 135 140 139 157 233 225 218 214 206 205 199 200 196 178 183 194 203 185 207 181 208 214

GFSGBSN_2pvu_pres_114.txt.gz
Presure
187 175 141 171 254 414 455 471 470 451 451 456 345 296 292 258 357 332 281 262 270 263 280 268 254 234 229 215 215 216 211 218 224 216 222 235 241 252 252 262 167 179 161 173 123 116 130
216 214 167 233 257 411 429 497 460 441 418 421 417 375 367 374 281 305 340 298 275 242 246 244 281 258 231 230 221 235 183 221 213 219 226 232 223 228 240 257 266 266 256 188 157 119 133
165 225 186 235 254 440 462 443 437 427 415 397 411 390 375 373 376 381 280 313 275 250 243 234 228 265 269 247 230 216 223 208 226 209 223 196 228 236 226 231 244 245 251 261 171 277 134
247 171 179 229 196 291 468 441 413 413 407 392 395 403 435 376 377 389 389 308 285 275 266 242 243 243 241 269 239 228 223 225 216 227 215 226 217 227 231 238 237 223 257 251 135 246 257
223 222 174 177 225 266 444 360 258 418 405 396 378 386 398 464 477 455 422 405 403 285 256 256 256 237 262 266 273 254 244 235 223 225 225 227 202 214 228 237 246 252 245 250 237 219 135
211 208 179 183 226 239 279 464 358 418 425 402 400 391 377 392 415 420 401 380 368 426 330 274 262 245 247 247 259 281 266 250 237 231 233 230 233 233 242 248 244 239 240 263 257 165 284
224 156 185 179 211 234 248 367 367 435 435 411 389 387 391 372 373 395 373 361 371 390 315 307 301 278 254 251 253 277 274 262 261 256 239 239 240 243 240 242 242 243 248 249 267 158 148
204 226 184 178 186 189 232 225 380 250 386 387 380 368 382 418 365 356 386 371 383 330 303 300 301 306 290 289 288 273 278 273 268 264 260 259 258 268 266 263 272 283 287 286 291 132 213
193 215 178 241 182 215 133 233 269 358 341 347 367 349 356 349 353 348 361 362 350 323 288 291 299 293 286 283 298 285 282 282 277 272 275 282 286 280 276 275 271 275 281 316 349 379 254
202 194 174 192 179 218 199 227 238 197 350 334 255 366 350 347 336 350 354 340 342 332 297 272 282 294 293 286 289 295 298 293 289 286 276 276 280 279 287 330 331 345 366 390 373 311 307
200 184 191 212 190 210 229 203 227 238 233 346 333 292 362 356 363 347 339 347 340 352 321 285 286 257 281 288 292 294 303 307 309 323 331 326 326 340 347 361 385 362 351 344 327 156 310
165 190 195 210 221 185 181 182 206 211 234 258 346 338 308 302 344 342 346 354 337 338 344 321 310 301 300 297 303 309 311 323 329 327 332 345 354 379 355 343 333 270 307 301 317 212 280
175 184 208 201 163 205 164 285 167 141 218 208 218 357 348 331 295 302 316 337 348 351 350 348 344 319 313 314 312 295 309 330 331 353 372 358 330 327 208 204 298 200 313 323 326 140 144
173 144 186 182 192 159 156 160 165 160 157 162 165 161 163 357 342 320 284 232 302 322 327 340 360 367 365 367 372 374 391 379 352 325 331 295 293 291 290 303 350 309 204 257 228 303 147
178 163 176 192 198 190 191 185 155 168 177 154 154 182 164 371 164 152 277 309 286 225 292 290 316 316 322 325 318 325 307 317 312 297 291 283 295 370 331 317 302 291 288 288 279 281 287
186 157 175 195 183 171 197 214 143 144 140 137 148 126 132 133 132 147 155 154 155 159 172 233 240 299 299 304 249 303 290 289 286 283 339 366 316 260 233 224 224 219 212 186 201 197 194
179 164 153 190 147 185 173 171 138 132 141 150 144 142 136 131 182 231 170 293 292 142 141 143 153 157 161 181 265 173 273 259 203 205 143 203 210 205 281 202 179 195 155 189 160 154 151
179 186 174 176 169 180 184 193 138 134 127 138 136 139 141 159 172 199 255 374 235 267 357 143 176 172 144 140 142 144 154 151 158 158 277 160 271 162 151 141 151 156 167 263 166 167 252
176 185 163 175 175 172 172 184 177 141 123 131 140 134 216 219 167 155 172 230 321 366 350 334 202 316 315 184 263 206 169 169 169 169 145 156 148 144 145 145 252 264 268 260 266 244 269
175 174 181 191 171 158 177 185 183 181 129 131 159 135 134 127 208 173 158 149 181 226 185 308 315 250 173 296 289 179 225 157 154 151 156 131 158 153 135 157 266 205 254 171 245 201 263
155 189 172 180 182 170 176 196 173 195 137 176 137 195 135 133 126 239 243 208 151 155 232 156 180 324 314 298 293 267 261 126 133 147 275 202 271 265 140 173 261 140 211 201 140 146 137
177 169 183 181 180 193 158 179 207 172 174 147 183 132 133 140 126 125 154 250 160 154 149 204 199 231 241 314 308 295 146 132 119 292 137 284 123 274 270 272 255 138 244 154 201 156 164
185 171 185 172 183 184 167 191 167 197 149 142 127 138 136 137 137 134 128 131 180 249 215 215 192 151 215 221 178 224 300 286 261 278 247 273 180 284 195 266 243 270 282 266 258 261 241
161 166 161 179 163 184 185 168 191 153 174 135 145 126 133 130 137 137 132 137 189 166 230 256 208 172 179 177 151 220 198 213 239 240 285 305 247 215 306 267 215 251 272 278 271 274 251
167 157 171 152 175 163 177 181 193 184 188 199 172 198 151 171 132 195 141 140 141 133 130 233 162 254 213 197 214 193 142 194 176 184 212 153 191 264 181 295 214 296 279 224 156 172 236
162 173 177 181 153 183 174 180 160 194 168 194 194 173 169 178 119 129 135 138 138 141 131 132 133 221 232 153 212 141 219 207 206 198 201 166 195 189 199 181 240 189 379 233 321 188 316
142 145 151 176 166 183 167 181 172 181 183 165 190 183 193 182 159 145 147 164 130 128 134 131 233 222 134 220 235 246 244 247 220 202 196 203 200 161 142 201 187 207 210 201 172 238 243
166 173 163 154 146 171 180 176 169 182 182 181 187 198 186 183 190 184 117 186 113 149 149 133 171 186 135 130 224 222 224 241 236 235 237 242 229 228 224 193 202 202 210 199 203 210 206
175 169 146 154 139 168 172 174 171 170 177 177 179 189 187 169 203 197 185 179 165 173 225 128 140 131 119 120 132 133 138 225 207 224 227 234 230 237 241 234 242 229 187 195 196 192 193

GFSGBSN_2pvu_pres_117.txt.gz
Presure
225 173 111 141 147 213 499 454 440 438 413 410 408 409 372 311 314 348 318 370 288 202 218 264 213 240 275 267 239 220 217 217 214 215 232 240 245 249 248 216 220 151 203 153 157 111 170
217 201 153 163 239 223 416 455 442 436 410 401 406 404 370 368 323 327 345 370 365 285 265 246 222 169 216 277 261 232 228 222 210 200 224 224 228 233 246 249 254 247 246 198 205 177 154
203 218 168 168 170 237 329 483 461 435 416 409 404 409 386 372 370 354 284 357 351 363 282 267 257 241 252 226 276 256 242 227 221 226 208 216 219 220 228 244 243 251 254 263 261 232 231
219 204 169 171 173 193 237 301 408 392 421 408 401 403 409 408 375 373 364 289 291 343 355 289 244 237 233 215 238 274 268 243 235 216 233 215 212 229 222 225 232 241 237 237 249 261 165
187 169 167 191 178 229 183 300 372 336 369 359 411 400 407 503 465 383 374 379 293 287 345 329 273 258 232 238 244 255 270 273 241 235 228 226 224 216 227 219 234 223 237 239 253 251 255
194 194 219 195 227 182 214 224 366 354 368 366 356 391 418 430 466 438 389 357 350 292 322 352 325 254 257 238 245 251 258 261 266 245 234 230 232 229 223 231 215 225 229 228 238 245 247
194 189 207 213 172 166 203 209 187 357 334 366 362 386 390 389 388 402 411 426 431 434 287 316 342 273 247 262 242 235 247 226 276 278 253 241 231 231 232 227 219 226 231 240 243 248 250
199 194 208 205 219 196 244 200 225 344 349 327 372 360 377 400 360 359 362 356 355 373 343 283 251 353 256 256 244 241 241 245 247 264 262 275 252 242 236 233 232 234 231 241 248 250 251
182 168 204 164 179 207 245 195 232 177 359 342 323 358 367 357 351 336 340 324 320 319 323 324 282 289 323 267 242 243 246 250 249 243 253 266 278 263 245 242 244 248 247 248 242 259 266
188 195 190 194 196 132 133 227 160 227 164 338 336 316 359 361 353 339 318 309 312 310 308 307 307 268 268 292 286 291 255 273 250 250 263 262 263 286 286 267 261 263 268 273 284 269 130
202 180 167 125 128 204 144 162 145 175 152 175 171 236 317 357 362 348 326 309 303 304 299 303 303 301 306 269 264 267 264 250 260 257 261 255 261 295 293 289 284 289 290 288 288 400 367
173 194 187 161 197 193 153 218 147 156 196 149 155 162 164 269 339 355 352 308 313 308 298 308 307 297 306 308 306 297 292 292 282 308 301 297 250 294 300 320 347 374 402 376 349 337 352
190 197 179 192 179 192 140 143 140 148 137 148 146 150 151 146 166 269 353 371 342 303 321 304 295 301 309 309 303 309 304 298 306 306 303 313 344 357 401 397 363 349 325 370 331 312 288
170 175 196 177 187 135 133 139 134 142 137 169 176 171 153 150 147 144 171 195 351 380 355 323 312 308 307 304 316 301 309 298 300 314 335 386 374 340 335 319 308 295 322 306 326 324 301
189 186 160 193 174 207 161 141 139 178 136 129 145 135 120 258 340 142 149 164 243 158 322 360 373 377 374 372 385 382 376 374 378 368 329 314 309 301 296 287 313 302 290 307 294 287 260
179 176 178 149 182 174 145 127 141 167 198 143 167 202 176 173 248 384 111 161 148 159 233 167 238 335 334 327 319 320 314 311 308 305 296 285 294 329 298 292 282 223 287 278 275 278 212
154 191 171 144 182 193 185 137 133 130 140 134 183 161 153 147 161 228 288 342 168 182 147 243 149 204 259 150 146 192 287 288 282 271 335 322 300 236 284 277 278 199 267 263 266 272 274
182 166 179 174 191 194 188 200 123 134 134 148 134 211 196 245 142 155 179 246 338 230 178 344 192 269 140 138 165 326 327 150 149 150 155 276 203 140 173 260 199 246 166 249 171 249 236
180 188 178 190 176 152 195 191 202 129 134 134 177 133 180 185 222 290 151 150 199 256 326 340 332 185 322 197 323 162 158 184 161 159 158 157 154 155 157 155 250 157 244 256 178 185 247
146 174 185 157 180 163 157 177 139 183 162 162 134 130 137 136 155 199 157 269 171 201 208 249 235 321 337 247 189 227 238 232 153 149 150 208 149 137 145 149 211 265 258 234 220 257 228
179 179 178 166 151 180 184 153 186 128 148 180 133 134 134 129 137 187 207 191 206 196 245 209 209 242 246 286 269 299 298 141 151 282 279 278 256 165 262 141 164 236 226 146 259 148 131
175 162 181 171 189 152 163 192 159 161 191 127 181 134 166 136 122 133 141 142 168 273 268 257 149 213 229 225 235 243 258 268 126 133 309 165 287 281 167 143 239 267 260 261 159 136 265
163 172 171 176 177 180 173 181 166 166 166 190 153 121 154 139 143 137 133 166 140 209 149 279 179 207 200 158 169 180 217 203 141 129 217 152 301 291 280 257 289 164 276 231 178 264 272
158 158 169 173 166 159 171 178 177 173 189 192 189 174 142 135 133 157 163 141 135 136 167 238 287 145 221 159 242 208 167 198 200 177 186 224 167 145 282 293 277 221 225 280 265 266 276
162 160 167 152 177 173 179 154 178 179 170 179 189 188 198 195 174 130 192 138 135 141 137 142 135 150 275 235 150 166 240 206 204 198 184 172 170 212 191 214 223 328 166 128 268 164 179
172 169 155 125 153 168 183 177 186 166 172 164 178 185 174 201 149 158 129 132 136 163 135 135 133 129 143 281 227 240 215 240 234 249 207 206 199 147 206 190 212 214 231 181 235 230 231
180 138 173 153 127 173 179 149 163 177 164 181 179 179 183 178 188 189 167 198 189 130 196 134 137 134 143 169 142 228 267 243 213 233 236 241 251 229 214 159 140 210 207 206 204 192 216
142 180 132 163 176 143 163 167 175 180 173 180 189 177 180 180 185 182 199 199 156 198 172 120 221 196 177 184 134 137 134 139 142 142 210 213 229 237 232 243 236 234 163 197 201 205 164
175 135 179 140 167 182 185 130 181 181 175 186 165 171 179 176 184 174 190 193 171 190 188 181 180 175 141 122 130 129 125 129 134 135 141 139 140 200 212 222 231 229 231 235 247 250 241

GFSGBSN_2pvu_pres_120.txt.gz
Presure
201 194 209 172 166 221 252 384 388 386 390 431 410 416 356 345 343 349 274 358 402 260 219 220 232 257 255 246 247 233 215 218 208 212 215 236 238 246 253 167 174 185 164 159 161 165 175
187 185 218 195 171 241 219 229 370 385 382 401 418 418 359 352 350 348 319 226 370 393 257 256 217 227 226 297 230 249 239 225 227 213 211 214 236 231 242 246 236 218 176 176 174 164 161
193 206 196 182 189 107 213 271 369 356 380 397 409 409 410 355 357 343 343 313 360 379 385 250 263 221 198 243 220 231 253 244 228 239 212 218 226 222 228 235 245 257 248 222 163 167 197
192 187 192 164 193 243 170 254 368 368 383 408 391 410 483 405 358 359 365 324 333 358 357 220 245 240 220 232 237 228 228 275 254 239 235 211 216 207 211 232 235 242 252 254 260 264 267
163 197 207 163 209 170 167 212 280 360 377 426 404 403 484 394 381 357 353 363 292 327 352 348 296 241 230 214 211 182 234 227 259 265 245 236 213 215 222 215 216 221 227 238 242 247 259
187 181 173 200 178 147 160 193 189 361 384 373 368 381 421 457 413 353 362 349 292 303 343 354 347 348 211 209 232 195 186 237 245 269 261 250 237 225 219 228 225 222 226 226 229 231 235
203 160 139 126 158 146 146 154 165 202 358 376 358 368 367 372 423 406 358 346 287 287 325 323 344 343 324 268 243 249 199 223 216 230 254 263 250 242 230 228 227 221 225 237 222 223 234
191 190 170 140 201 137 144 153 160 164 162 351 374 351 356 353 356 364 383 393 365 304 282 276 342 339 351 307 262 255 231 238 222 206 235 268 270 268 253 243 238 237 236 236 241 242 242
186 167 137 200 172 189 149 147 140 163 162 163 191 367 345 354 341 347 343 353 408 368 291 273 307 339 331 326 295 244 236 227 233 238 246 254 264 222 264 272 257 251 244 241 242 242 249
174 197 198 162 139 143 150 156 144 177 163 153 162 254 337 344 344 334 326 328 334 338 342 287 288 345 341 328 317 278 251 249 244 242 241 246 236 228 241 265 281 278 264 259 255 254 256
190 188 204 194 179 139 137 123 167 153 268 139 150 248 159 175 344 330 330 314 322 326 334 349 286 284 327 319 330 312 267 249 252 260 257 240 245 247 252 246 247 253 256 279 288 286 273
157 174 194 166 131 132 137 203 191 133 154 249 216 145 365 220 162 327 317 323 310 316 330 328 308 281 278 311 320 320 324 273 254 252 246 250 254 253 257 255 264 274 268 254 259 307 289
183 190 184 201 191 129 150 131 127 163 124 225 120 220 200 158 159 227 234 322 326 311 310 308 320 311 307 277 269 284 305 303 293 271 262 264 262 265 268 227 259 272 302 314 343 357 351
156 177 176 189 186 136 148 137 143 164 179 156 151 246 239 127 143 128 178 283 300 286 324 310 310 321 323 320 318 311 308 298 299 296 234 295 288 316 321 341 358 372 345 327 351 317 308
184 167 191 172 198 193 126 144 135 142 208 198 146 233 219 300 142 144 264 183 164 156 238 384 372 344 344 313 315 320 302 311 313 318 316 315 349 357 345 323 311 304 320 314 303 293 291
161 181 178 161 170 198 174 132 123 141 139 205 172 156 150 250 232 185 166 371 251 244 257 292 253 328 328 333 336 342 346 344 344 345 335 318 319 349 316 299 299 313 297 284 278 274 275
158 179 155 189 160 192 191 155 174 197 138 135 161 208 164 151 155 275 203 226 304 212 205 154 157 147 286 240 281 265 293 291 285 281 342 310 295 290 286 285 293 195 275 272 187 270 263
179 178 168 131 174 165 169 179 127 176 127 128 135 141 190 225 170 166 183 184 214 227 153 332 154 156 159 158 225 316 315 160 246 289 292 284 274 273 277 280 277 270 264 265 270 260 252
168 156 164 173 184 175 187 186 187 186 170 206 130 131 163 197 212 200 169 226 187 204 210 231 236 312 151 146 156 144 149 154 205 256 281 280 249 201 183 280 181 178 166 162 171 258 262
139 183 175 163 171 181 164 179 180 184 151 155 166 132 147 138 129 148 209 189 231 228 152 218 178 226 159 302 316 145 150 138 220 288 281 154 154 274 212 150 249 195 209 260 254 211 255
146 172 181 159 193 156 178 189 168 176 173 182 129 184 155 212 120 141 140 164 206 226 226 283 209 213 202 217 219 156 171 290 141 137 179 207 251 144 146 146 224 265 253 253 213 152 188
165 166 179 156 181 173 159 164 184 182 181 187 177 135 131 174 141 130 188 210 146 134 141 234 227 268 241 252 196 195 132 130 141 129 303 159 276 261 160 219 228 141 255 192 152 212 157
128 160 171 177 169 173 163 181 162 177 171 182 185 187 192 152 128 152 195 140 138 203 144 192 170 209 278 221 240 226 214 189 194 204 232 254 217 290 280 278 275 265 166 270 268 176 271
154 149 153 150 168 161 156 173 178 173 181 180 180 186 179 189 170 199 131 160 139 176 137 134 148 177 161 143 234 242 228 250 197 176 187 189 207 186 235 244 285 247 200 252 278 275 279
142 171 153 161 137 159 176 177 147 171 185 181 179 180 184 179 181 163 198 130 134 135 189 143 163 135 201 148 245 274 280 250 149 242 248 240 212 198 194 211 222 208 209 233 235 239 249
163 161 139 164 168 134 157 156 168 155 159 180 178 182 184 163 186 198 190 195 199 154 132 134 132 151 140 133 175 147 211 295 280 254 224 221 240 244 250 219 184 207 213 219 194 174 226
122 171 166 158 163 172 160 140 178 171 149 165 172 182 162 181 182 197 185 174 196 196 197 157 130 150 189 145 196 146 137 140 140 141 142 275 238 209 221 231 236 239 243 204 219 181 204
126 144 161 160 162 136 178 172 163 143 185 152 159 186 169 184 177 170 193 195 183 190 195 200 202 198 158 223 199 199 211 182 135 141 139 140 138 139 186 245 220 217 223 225 167 169 244
136 145 142 167 144 161 131 168 168 170 182 130 165 154 180 172 182 183 186 189 177 189 192 196 194 161 202 205 164 143 178 139 214 133 131 144 146 134 133 183 134 137 266 248 230 213 223

GFSGBSN_2pvu_pres_123.txt.gz
Presure
152 190 169 203 155 159 201 359 361 374 380 409 427 386 356 334 326 320 334 325 338 369 348 256 241 218 210 252 260 234 233 214 229 232 232 224 210 194 184 156 160 157 175 177 171 177 170
159 195 184 204 171 234 163 271 363 385 385 389 458 372 348 351 334 321 323 345 368 340 309 281 254 220 219 217 283 257 230 229 227 230 231 225 230 235 219 206 162 162 158 162 166 167 168
155 212 155 195 147 217 164 173 371 382 377 398 471 390 357 339 344 333 324 328 298 317 373 401 268 232 198 197 274 259 240 238 226 211 216 220 227 227 227 222 220 213 202 190 160 135 137
182 159 122 141 149 145 154 236 301 390 371 387 470 516 359 353 337 342 340 353 368 292 297 388 187 236 206 241 219 216 254 251 241 230 216 215 206 208 229 236 239 234 250 169 210 170 199
202 126 173 135 140 174 166 157 205 302 336 374 434 459 351 355 340 337 339 330 343 296 354 376 350 201 239 240 201 228 217 272 250 247 233 224 220 219 211 202 215 228 222 240 246 248 241
190 163 143 133 137 141 170 131 300 121 350 366 346 448 420 357 351 339 341 351 299 318 336 372 372 269 215 219 199 201 228 209 283 241 244 245 236 225 215 212 221 206 211 215 223 240 243
124 194 206 120 169 191 142 193 163 255 164 310 358 353 391 406 335 357 358 364 270 282 329 361 317 346 258 209 251 223 186 228 224 278 258 228 237 243 243 239 234 232 239 218 220 226 224
199 186 180 126 130 128 170 154 137 213 206 163 358 352 352 354 358 377 344 365 310 292 317 340 370 347 294 264 251 229 197 209 214 220 222 235 240 227 235 242 241 238 234 232 222 227 233
190 176 186 204 134 139 169 127 223 220 172 200 255 321 329 323 345 364 405 369 387 278 286 341 357 353 327 314 271 269 214 238 180 174 186 225 207 223 238 269 265 257 248 244 227 228 226
176 174 156 198 126 134 152 214 128 200 154 248 152 339 322 339 324 338 336 349 344 302 278 277 335 353 341 330 316 309 211 222 212 240 229 223 228 227 229 240 252 260 261 260 257 261 255
184 165 179 137 127 194 138 196 145 129 213 219 138 193 128 319 343 336 344 339 343 352 295 280 258 330 336 332 329 328 329 271 215 219 219 239 222 223 217 216 232 252 263 271 277 280 287
182 160 168 186 132 134 152 130 205 167 161 215 220 175 125 190 216 343 327 322 330 337 340 294 286 285 327 333 367 349 310 322 297 265 223 230 232 227 231 235 250 256 260 238 237 242 244
171 160 184 186 182 194 132 154 139 190 158 159 214 203 141 190 195 275 316 344 332 314 334 316 313 286 279 317 318 334 337 343 295 276 268 238 242 243 252 258 247 248 254 261 267 268 274
147 163 173 175 171 169 128 155 198 175 183 143 146 170 222 243 219 129 348 317 313 339 327 320 322 321 317 321 283 300 319 321 333 324 281 265 262 255 248 257 260 271 270 282 275 383 355
163 144 182 167 192 175 193 128 137 126 176 189 213 141 181 227 234 125 113 167 316 310 291 356 344 335 321 321 320 322 325 290 283 296 315 326 314 299 275 306 409 374 369 355 318 313 298
150 179 147 177 164 172 178 188 138 178 133 134 190 218 170 187 186 231 228 149 151 259 320 315 296 317 347 363 375 372 352 356 362 364 354 364 386 361 322 314 316 326 307 297 301 286 280
179 158 165 174 160 184 176 171 199 133 125 128 131 196 212 188 153 212 174 247 243 197 209 345 341 332 322 314 285 286 294 295 325 340 326 308 301 298 303 313 295 283 282 281 269 279 261
159 163 168 176 177 177 160 185 200 179 194 136 134 124 178 163 187 169 205 237 192 152 162 223 232 261 314 151 150 270 303 294 290 287 283 286 274 285 294 282 271 273 273 265 263 249 257
151 154 161 166 177 159 179 170 169 186 159 195 190 165 138 131 150 207 212 211 180 215 281 272 250 230 238 302 188 246 184 183 167 151 256 276 274 286 266 269 270 251 166 222 243 250 257
179 187 161 166 162 143 175 179 176 169 186 164 162 129 165 149 208 138 197 188 199 170 200 169 249 157 248 185 177 225 226 269 204 204 141 141 183 152 203 211 215 160 211 198 257 205 210
125 143 180 155 180 146 158 168 182 173 176 173 183 130 134 136 135 167 152 134 220 189 200 186 226 247 279 216 171 202 217 146 297 269 243 146 144 161 146 150 254 241 176 245 258 237 258
150 167 154 164 160 170 145 164 172 158 179 169 194 186 200 135 145 169 141 189 138 170 135 203 199 214 232 290 172 215 229 228 209 129 219 166 293 303 288 287 137 146 146 262 210 256 146
152 173 155 148 158 180 171 149 171 165 160 160 183 181 186 199 189 146 203 157 133 190 159 196 187 203 210 230 182 261 269 248 131 165 219 210 212 213 231 231 280 165 294 292 123 290 297
163 153 163 169 134 157 152 179 165 158 163 172 171 176 174 184 171 184 187 167 168 182 179 160 193 141 212 173 201 245 241 285 238 249 228 231 156 178 219 217 209 167 213 218 226 245 245
174 141 153 132 153 150 139 171 160 160 178 168 163 177 163 180 173 182 188 190 189 174 141 138 199 131 140 175 152 157 225 202 249 289 276 242 236 220 228 192 210 236 228 214 204 208 203
148 162 153 174 165 137 176 160 161 146 162 176 163 165 161 183 185 174 176 188 194 191 196 196 205 126 208 147 131 187 207 146 205 204 216 284 295 279 261 232 220 220 229 241 210 185 175
136 161 158 153 162 171 156 158 173 166 169 154 149 164 166 166 155 176 179 168 185 185 186 193 192 187 192 180 202 213 197 138 188 163 140 140 214 261 267 290 235 274 246 228 223 223 219
145 152 147 142 150 154 152 140 167 144 166 158 163 148 179 171 167 171 175 179 173 176 183 184 195 198 199 190 185 206 210 207 158 188 182 190 142 188 135 153 252 205 269 283 294 287 272
154 157 149 154 162 125 162 172 146 175 169 166 179 166 161 156 162 165 178 158 176 188 170 184 180 193 190 197 193 199 193 202 162 204 130 206 169 186 136 137 140 140 142 227 242 141 234

GFSGBSN_2pvu_pres_126.txt.gz
Presure
132 127 170 203 135 215 162 163 392 389 454 514 449 352 337 323 312 313 310 324 324 301 395 270 244 193 200 192 194 252 252 229 217 221 238 237 190 178 168 167 159 176 143 176 149 148 160
190 127 165 135 136 150 125 276 391 378 491 488 419 338 328 322 311 311 311 328 336 333 385 383 182 230 203 222 228 209 219 254 229 204 213 240 240 218 187 158 164 169 180 158 160 170 166
132 127 198 137 209 131 133 244 180 364 485 420 376 338 327 327 312 318 313 315 325 330 363 375 216 251 231 209 196 221 207 223 252 228 202 212 238 236 222 195 186 159 161 172 146 162 175
176 185 131 153 237 144 221 128 159 300 484 387 341 334 352 329 327 321 312 315 326 345 335 364 360 183 250 240 230 218 242 240 267 238 229 201 213 243 235 228 201 195 193 164 166 172 175
110 161 121 127 181 130 207 182 184 220 378 393 360 353 337 340 335 319 324 325 329 340 325 409 348 326 219 255 228 221 199 204 262 260 239 229 208 204 221 233 232 226 221 207 195 195 177
170 178 123 128 126 229 174 222 129 143 276 340 366 352 356 342 332 341 343 317 346 315 312 402 338 214 277 222 262 198 236 206 227 237 265 243 230 195 197 206 239 235 234 238 236 232 232
173 184 200 149 126 132 134 146 226 216 163 238 361 347 405 355 332 344 340 252 315 296 337 384 397 325 324 271 266 225 200 213 214 241 280 260 251 228 215 227 234 227 235 228 241 233 230
183 157 193 126 130 175 145 129 225 201 163 231 171 329 346 406 377 371 385 266 315 363 367 381 313 332 318 319 214 221 193 202 226 207 212 271 263 257 232 227 225 213 219 211 207 213 220
184 185 142 144 153 200 214 144 179 217 137 122 156 214 311 359 359 407 384 280 289 350 367 384 328 311 249 316 281 232 217 198 202 212 218 216 239 256 260 254 247 242 226 222 227 230 222
172 180 176 135 135 165 150 212 143 183 216 141 214 237 263 352 357 367 321 292 277 267 348 376 274 332 316 311 313 320 272 223 229 211 209 215 213 237 291 283 273 263 251 247 247 252 252
182 161 172 183 128 132 169 196 208 143 172 221 154 129 239 244 360 361 373 327 308 275 331 346 353 323 331 338 328 345 294 210 211 220 198 220 217 220 219 228 232 237 233 234 238 246 257
173 173 157 177 132 143 153 200 157 215 145 193 211 143 118 231 241 342 354 347 343 323 291 334 334 350 334 330 282 294 304 262 256 208 203 203 221 226 224 208 223 209 219 230 232 237 239
160 137 172 185 172 164 162 121 133 202 215 217 213 214 140 173 124 268 283 353 334 338 332 305 311 323 326 326 337 230 339 336 310 260 228 233 217 217 232 238 226 225 228 226 224 229 242
161 156 164 172 158 173 158 126 134 200 177 213 155 204 226 155 130 142 194 237 374 334 343 341 330 311 304 321 322 332 347 239 363 228 217 222 221 228 228 248 233 239 239 233 239 245 243
163 177 178 151 154 172 148 184 179 124 126 189 217 127 203 215 222 148 243 154 270 338 321 342 350 335 335 331 313 312 321 324 324 337 330 332 309 298 286 241 239 247 253 263 364 371 351
174 173 172 169 161 176 174 147 163 129 126 128 203 207 152 211 197 120 117 184 225 172 240 352 332 306 346 377 362 346 343 337 333 327 319 287 309 354 345 388 377 359 336 321 315 299 290
143 155 169 164 161 172 159 174 156 146 152 136 127 182 144 215 198 158 206 197 180 212 212 270 216 319 330 323 322 324 328 334 329 330 329 325 324 327 337 337 315 306 294 289 277 270 276
160 179 153 165 155 164 162 156 159 173 125 169 187 129 133 164 191 187 209 198 200 224 236 148 133 266 160 159 294 307 305 286 299 301 303 313 304 294 290 289 284 274 271 275 273 256 267
171 162 157 164 148 160 164 176 175 150 174 125 127 182 151 125 197 200 214 200 201 207 222 222 234 151 137 131 178 148 180 283 283 292 265 266 269 279 275 251 262 250 259 261 261 257 264
147 167 173 186 165 169 164 164 171 171 151 177 179 128 153 132 150 157 199 209 166 203 204 196 215 192 156 149 270 156 187 136 137 139 135 161 216 210 201 268 261 268 242 244 257 255 250
163 143 162 175 165 150 157 176 179 179 160 156 172 172 140 195 153 181 138 141 181 196 199 214 206 192 174 165 224 252 209 238 244 230 194 155 160 254 170 175 163 271 254 268 232 229 234
158 154 160 164 175 166 155 151 163 173 173 160 176 175 164 180 191 196 193 193 148 135 175 202 207 216 206 198 225 215 248 168 127 126 125 244 237 199 140 224 284 253 141 141 294 272 137
148 147 152 159 162 147 162 163 191 154 173 171 179 160 176 163 184 181 188 170 151 195 167 142 164 149 204 201 203 228 225 226 225 156 264 187 238 223 237 172 239 165 194 199 231 233 236
138 130 154 149 127 158 143 173 176 166 148 163 171 172 157 174 171 182 172 185 157 177 156 157 177 139 162 140 188 194 211 214 204 217 241 212 281 263 249 221 225 217 234 245 246 174 171
157 149 147 153 159 169 158 132 156 174 161 172 172 170 169 161 174 177 177 184 182 170 176 189 178 140 138 183 227 146 195 196 220 182 194 200 232 232 267 296 286 265 184 242 221 213 217
129 162 152 123 144 159 127 158 164 149 157 169 159 175 164 174 159 171 177 168 181 176 182 160 197 191 170 198 163 221 215 195 189 206 189 188 227 207 213 198 250 261 251 294 293 289 286
143 151 155 157 151 156 155 165 160 141 142 154 155 172 159 165 171 181 165 168 176 174 184 174 185 173 194 186 183 200 203 179 150 200 152 153 151 180 214 216 196 236 238 219 221 237 253
143 157 159 173 163 125 166 151 154 172 181 158 172 140 183 178 175 187 179 175 175 174 173 165 179 185 181 192 164 189 190 206 198 189 205 183 211 187 204 201 191 169 160 202 217 199 171
183 180 164 156 178 123 167 170 171 155 145 172 167 172 157 133 162 176 179 161 172 178 183 157 180 169 163 182 186 191 184 203 206 199 188 126 173 199 175 217 196 185 138 140 140 140 136

GFSGBSN_2pvu_pres_129.txt.gz
Presure
124 128 160 147 191 133 218 259 162 332 328 356 326 327 315 313 300 307 307 319 323 350 358 263 197 229 193 183 271 245 228 215 198 231 242 197 186 171 168 167 156 163 163 161 159 122 157
188 136 129 132 217 135 201 153 162 346 332 342 350 325 296 309 314 317 319 325 319 321 361 398 257 237 195 186 193 273 248 233 224 196 218 234 201 194 183 159 167 164 161 163 158 158 159
152 182 125 130 131 168 127 186 260 267 359 346 341 334 319 327 294 316 319 312 320 335 335 405 258 202 183 192 213 183 195 256 239 229 198 214 237 247 200 194 176 173 173 165 170 181 176
183 128 128 144 148 148 126 213 142 232 348 384 354 346 331 301 322 327 300 312 320 322 376 356 385 250 240 223 215 196 193 197 258 241 229 209 203 220 242 237 219 193 176 166 163 163 162
185 166 147 127 224 136 205 212 127 138 273 358 394 368 354 323 322 309 299 304 326 335 334 360 321 189 250 238 225 221 191 191 194 249 244 231 226 211 196 208 235 249 219 187 178 177 176
174 183 133 148 211 166 208 197 219 126 244 282 371 426 346 293 330 361 373 359 377 314 321 324 355 319 254 249 227 203 180 188 199 191 267 253 241 235 237 231 204 221 239 246 206 189 191
172 155 133 135 207 148 148 223 204 163 138 144 365 420 318 300 301 277 234 354 339 373 333 319 319 328 322 258 248 242 230 212 220 216 194 230 216 212 252 236 233 203 213 221 245 245 241
182 180 181 129 126 187 192 189 192 208 209 226 231 256 348 316 298 287 350 359 312 319 349 343 341 322 313 315 270 267 243 188 212 190 206 198 227 240 227 263 241 233 209 206 214 244 246
168 181 186 146 134 131 164 129 203 186 229 129 173 272 264 359 324 308 291 352 397 405 338 316 318 314 244 313 330 244 263 239 213 209 225 210 207 223 230 257 265 248 235 226 222 206 207
174 163 182 159 126 135 126 146 213 201 207 205 158 243 233 350 369 332 311 359 400 403 394 315 318 315 314 312 302 309 211 257 251 200 201 203 204 209 224 235 245 249 259 249 240 227 202
157 181 172 177 137 130 127 177 200 202 197 206 205 140 212 231 277 362 352 353 379 351 344 322 163 288 307 307 307 309 313 277 256 246 206 210 207 207 208 221 247 279 277 272 266 261 237
170 159 171 181 161 127 165 131 123 204 198 148 190 205 148 223 248 244 308 360 337 406 334 337 323 335 324 316 317 325 324 340 269 199 197 211 218 210 217 217 218 221 260 272 279 278 274
168 179 168 173 173 146 142 167 132 127 206 193 185 207 205 195 166 200 245 358 353 344 335 341 343 343 322 320 317 314 318 315 259 274 216 207 205 208 212 219 229 225 227 224 225 228 233
153 173 179 170 179 156 146 132 127 179 125 108 161 187 203 202 209 137 233 223 279 266 348 348 334 332 334 340 340 344 345 344 336 344 331 268 219 222 219 222 221 232 232 229 224 227 234
130 153 170 175 167 180 165 137 132 133 132 130 131 183 162 194 191 153 148 211 219 301 260 359 358 345 339 334 311 326 337 343 367 365 344 239 225 227 237 234 228 228 232 242 238 239 242
164 127 156 178 170 184 157 164 181 125 178 126 132 132 189 164 201 214 200 171 184 196 248 324 238 324 347 360 357 351 341 339 331 334 338 343 315 348 271 224 223 280 283 347 259 277 282
133 130 156 138 149 166 179 174 161 165 166 127 129 130 145 150 202 191 169 200 209 140 211 195 200 268 234 314 318 317 315 313 322 329 333 337 348 346 342 343 331 321 312 309 301 301 290
145 155 150 160 178 161 149 173 156 159 153 164 127 179 130 203 141 204 187 218 174 219 168 145 128 198 255 167 236 283 294 320 316 305 299 302 302 306 303 293 289 295 291 287 281 281 269
155 141 160 165 175 161 148 181 179 160 168 173 167 126 151 132 140 147 188 144 190 179 211 217 215 239 150 159 137 136 142 205 252 290 281 291 292 293 287 284 288 286 283 278 270 272 266
157 142 157 154 169 153 166 169 152 180 170 172 171 169 163 153 189 130 133 193 182 177 197 196 206 198 211 205 191 240 239 261 205 181 229 144 219 214 273 276 262 266 271 237 243 258 261
164 123 135 119 168 147 167 156 170 149 179 171 173 183 185 154 172 150 176 134 129 174 192 154 197 210 193 210 215 211 174 162 249 274 230 133 149 236 137 136 136 171 219 140 252 269 277
167 153 146 128 153 166 170 164 168 170 173 158 168 177 173 168 175 179 181 193 176 137 189 186 197 204 196 207 218 217 188 199 168 129 135 155 157 258 246 233 228 240 242 141 141 144 211
139 149 155 139 129 166 174 178 166 160 165 149 183 164 172 167 167 170 175 179 143 186 194 187 153 189 193 183 205 194 218 178 198 209 222 214 212 246 274 215 258 242 243 232 208 213 218
160 122 160 167 153 155 160 161 154 130 168 162 153 183 173 183 154 177 178 181 175 158 144 171 160 174 139 140 170 178 188 194 193 233 198 218 220 225 213 219 242 240 251 285 278 273 273
164 117 177 172 129 150 158 140 156 160 165 146 179 169 165 177 183 181 184 171 187 170 186 184 183 155 191 142 156 177 154 198 191 179 196 203 203 216 203 217 217 235 204 218 233 216 225
134 142 167 163 169 171 146 164 171 132 153 161 135 170 154 180 168 178 180 168 180 182 177 170 189 183 183 196 178 192 177 142 201 181 190 154 192 182 197 200 205 160 199 216 210 203 224
168 168 164 164 164 182 138 149 164 140 176 163 164 160 156 165 176 178 173 168 175 173 175 179 189 182 164 182 189 182 186 177 199 198 166 189 203 133 138 189 193 184 210 216 202 200 197
163 179 172 170 168 164 161 163 168 130 182 172 157 161 166 173 168 164 177 163 173 171 175 169 171 171 180 187 177 167 185 179 187 198 192 191 194 201 154 174 199 197 180 206 208 211 191
162 164 160 156 171 158 163 131 160 134 163 178 180 175 148 161 175 134 176 160 169 176 170 161 171 179 154 183 174 184 162 188 190 183 190 179 172 182 204 168 133 173 194 181 140 141 144